GFSNE_prec_radar_000.txt.gz
Reflectivity
-20 -20 -20 -20 -20 -20 -20 -20 -20 -20 -20 -20 -20 -20 -20 -20 -20 -20 -20 -20 -20 -20 -20 -20 -20 -16 -20 6 -18 -15 -9 -2 17 -20 -19 -9 3 -4
-20 -20 -20 -20 -20 -20 -20 -20 -20 -20 -20 -20 -20 -20 -20 -20 -20 -20 -20 -20 -20 -20 -20 -20 -20 -20 5 -16 -7 12 16 -20 -20 -20 -20 -19 -8 -4
-20 -20 -20 -20 -20 -20 -20 -20 -20 -20 -20 -20 -20 -20 -20 -20 -20 -20 -20 2 2 -20 -20 -20 -1 2 -17 -4 -16 -18 -20 -20 -7 -7 16 16 -19 4
-20 -20 -20 -20 -20 -20 -20 -20 -20 -20 -9 -20 -20 -20 -20 -20 -20 -20 -20 -20 -20 -20 -20 -9 -16 -20 -20 -20 -20 -3 23 18 1 -6 8 18 6 19
-20 -20 -20 -20 -20 -20 -20 -20 -20 -20 -20 -5 -20 -20 -20 1 -9 -20 -20 -20 -20 -20 -20 -20 -20 -19 -2 10 23 15 -7 -20 -19 -20 -20 -20 -6 -20
-20 -20 -20 -20 -20 -20 -20 -10 -20 -20 -20 -20 4 -19 19 -12 -20 -20 -20 -20 -20 -20 -20 -7 -6 -12 -18 -20 -20 -20 -20 -20 -20 -10 -5 16 0 16
-20 -20 -20 -20 -20 -20 -2 -20 -0 -20 6 12 -20 9 -16 -20 -20 -20 -20 -20 -15 5 -14 -20 -10 -20 -20 -20 -20 -20 -5 -3 -9 20 16 2 10 17
-20 -20 -20 -20 -20 -1 -20 -20 9 11 8 8 21 -20 -20 -20 -20 -20 -1 15 -20 -20 -5 -20 -15 -20 -20 -20 -5 5 5 -17 -3 -18 -18 9 6 22
-20 -20 -20 -20 -20 -20 -20 10 -1 1 18 -16 -20 -20 -16 6 11 11 -16 -4 -3 -17 -15 -15 -20 -20 -20 -20 -20 -16 -14 -3 4 11 15 13 9 7
-20 -20 -20 -20 -20 6 2 -15 14 -0 -20 -20 -8 3 7 -11 -4 -9 2 7 -8 -18 -20 -15 -20 -20 -20 -20 -20 -20 -15 5 9 14 18 30 23 26
-20 -20 -20 -20 -20 -19 12 13 -20 -20 -20 -3 12 -6 -20 -17 -14 12 -4 4 -20 -20 -20 -20 -20 -20 -20 -20 -20 -20 -5 7 9 12 14 16 14 17
-20 -20 -20 -20 11 22 -8 -20 -20 -20 -4 -20 -20 -20 -20 -20 -5 -9 -1 9 -17 -19 -20 -3 -19 -20 3 -20 -20 -20 -20 -20 7 7 9 15 17 16
-20 -20 -20 1 6 -9 -16 -20 -19 3 -20 -20 -20 -20 -20 -20 -20 -20 -20 9 11 -2 -20 14 8 -20 -14 -20 -20 -20 -20 -18 -11 -17 5 24 25 25
2 -20 12 -10 -20 -20 -20 1 6 -5 -20 -20 -19 -15 -20 -20 -20 -20 -20 -19 -18 8 -10 -14 14 6 4 -10 -20 -20 -20 -20 -20 -18 4 17 26 25
4 12 -19 -20 -20 -20 -20 -18 -18 -20 -20 1 0 -20 -20 -20 -20 -20 -19 -20 -2 11 6 -18 7 -11 -10 -8 -20 -20 -20 -18 5 13 15 15 7 22
1 -20 -20 -20 -20 -20 -20 -20 -20 -19 -3 0 -4 -20 -20 -20 -20 -20 -19 -20 -17 -11 6 9 6 -2 -6 -20 -20 -20 -15 10 -5 3 16 27 26 23
2 -20 -20 -20 -20 -20 -20 -20 -20 -20 -10 -20 -20 -20 -20 -20 -20 -20 -15 -11 -16 1 -19 -20 -20 -20 -20 -20 -10 3 -18 -3 11 17 15 17 24 18
-20 -20 -20 -20 -20 -20 -20 -20 -20 -16 -20 -20 -20 -20 -18 -19 -20 -20 -16 -16 3 -19 -20 -20 -20 -20 -20 2 -1 -2 9 7 10 34 29 19 12 17
-20 -20 -20 -20 -20 -20 -20 -20 -20 -20 -20 -20 -20 -17 -6 -20 -20 -20 -20 -20 -20 -20 -20 -20 -18 -18 -13 -18 -4 23 19 17 18 15 27 18 22 29
-20 -20 -20 -20 -20 -20 -20 -20 -20 -20 -20 -20 -18 -20 -20 -20 -20 -20 -20 -18 -18 -20 -20 -20 -19 -14 -12 1 -6 14 28 16 16 17 19 32 31 26
-20 -20 -20 -20 -20 -20 -20 -20 -20 -20 -14 -16 -20 -17 -10 -13 -20 -20 -20 -10 -2 -20 -20 -19 2 6 8 4 -10 -7 7 23 22 24 29 15 23 23
-20 -20 -20 -20 -20 -20 -20 -20 -20 -20 -20 -20 -20 -19 -20 -12 -7 -20 -20 -20 -20 -20 -20 -20 -20 1 -16 -20 -11 -14 -20 -8 11 13 25 30 25 22
-20 -20 -20 -20 -20 -20 -20 -20 -20 -20 -20 -20 -20 -20 -20 -11 -20 -18 -13 -20 -20 -20 -20 -20 -20 -20 -20 -20 -20 -19 -20 -20 -20 3 24 26 29 30

GFSNE_prec_radar_003.txt.gz
Reflectivity
-20 -20 -20 -20 -20 -20 -20 -20 -20 -20 -20 -20 -20 -20 -20 -20 -20 -20 -20 -20 -20 -20 -20 -20 -20 -20 -20 -20 -20 -20 -19 11 21 17 -13 17 5 14
-20 -20 -20 -20 -20 -20 -20 -20 -20 -20 -20 -20 -20 -20 -20 -20 -20 -20 -20 -20 -20 -20 -20 -20 -20 -20 -20 -20 -20 -16 23 19 5 20 19 20 14 2
-20 -20 -20 -20 -20 -20 -20 -20 -20 -20 -20 -20 -20 -20 -20 -20 -20 -20 -7 3 -19 -20 -20 -20 -20 -20 -20 8 18 -15 17 -1 11 -13 15 18 6 18
-20 -20 -20 -20 -20 -20 -20 -20 -20 -20 -4 2 -20 -20 -20 -20 -20 -20 -19 -20 -20 -20 -20 -20 -20 -19 6 -17 -14 1 -18 -12 24 25 20 19 21 -15
-20 -20 -20 -20 -20 -20 -20 -20 -20 -1 -12 -20 -20 -20 -20 -20 -19 -9 -20 -20 -20 -20 -20 -20 -18 -14 2 -3 5 13 17 4 0 5 10 -20 -5 -0
-20 -20 -20 -20 -20 -20 -20 -14 -1 -20 -20 -20 6 4 -20 -9 -19 -20 -20 -20 -20 -20 -20 -5 -8 -20 -20 -20 -20 -19 -20 -20 -20 -20 -20 -20 -20 -20
-20 -20 -20 -20 -20 -20 -5 -12 -8 -5 -12 14 -20 4 -17 -20 -20 -20 -20 -20 -10 5 -20 -20 -20 -20 -20 -20 -20 -20 -14 -18 0 7 11 19 19 20
-20 -20 -20 -20 -20 -20 -20 -20 8 9 8 10 14 -20 -20 -20 -20 -2 5 5 -20 -20 -2 -20 -20 -20 -20 -20 -20 6 6 9 11 6 9 4 18 21
-20 -20 -20 -20 -20 -20 -20 -15 17 22 -3 -5 -20 -20 -20 2 11 -9 -20 -1 2 -20 -16 -20 -20 -20 -20 -20 -20 -20 5 8 4 10 14 14 14 11
-20 -20 -20 -20 -20 0 17 -1 -20 -20 -20 -20 -14 -3 5 -11 -15 -16 -10 -4 -11 -17 1 -2 -20 -20 -20 -20 -20 -20 -2 5 5 8 9 12 15 19
-20 -20 -20 1 -20 13 -2 -20 -20 -20 -20 -20 9 -6 -20 -20 -2 10 -8 -20 -20 -20 -20 -20 -20 -20 -20 -20 -20 -20 -1 2 -6 3 6 6 11 10
-20 -20 -20 6 3 13 -0 -20 -20 -20 4 -19 -20 -20 -20 -20 -20 -20 3 11 -16 -19 -20 2 -16 -19 -1 -20 -20 -20 -20 -20 -14 -3 -0 8 11 12
-20 -20 -20 5 3 -20 -4 -20 -15 6 -18 -20 -20 -20 -20 -20 -20 -20 -20 8 12 2 -20 12 8 -20 -20 -20 -20 -20 -20 -20 -20 -20 -20 -5 17 17
-6 -20 -4 7 -11 -20 -20 -0 4 -7 -20 -20 -20 -20 -20 -20 -20 -20 -20 -20 -7 13 -3 -2 16 2 1 -12 -20 -20 -20 -19 -16 -8 -4 8 22 31
-16 1 -18 -20 -20 -20 -20 -18 -18 -20 -20 -0 -4 -20 -20 -20 -20 -20 -20 -20 -6 10 5 -17 -2 -17 -14 4 -10 -20 -1 -20 -20 3 15 16 18 20
-18 -20 -20 -20 -20 -20 -20 -20 -20 -19 -17 -20 -20 -20 -20 -20 -20 -20 -20 -20 -20 -20 -11 -20 -1 -4 -2 -18 8 -0 4 18 7 7 -1 8 24 29
2 -20 -20 -20 -20 -20 -20 -20 -20 -20 -20 -20 -20 -20 -20 -20 -20 -20 -20 -20 -20 -20 -20 -20 -20 -19 -20 1 7 6 9 -4 12 15 5 -17 3 19
-20 -20 -20 -20 -20 -20 -20 -20 -20 -20 -20 -20 -20 -20 -20 -20 -20 -20 -20 -20 -6 -20 -20 -20 -20 -20 -16 -10 -2 -0 15 19 25 24 7 9 -8 1
-20 -20 -20 -20 -20 -20 -20 -20 -20 -20 -20 -20 -20 -19 -9 -20 -19 -20 -20 -20 -20 -20 -20 -20 -19 -20 -20 -1 9 24 10 23 27 29 29 14 17 23
-20 -20 -20 -20 -20 -20 -20 -20 -20 -20 -20 -20 -13 -17 -20 -20 -20 -20 -20 -20 -19 -20 -20 -20 -20 -20 1 10 11 9 21 15 14 13 25 23 36 32
-20 -20 -20 -20 -20 -20 -20 -20 -20 -20 -16 -20 -20 -20 -20 -20 -20 -20 -20 -20 -1 -20 -20 -20 -18 1 -7 -4 -14 -20 2 23 31 25 23 3 23 5
-20 -20 -20 -20 -20 -20 -20 -20 -20 -20 -20 -20 -20 -20 -20 -20 -17 -20 -20 -20 -20 -20 -20 -20 -20 -20 -20 -20 -20 -19 -20 -19 18 27 24 30 21 21
-20 -20 -20 -20 -20 -20 -20 -20 -20 -20 -20 -20 -20 -20 -20 -8 -20 -20 -20 -20 -20 -20 -20 -20 -20 -20 -20 -20 -20 -20 -20 -19 -17 9 18 30 30 31

GFSNE_prec_radar_006.txt.gz
Reflectivity
-20 -20 -20 -20 -20 -20 -20 -20 -20 -20 -20 -20 -20 -20 -20 -20 -20 -20 -20 -20 -20 -20 -20 1 -7 -20 -20 -20 -20 -20 -20 -20 -20 -5 1 3 -2 18
-20 -20 -20 -20 -20 -20 -20 -20 -20 -20 -20 -20 -20 -20 -20 -20 -20 -20 -20 -20 -20 -20 6 -20 -20 -20 -20 -20 -20 -20 -12 1 1 12 19 20 23 21
-20 -20 -20 -20 -20 -20 -20 -20 -20 -20 -20 -20 -20 -20 -20 -20 -20 -20 -20 -20 -5 18 -18 -20 -20 -20 -20 -20 -4 3 5 7 -7 14 6 -20 18 20
-20 -20 -20 -20 -20 -20 -20 -20 -20 -20 -20 -20 -20 -20 -20 -20 -20 -20 -20 -20 -20 -20 -20 -20 -4 -19 -17 3 19 18 18 17 3 2 18 20 16 17
-20 -20 -20 -20 -20 -20 -20 -20 -20 -20 -6 -17 -20 -20 -20 -20 -20 -20 -20 -20 -20 -20 -20 -20 -20 -19 5 6 5 7 4 10 13 15 19 10 1 7
-20 -20 -20 -20 -20 -20 -20 -20 -20 -20 -20 -20 -20 -14 -4 -20 -20 -20 -20 -20 -20 -20 -20 -2 -7 -20 -20 -20 -20 -20 -19 -20 -19 -6 -11 -19 -10 -19
-20 -20 -20 -20 -20 -20 -20 -20 -20 -20 -10 14 13 -14 -20 -20 -20 -20 -20 -20 -20 -15 -20 -20 -20 -20 -20 -20 -20 -20 -5 6 -5 11 16 13 15 10
-20 -20 -20 -20 -20 -20 -20 -20 5 20 -19 -20 -20 -20 -20 -20 -20 -19 4 -20 -20 -20 -20 -20 -20 -20 -20 -20 -20 -3 6 9 0 -8 14 1 10 4
-20 -20 -20 -20 -20 -20 -20 -15 17 -20 -20 -20 -20 -20 -20 -14 4 -20 -20 -14 -20 -20 -18 -17 -20 -20 -20 -20 -20 -20 -1 6 -0 12 14 14 -0 4
-20 -20 -20 -20 -20 1 1 0 -20 -20 -20 -20 -20 -13 3 -19 -20 -17 -19 -2 -20 -20 -20 -2 -20 -20 -20 -20 -20 -20 -2 2 6 11 12 14 15 17
-20 -20 -20 -5 -3 10 10 -19 -20 -20 -20 -20 10 -8 -20 -20 -14 5 -11 -20 -20 -20 -20 -20 -20 -20 -20 -20 -20 -20 -16 -16 -12 1 -1 2 6 5
-20 -20 -20 3 7 15 3 -20 -20 -20 -3 -18 -20 -20 -20 -20 -20 -20 -20 6 -18 -14 -20 2 -17 -18 7 -2 -20 -20 -20 -20 -20 -20 -4 -1 3 2
-20 -20 -20 -2 7 -19 -9 -20 -18 5 -17 -20 -20 -20 -20 -20 -20 -20 -20 -0 11 3 -20 12 5 -20 -11 -19 -20 -19 -20 -20 -20 -19 -20 -7 9 10
0 -20 -5 6 0 -20 -20 -8 4 -3 -20 -20 -20 -20 -20 -20 -20 -20 -20 -20 -15 13 1 -18 14 -1 2 -11 -11 -6 3 1 -15 -20 -18 -8 1 24
-8 3 -19 -20 -20 -20 -20 -18 -18 -20 -20 -20 -20 -20 -20 -20 -20 -20 -20 -20 -17 5 -11 -20 -8 -14 0 9 3 -20 9 -9 -18 -19 -18 5 4 4
-20 -20 -20 -20 -20 -20 -20 -20 -20 -20 -19 -20 -20 -20 -20 -20 -20 -20 -20 -20 -20 -20 -20 -20 -20 -8 5 3 17 12 0 17 -0 -17 7 -0 13 14
-8 -20 -20 -20 -20 -20 -20 -20 -20 -20 -20 -20 -20 -20 -20 -20 -20 -20 -20 -20 -20 -20 -20 -20 -19 3 1 1 -1 10 1 6 21 29 8 -6 9 19
-20 -20 -20 -20 -20 -20 -20 -20 -20 -20 -20 -20 -20 -20 -20 -20 -20 -20 -20 -20 -20 -20 -20 -20 -20 -15 -12 -3 -7 5 -13 -19 5 25 18 17 8 29
-20 -20 -20 -20 -20 -20 -20 -20 -20 -20 -20 -20 -20 -20 -14 -20 -20 -20 -20 -20 -20 -20 -20 -20 -20 -20 -20 -20 -20 5 9 -6 -11 5 21 11 16 21
-20 -20 -20 -20 -20 -20 -20 -20 -20 -20 -20 -20 -20 -20 -20 -20 -20 -20 -20 -20 -20 -20 -20 -20 -20 -19 1 12 8 -20 15 13 6 12 24 31 34 29
-20 -20 -20 -20 -20 -20 -20 -20 -20 -20 -5 -9 -20 -20 -20 -20 -20 -20 -20 -20 -20 -20 -20 -20 -20 -12 -17 -19 -20 -20 -20 11 20 21 17 6 -3 17
-20 -20 -20 -20 -20 -20 -20 -20 -20 -20 -20 -20 -20 -20 -20 -20 -20 -20 -20 -20 -20 -20 -20 -20 -20 -20 -20 -20 -20 -20 -18 -5 13 20 7 21 20 18
-20 -20 -20 -20 -20 -20 -20 -20 -20 -20 -20 -20 -20 -20 -20 -20 -20 -20 -20 -20 -8 -20 -20 -20 -20 -20 -20 -20 -20 -20 -19 -18 9 3 4 15 21 30

GFSNE_prec_radar_012.txt.gz
Reflectivity
-20 -20 -20 -20 -20 -20 -20 -20 -20 -20 -20 -20 -20 -20 -20 -20 -20 -20 -20 -20 -20 -12 -20 -20 -20 -18 -13 -13 -17 -12 -17 12 -3 -3 -15 -20 -20 -19
-20 -20 -20 -20 -20 -20 -20 -20 -20 -20 -20 -20 -20 -20 -20 -20 -20 -20 -20 -20 -20 -17 -20 -20 -2 -20 -20 -20 -19 -17 -19 -14 -4 -5 18 20 20 0
-20 -20 -20 -20 -20 -20 -20 -20 -20 -20 -20 -20 -20 -20 -20 -20 -20 -20 -20 -20 -20 -20 -20 -20 -20 -20 -20 1 -4 -10 -8 -7 -5 17 18 19 19 21
-20 -20 -20 -20 -20 -20 -20 -20 -20 -20 -20 -20 -20 -20 -20 -20 -20 -20 -20 -20 -20 -20 -20 -20 -20 -2 -20 -19 -19 -17 9 12 3 16 18 18 17 17
-20 -20 -20 -20 -20 -20 -20 -20 -20 -20 -20 -20 -20 -20 1 -15 -5 -20 -20 -20 -20 -20 -20 -20 -20 -20 -20 -20 -20 -20 -20 3 4 7 -15 -3 -2 -20
-20 -20 -20 -20 -20 -20 -20 -20 -20 -20 -20 -10 -3 10 4 -20 -20 -20 -20 -20 -20 -20 -20 -20 -20 -20 -20 -20 -20 -20 -1 -8 -20 -16 -6 3 5 12
-20 -20 -20 -20 -20 -20 -20 -20 -19 -10 8 12 17 8 -3 -20 -20 -20 -9 1 -11 -20 -20 -20 -20 -20 -20 -20 -20 -20 -20 -20 4 8 10 12 12 -7
-20 -20 -20 -20 -20 -20 -20 -20 2 5 16 17 11 6 -20 -20 -20 -0 10 9 0 -20 -20 -20 -20 -20 -20 -20 -20 -20 -10 1 -9 0 10 13 13 11
-20 -20 -20 -20 -20 -20 -20 1 10 16 14 6 4 -20 -19 -12 -9 14 8 10 7 -18 -1 -8 -20 -20 -20 -20 -20 -20 -20 -5 5 9 10 10 9 10
-20 -20 -20 -20 -20 1 6 15 10 -13 -20 -20 -20 -20 2 9 6 3 8 5 -2 -16 -20 -20 -20 -20 -20 -20 -20 -20 -20 -20 -4 7 8 10 7 9
-20 -20 -20 -8 -20 6 14 8 -3 -20 -20 -20 1 7 -7 -17 -4 -0 7 9 -20 -20 -20 -17 -20 -20 -20 -20 -20 -20 -17 8 3 10 12 11 9 9
-20 -20 -20 -1 4 13 2 -4 -7 -20 -18 6 -20 -20 -20 -20 -20 -20 1 8 5 -8 -20 -11 -19 -12 -13 -20 -20 -20 -20 -20 -20 -20 4 7 10 13
-20 -16 -20 -20 7 -8 -0 -20 -20 2 2 -18 -20 -20 -20 -20 -20 -20 -15 7 8 -8 -20 7 6 4 7 -12 -20 -20 -20 -20 -20 -20 -20 -20 2 18
3 -15 -20 1 -13 -16 -20 -20 2 2 -20 -20 -20 -20 -20 -9 -20 -9 -9 0 3 4 -8 4 11 8 5 -19 -20 -20 -20 -20 -20 1 2 -12 -1 4
-17 -8 -2 -19 -20 -20 -20 -20 -20 -20 -20 -20 -20 -3 -3 -19 -16 -0 -2 -2 -1 -3 -15 -19 5 3 7 2 -15 -20 -20 -20 -18 -18 10 16 25 18
-20 -20 -20 -20 -20 -20 -20 -20 -20 -20 -20 -20 -18 -20 -20 -20 -20 -12 3 -20 -16 -20 -20 -20 -14 8 5 1 1 -20 -20 -16 -5 -19 -15 -13 12 11
-11 -20 -20 -20 -20 -20 -20 -20 -20 -20 -20 -15 -14 -12 -20 -20 -20 -20 0 2 -20 -20 -20 -20 -20 -3 4 4 -20 -20 -20 -20 -4 -17 -1 -2 1 24
-20 -20 -20 -20 -20 -20 -20 -20 -20 -15 -20 -20 -4 -5 -20 -20 -17 -9 -14 -20 -20 -20 -20 -7 2 -8 -18 -20 -20 -2 -10 -0 -18 -20 2 11 -5 -7
-20 -20 -20 -20 -20 -20 -20 -16 -20 -20 -9 -5 -17 -20 2 3 -4 -20 -20 -20 -20 -20 -20 5 4 7 5 -20 -20 -15 -14 -20 -20 -6 -13 4 10 16
-20 -20 -20 -20 -20 -20 -20 -20 -20 -20 -20 -16 -15 -1 -15 -5 -20 -20 -20 -20 -20 -12 -20 -15 4 7 8 -1 -11 -11 -19 7 5 3 -17 -17 14 23
-20 -20 -20 -20 -20 -18 -20 -2 -19 -20 -9 -1 -20 -20 -20 -1 -16 -20 -20 -12 -2 -15 -18 -20 -15 -0 4 -20 6 -20 -20 -17 -16 17 14 2 -17 -13
-20 -20 -20 -20 -20 -18 -14 -20 -20 -20 -20 -20 -20 -20 -20 -7 3 -20 -20 -20 -20 -6 -5 2 -16 5 -7 -15 -0 2 -20 -20 1 24 21 20 19 11
-20 -20 -20 -20 -20 -20 -20 -16 -20 -20 -20 -20 -20 -20 -2 7 -20 -20 -20 -20 -1 -5 1 0 -19 3 2 4 -0 1 -20 -20 -11 15 -11 4 23 23

GFSNE_prec_radar_015.txt.gz
Reflectivity
-20 -20 -20 -20 -20 -20 -20 -20 -20 -20 -20 -20 -20 -20 -20 -20 -20 -20 -20 -20 -20 -20 -20 -20 -20 -20 -20 -20 -12 -20 -20 -11 -2 4 7 4 7 -17
-20 -20 -20 -20 -20 -20 -20 -20 -20 -20 -20 -20 -20 -20 -20 -20 -20 -20 -20 -20 -20 -20 -20 -20 -15 -20 -20 -20 -20 -20 0 -8 10 -15 -3 18 12 11
-20 -20 -20 -20 -20 -20 -20 -20 -20 -20 -20 -20 -20 -20 -20 -20 -20 -20 -20 -20 -20 -20 -20 -20 -20 -20 -20 -7 2 -17 -20 2 -3 -7 -3 19 19 19
-20 -20 -20 -20 -20 -20 -20 -20 -20 -20 -20 -20 -20 -20 -20 -20 -20 -20 -20 -20 -20 -20 -20 -20 -20 0 -20 -20 -8 -4 -18 -20 -14 11 14 -0 22 17
-20 -20 -20 -20 -20 -20 -20 -20 -20 -20 -20 -20 -20 -20 -20 -20 -12 -20 -20 -20 -20 -20 -20 -20 -20 -20 -20 -1 -20 -20 -9 -2 -2 -12 8 11 -5 -10
-20 -20 -20 -20 -20 -20 -20 -20 -20 -20 -20 -20 -20 -20 1 8 -20 -20 -20 -20 -20 -20 -20 -20 -20 -20 -20 -20 -20 -20 -12 -11 -1 -7 4 11 9 5
-20 -20 -20 -20 -20 -20 -20 -20 -19 -20 -7 -14 -2 11 -4 -20 -20 -20 -20 -20 -20 -13 -20 -20 -20 -20 -20 -20 -20 -20 -20 -20 -4 -1 -1 11 13 15
-20 -20 -20 -20 -20 -20 -20 -20 -2 2 7 11 12 -5 -20 -20 -20 -16 -20 -4 -19 -20 -20 -20 -20 -20 -20 -20 -20 -20 -20 -20 -7 3 7 11 11 7
-20 -20 -20 -20 -20 -20 -20 -19 -7 8 14 5 2 -6 -20 -20 -20 -20 4 3 -20 -20 -20 -20 -20 -20 -20 -20 -20 -20 -20 -20 -20 5 2 8 10 11
-20 -20 -20 -20 -20 -20 -20 -8 5 -13 -13 -20 -20 -20 -20 -17 13 11 -11 -20 -20 -20 -4 -18 -20 -20 -20 -20 -20 -20 -20 -20 -20 -20 -17 2 12 12
-20 -20 -20 -20 -20 -20 1 2 -20 -20 -20 -20 -20 -13 0 -15 -17 -20 -20 1 -20 -20 -20 -20 -20 -20 -20 -20 -20 -20 -20 -20 -20 -20 -20 -20 -5 11
-20 -20 -20 -20 -0 -20 -4 -20 -20 -20 -20 -19 -20 -20 -20 -20 -20 -20 -13 1 -20 -20 -20 -4 -17 -19 -12 -20 -20 -20 -20 -20 -20 -20 -20 -20 -14 10
-20 -20 -20 -20 -20 4 -2 -19 -20 -15 -10 -19 -20 -20 -20 -20 -20 -20 -20 -0 9 -16 -20 6 6 -20 -11 -20 -20 -20 -20 -20 -20 -20 -20 -18 3 22
-20 -20 -20 -20 -3 -20 -20 -20 -0 -2 -20 -20 -20 -20 -20 -20 -20 -16 -20 -20 -16 -15 -20 -5 13 -3 0 -9 -20 -20 -20 -20 -20 -20 -20 -20 -16 2
-20 -20 -19 -20 -20 -20 -20 -20 -18 -20 -20 -20 -20 -20 -20 -20 -20 -20 -5 -1 -6 -19 -20 -20 -19 -16 -3 -2 -19 -20 -20 -20 -20 -20 -20 -9 5 23
-20 -20 -20 -20 -20 -20 -20 -20 -20 -20 -20 -20 -20 -20 -20 -20 -20 -20 -16 -20 -20 -20 -20 -20 -20 -1 2 -20 -8 -13 -20 -20 -20 -19 -6 -20 1 14
-9 -20 -20 -20 -20 -20 -20 -20 -20 -20 -18 -6 -13 -20 -20 -20 -20 -20 -20 -20 -11 -20 -20 -20 -20 -20 -20 -15 -14 -20 -20 -20 -15 -20 -20 -20 -3 -13
-20 -20 -20 -20 -20 -20 -20 -20 -20 -20 -15 -14 -20 -20 -20 -20 -20 -20 -20 -20 -20 -20 -20 -20 -20 -13 -20 -20 -20 -17 -20 -20 -20 -20 -20 4 -10 -19
-20 -20 -20 -20 -20 -20 -20 -5 -20 -20 -14 -20 -20 -20 -20 -20 -20 -20 -20 -20 -20 -20 -20 -20 -16 -11 -4 -20 -20 -20 10 -20 -20 -19 -19 -16 2 -20
-20 -20 -20 -20 -20 -18 -5 -20 -20 -20 -20 -20 -20 -20 -20 -20 -20 -20 -20 -20 -17 -19 -20 -20 -10 -11 11 12 4 -20 -20 4 9 0 -19 -11 0 -20
-20 -20 -20 -20 -20 -10 -20 -20 -20 -20 -20 -20 -20 -20 -20 -3 -15 -20 -20 -20 -18 -20 -20 -20 -20 6 -13 -13 -7 -20 -20 -14 -3 16 12 -5 -17 -19
-20 -20 -20 -20 -20 -20 -20 -20 -20 -20 -20 -20 -20 -19 -20 -15 5 1 -19 -4 -20 -20 -20 -20 -20 -20 -1 -12 -20 -20 -20 -20 -9 19 18 26 20 10
-20 -20 -20 -20 -20 -20 -20 -20 -20 -20 -20 -20 -20 -20 -3 7 -2 -18 -20 -20 -17 8 -3 -20 -20 -10 -20 -19 1 -10 -20 -20 2 5 -4 -7 20 25

GFSNE_prec_radar_018.txt.gz
Reflectivity
-20 -20 -20 -20 -20 -20 -20 -20 -20 -20 -20 -20 -20 -20 -20 -20 -20 -20 -20 -20 -20 -20 -20 -20 -20 -20 -20 -20 -20 -20 2 -0 6 11 16 17 21 20
-20 -20 -20 -20 -20 -20 -20 -20 -20 -20 -20 -20 -20 -20 -20 -20 -20 -20 -20 -20 -20 -20 -20 -20 -20 -20 -20 -20 1 0 -7 11 12 13 20 22 21 21
-20 -20 -20 -20 -20 -20 -20 -20 -20 -20 -20 -20 -20 -20 -20 -20 -20 -20 -20 -20 -20 -20 -20 -20 -20 -20 -20 1 -3 -2 4 5 10 12 13 15 22 20
-20 -20 -20 -20 -20 -20 -20 -20 -20 -20 -20 -20 -20 -20 -20 -20 -20 -20 -20 -20 -20 -20 -20 -20 -20 -20 -20 -20 -20 1 -2 8 6 12 14 13 9 9
-20 -20 -20 -20 -20 -20 -20 -20 -20 -20 -20 -20 -20 -20 -20 -20 -20 -20 -20 -20 -20 -20 -20 -20 -20 -20 -20 -3 -20 1 -8 -6 -18 0 5 5 9 12
-20 -20 -20 -20 -20 -20 -20 -20 -20 -20 -20 -20 -20 -20 -20 -20 -7 -20 -20 -20 -20 -20 -20 -20 -20 -20 -20 -20 -20 -20 -20 -13 -20 -20 5 -8 -2 -1
-20 -20 -20 -20 -20 -20 -20 -20 -20 -20 -20 -20 -6 -17 1 -20 -20 -20 -20 -20 -20 -20 -20 -20 -20 -20 -20 -20 -20 -20 -20 -16 2 1 -17 3 -1 8
-20 -20 -20 -20 -20 -20 -20 -20 -20 -0 -2 -2 7 -14 -20 -20 -20 -20 -20 -20 -20 -20 -20 -20 -20 -20 -20 -20 -20 -20 -20 -19 8 6 -1 4 4 8
-20 -20 -20 -20 -20 -20 -20 -20 -20 -16 4 5 -20 -10 -20 -20 -20 -20 -20 -7 -9 -20 -20 -20 -20 -20 -20 -20 -20 -20 -20 -20 -20 -14 6 4 7 8
-20 -20 -20 -20 -20 -20 -20 -20 -20 -20 -20 -20 -13 -20 -20 -16 6 10 -7 -20 -20 -20 -20 -19 -20 -20 -20 -20 -20 -20 -20 -20 -20 -20 -20 -12 -1 11
-20 -20 -20 -20 -20 -20 -15 -20 -20 -20 -20 -20 -20 -12 2 -15 -20 -20 -20 -20 -20 -20 -20 -20 -20 -20 -20 -20 -20 -20 -20 -20 -20 -20 -20 -20 -17 7
-20 -20 -20 -20 -20 -10 2 -14 -20 -20 -20 -19 -20 -20 -20 -20 -20 -20 -20 -20 -20 -20 -20 8 -11 -15 -9 -20 -20 -20 -20 -20 -20 -20 -20 -20 -20 -20
-20 -20 -20 -20 -14 3 -1 -20 -20 -15 -20 -20 -20 -20 -20 -20 -20 -20 -20 -20 -0 -16 -20 8 7 -20 -2 -20 -20 -20 -20 -20 -20 -20 -20 -20 -20 -16
-20 -20 -20 -12 -13 -17 -13 -20 -19 -6 -20 -20 -20 -20 -20 -20 -20 -20 -20 -20 -20 -20 -20 -13 14 -6 -1 -8 -20 -20 -20 -20 -20 -20 -20 -20 -20 -20
-20 -20 -20 -20 -20 -20 -20 -20 -20 -20 -20 -20 -20 -20 -20 -20 -20 -20 -20 -20 -20 -20 -20 -20 -17 -19 -6 -4 -18 -20 -20 -20 -20 -20 -20 -20 -20 -20
-20 -20 -20 -20 -20 -20 -20 -20 -20 -20 -20 -20 -20 -20 -20 -20 -20 -20 -20 -20 -20 -20 -20 -20 -20 -20 -6 -20 -14 -14 -20 -20 -20 -20 -20 -18 -20 -20
-7 -20 -20 -20 -20 -20 -20 -20 -20 -20 -20 -20 -20 -20 -20 -20 -20 -20 -20 -20 -20 -20 -20 -20 -20 -20 -20 -20 -18 -20 -20 -20 -20 -20 -20 -20 -20 -16
-20 -20 -20 -20 -20 -20 -20 -20 -20 -20 -20 -20 -20 -20 -20 -20 -20 -20 -20 -20 -20 -20 -20 -20 -20 -20 -20 -20 1 -3 -9 -20 -20 -20 -20 -20 -20 -20
-20 -20 -20 -20 -20 -20 -20 -20 -20 -20 -20 -20 -20 -20 -20 -20 -20 -20 -20 -20 -20 -20 -20 -20 -20 -9 -3 -20 -20 6 15 4 -20 -20 -20 -20 -17 -20
-20 -20 -20 -20 -20 -20 -20 -20 -20 -20 -20 -20 -20 -20 -19 -20 -20 -20 -20 -20 -15 -17 -19 -20 -20 -3 13 12 -3 -20 -12 16 12 -3 -19 -20 -20 -20
-20 -20 -20 -20 -20 -20 -20 -20 -20 -20 -20 -20 -20 -20 -20 -13 -20 -20 -20 -20 -16 -20 -20 -20 -20 -8 -12 -20 -20 -20 -15 -11 -5 16 11 6 -20 -15
-20 -20 -20 -20 -20 -20 -20 -20 -20 -20 -20 -20 -20 -20 -20 -20 2 -1 -19 -18 -20 -20 -20 -20 -20 -20 -20 -17 -20 -20 -20 -20 -0 2 5 20 18 13
-20 -20 -20 -20 -20 -20 -20 -20 -20 -20 -20 -20 -20 -20 -20 -3 -20 -20 -20 -20 -20 -7 -20 -20 -20 -20 -12 6 5 -16 -20 -20 -20 -20 -20 -20 -20 -20

GFSNE_prec_radar_024.txt.gz
Reflectivity
-20 -20 -20 -20 -20 -20 -20 -20 -20 -20 -20 -20 -20 -20 -20 -20 -20 -20 -20 -20 -20 -20 -20 -20 -9 -11 -20 -20 -12 3 -19 -20 6 -2 13 17 17 18
-20 -20 -20 -20 -20 -20 -20 -20 -20 -20 -20 -20 -20 -20 -20 -20 -20 -20 -20 -20 -20 -20 -20 -20 -20 -20 -13 -20 -18 -20 1 -1 9 -4 17 18 18 11
-20 -20 -20 -20 -20 -20 -20 -20 -20 -20 -20 -20 -20 -20 -20 -20 -20 -20 -20 -20 -20 -20 -20 -20 -20 -17 -20 -20 -17 -18 -20 7 11 11 7 16 20 17
-20 -20 -20 -20 6 -20 -20 -20 -20 -20 -20 -20 -20 -20 -20 -20 -20 -20 -20 -20 -20 -20 -20 -20 -20 -20 -20 -20 -20 7 8 -10 4 -2 6 -0 -6 10
-20 -20 4 9 -20 -20 -20 -20 -20 -20 -20 -20 -20 -20 -20 -20 -20 -20 -20 -20 -20 -20 -20 -20 -20 -20 -20 1 -10 -20 -20 -20 -17 -16 -20 -15 5 9
-20 -2 -19 -20 -20 -20 -20 -20 -20 -20 -20 -20 -20 -20 -20 -20 -20 -20 -20 -20 -20 -20 -20 -20 -20 -20 -20 -20 -20 -20 -20 -20 -16 2 3 4 9 12
-10 -3 -19 -20 -20 -20 -20 -20 -20 -20 -20 -20 -20 -20 -20 -20 -20 -20 -20 -20 -20 -20 -20 -20 -20 -20 -20 -20 -20 -20 -20 -9 3 -5 10 10 9 12
-20 -20 -20 -20 -20 -20 -20 -20 -20 -20 -20 -20 -20 -20 -20 -20 -20 -20 -20 -20 -20 -20 -20 -20 -20 -20 -20 -20 -20 -20 -20 -20 -1 9 11 10 12 9
-20 -20 -20 -20 -20 -20 -20 -20 -20 -20 -11 1 -20 -20 -20 -20 -20 -20 -20 -13 -20 -20 -20 -20 -20 -20 -20 -20 -20 -20 -20 -20 -20 1 2 5 7 11
-20 -20 -20 -20 -20 -20 -20 -20 -20 -20 -20 -20 -20 -20 -20 -19 2 -7 -20 -20 -20 -20 -20 -20 -20 -20 -20 -20 -20 -20 -20 -20 -20 -6 -1 0 -6 -9
-20 -20 -20 -20 -20 -20 -20 -20 -20 -20 -20 -20 -20 -8 -5 -15 -20 -20 -20 -20 -20 -20 -20 -20 -20 -20 -20 -20 -20 -20 -20 -20 -20 -20 -20 -2 -0 -3
-20 -20 -20 -20 -20 -20 -1 -20 -20 -20 -20 -20 -20 -20 -20 -20 -20 -20 -20 -20 -20 -20 -20 -20 -20 -20 -20 -20 -20 -20 -20 -20 -20 -20 -20 -20 -3 -20
-20 -20 -20 -20 -1 -1 -2 -20 -20 -20 -20 -20 -20 -20 -20 -20 -20 -20 -20 -20 -20 -20 -20 8 -0 -20 -3 -20 -20 -20 -20 -20 -20 -20 -20 -20 -20 -10
-20 -20 -20 -9 -1 -20 -20 -20 -20 -20 -20 -20 -20 -20 -20 -20 -20 -20 -20 -20 -20 -20 -20 -18 13 -20 -9 -12 -20 -20 -20 -20 -20 -20 -20 -20 -20 -16
-20 -20 3 -18 -20 -20 -20 -20 -20 -20 -20 -20 -20 -20 -20 -20 -20 -20 -20 -20 -20 -20 3 5 12 -4 -10 -13 -20 -20 -20 -20 -20 -20 -20 -20 -20 -20
-20 -20 -20 -20 -20 -20 -20 -20 -20 -20 -20 -20 -20 -20 -20 -20 -20 -20 -20 -20 -20 -20 -20 -9 -9 -9 -1 -20 -15 -17 -20 -20 -20 -20 -20 -20 -20 -20
-9 -20 -20 -20 -20 -20 -20 -20 -20 -20 -20 -20 -20 -20 -20 -20 -20 -20 -20 -20 -20 -20 -20 -20 -20 -20 -20 -17 7 -15 -20 -20 -20 -20 -20 -20 -20 -20
-20 -20 -20 -20 -20 -20 -20 -20 -20 -20 -20 -20 -20 -20 -20 -20 -20 -20 -20 -20 -20 -20 -20 -20 -20 -20 -19 3 4 -4 -9 -20 -20 -20 -20 6 -18 -9
-20 -20 -20 -20 -20 -20 -20 -20 -20 -20 -20 -20 -20 -20 -20 -20 -19 -20 -20 -20 -20 -20 -20 -20 -20 -2 3 -20 -9 12 20 11 -19 -20 -20 -20 -20 -20
-20 -20 -20 -20 -20 -20 -20 -20 -20 -20 -20 -20 -20 -20 -20 -20 -20 -20 -20 -20 -20 -20 -20 -20 -20 -0 12 9 10 -8 -4 2 6 -5 -20 -20 -20 -20
-20 -20 -20 -20 -20 -20 -20 -20 -20 -20 -20 -20 -20 -20 -20 -20 -20 -20 -20 -20 -20 -20 -20 -20 -20 -13 -17 -12 -14 -20 -20 -2 1 12 11 10 -19 -20
-20 -20 -20 -20 -20 -20 -20 -20 -20 -20 -20 -20 -20 -20 -20 -20 -17 -20 -20 -20 -20 -20 -20 -20 -20 -20 -20 5 -9 -20 -20 -20 -20 -20 -10 12 15 11
-20 -20 -20 -20 -20 -20 -20 -20 -20 -20 -20 -20 -20 -20 -20 -20 -20 -20 -20 -20 -20 -6 -20 -20 -20 -20 -20 -20 -20 -20 -20 -20 -20 -20 -16 -1 -5 -18

GFSNE_prec_radar_027.txt.gz
Reflectivity
-1 -10 14 -15 -20 -20 -20 -20 -20 -20 -20 -20 -20 -20 -20 -20 -20 -20 -20 -20 -20 -20 -20 -20 -20 -13 -5 -0 -20 -17 -19 6 4 5 9 14 19 16
-15 1 -1 -4 -20 -20 -20 -20 -20 -20 -20 -20 -20 -20 -20 -20 -20 -20 -20 -20 -20 -20 -20 -20 -20 -13 -20 -20 -2 -20 -20 -10 5 10 13 14 17 17
23 -1 -20 -19 -20 -20 -20 -20 -20 -20 -20 -20 -20 -20 -20 -20 -20 -20 -20 -20 -20 -20 -20 -20 -4 -20 -14 -15 -20 -20 -3 3 12 11 13 12 13 15
3 32 17 -18 -19 -20 -20 -20 -20 -20 -20 -20 -20 -20 -20 -20 -20 -20 -20 -20 -20 -20 -20 -20 -20 -20 -20 -20 -16 5 9 10 9 3 -5 0 -5 5
15 -5 -18 -16 -20 -20 -20 -20 -20 -20 -20 -20 -20 -20 -20 -20 -20 -20 -20 -20 -20 -20 -20 -20 -20 -20 1 2 2 -9 -16 -19 -18 -20 -7 -2 -20 -20
-1 -11 -17 -20 -20 -19 -20 -20 -20 -20 -20 -20 -20 -20 -20 -20 -20 -20 -20 -20 -20 -20 -20 -20 -20 -20 -20 -20 -20 -20 -20 -20 -20 -20 -3 -12 -5 9
13 4 -7 -17 -20 -20 -20 -20 -20 -20 -20 -20 -20 -20 -20 -20 -20 -20 -20 -20 -20 -20 -20 -20 -20 -20 -20 -20 -20 -20 -20 -20 -14 2 4 8 5 9
10 12 -6 -20 -20 -20 -20 -20 -20 -20 -20 -20 -20 -20 -20 -20 -20 -20 -20 -20 -20 -20 -20 -20 -20 -20 -20 -20 -20 -20 -20 -20 -3 3 7 10 6 11
2 8 -6 -20 -20 -20 -20 -20 -20 -20 -20 -20 -20 -20 -20 -20 -20 -20 -20 -19 -20 -20 -20 -20 -20 -20 -20 -20 -20 -20 -20 -20 -20 -1 -1 6 -1 10
0 -20 -20 -20 -20 -20 -20 -20 -20 -20 -20 -20 -20 -20 -20 -20 -12 0 -13 -20 -20 -20 -20 -20 -20 -20 -20 -20 -20 -20 -20 -20 -20 -20 2 5 6 4
-20 -20 -20 -20 -20 -20 -20 -20 -20 -20 -20 -20 -20 -20 -12 -15 -20 -20 -20 -20 -20 -20 -20 -20 -20 -20 -20 -20 -20 -20 -20 -20 -20 -20 -20 -1 -0 4
-20 -20 -20 -20 -20 -20 -20 -20 -20 -20 -20 -20 -20 -20 -20 -20 -20 -20 -20 -20 -20 -20 -20 -20 -20 -20 -20 -20 -20 -20 -20 -20 -20 -20 -20 -20 -1 -17
-20 -20 -20 -20 -20 -2 -20 -20 -20 -20 -20 -20 -20 -20 -20 -20 -20 -20 -20 -20 -20 -20 -20 -7 -2 -20 -6 -20 -20 -20 -20 -20 -20 -20 -20 -20 -20 -3
-20 -20 -20 -20 -3 -20 -20 -20 -20 -20 -20 -20 -20 -20 -20 -20 -20 -20 -20 -20 -20 -20 -20 -20 13 -18 -8 -12 -20 -20 -20 -20 -20 -20 -20 -20 -20 -15
-20 -20 -6 -19 -20 -20 -20 -20 -20 -20 -20 -20 -20 -20 -20 -20 -20 -20 -20 -20 -20 -20 -20 -20 -18 -20 -4 -7 -20 -20 -20 -20 -20 -20 -20 -20 -20 -20
-20 -20 -20 -20 -20 -20 -20 -20 -20 -20 -20 -20 -20 -20 -20 -20 -20 -20 -20 -20 -20 -20 -20 -20 -20 -19 -6 -19 -15 -17 -20 -20 -20 -20 -20 -20 -20 -20
-19 -20 -20 -20 -20 -20 -20 -20 -20 -20 -20 -20 -20 -20 -20 -20 -20 -20 -20 -20 -20 -20 -20 -20 -20 -20 -20 -12 10 -13 -20 -20 -20 -20 -20 -20 -20 -20
-20 -20 -20 -20 -20 -20 -20 -20 -20 -20 -20 -20 -20 -20 -20 -20 -20 -20 -20 -20 -20 -20 -20 -20 -20 -20 -8 13 14 10 1 -20 -20 -20 -20 -1 -17 -0
-20 -20 -20 -20 -20 -20 -20 -20 -20 -20 -20 -20 -20 -20 -20 -20 -20 -20 -20 -20 -20 -20 -20 -20 -20 -8 -7 -20 12 17 20 13 -7 -17 -20 -20 -20 -20
-20 -20 -20 -20 -20 -20 -20 -20 -20 -20 -20 -20 -20 -20 -20 -20 -20 -20 -20 -20 -20 -20 -20 -20 -20 -7 13 12 11 -19 -3 11 12 -4 -20 -20 -20 -20
-20 -20 -20 -20 -20 -20 -20 -20 -20 -20 -20 -20 -20 -20 -20 -20 -20 -20 -20 -20 -20 -20 -20 -20 -20 -20 -20 -6 -14 -20 -19 -7 0 14 15 12 -14 -20
-20 -20 -20 -20 -20 -20 -20 -20 -20 -20 -20 -20 -20 -20 -20 -20 -20 -20 -20 -19 -20 -20 -20 -20 -20 -20 -20 7 -6 -20 -20 -20 -20 -18 10 11 14 12
-20 -20 -20 -20 -20 -20 -20 -20 -20 -20 -20 -20 -20 -20 -20 -20 -20 -20 -20 -20 -20 -17 -16 -20 -20 -20 -20 -6 -15 3 -4 -20 -20 -20 -10 11 8 1

GFSNE_prec_radar_030.txt.gz
Reflectivity
14 30 28 -2 -6 -20 -20 8 -20 -20 -20 -20 -20 -20 -20 -20 -20 -20 -20 -20 -20 -20 -20 -20 -20 -20 -20 -20 -17 -17 -20 -14 -3 -20 -20 9 13 14
-20 24 22 19 18 -20 -2 -3 -19 -20 -20 -20 -20 -20 -20 -20 -20 -20 -20 -20 -20 -20 -20 -20 -20 -13 -1 -20 -20 1 6 -6 -19 11 -0 14 15 19
-10 19 4 15 7 25 5 -20 -17 -20 -20 -20 -20 -20 -20 -20 -20 -20 -20 -20 -20 -20 -20 -20 -20 -4 -9 -14 -20 -20 -18 11 9 5 12 15 13 13
-18 20 31 25 10 -15 -5 24 2 -20 -20 -20 -20 -20 -20 -20 -20 -20 -20 -20 -20 -20 -20 -20 -20 -20 -20 -7 -20 -20 -19 6 10 11 5 12 12 9
30 4 34 21 15 -11 -0 -19 -20 -20 -20 -20 -20 -20 -20 -20 -20 -20 -20 -20 -20 -20 -20 -20 -20 -20 -20 -11 -5 -19 -20 -20 -17 -20 -20 -20 -20 -20
23 22 33 31 15 28 22 8 -3 -20 -20 -20 -20 -20 -20 -20 -20 -20 -20 -20 -20 -20 -20 -20 -20 -20 -20 -20 -20 -20 -20 -20 -7 0 3 2 3 -8
24 35 28 16 18 12 -5 -20 -20 -20 -20 -20 -20 -20 -20 -20 -20 -20 -20 -20 -20 -20 -20 -20 -20 -20 -20 -20 -20 -20 -20 -20 -19 0 8 11 11 11
28 29 32 26 13 10 12 -15 -20 -20 -20 -20 -20 -20 -20 -20 -20 -20 -20 -20 -20 -20 -20 -20 -20 -20 -20 -20 -20 -20 -20 -20 -20 2 2 9 11 12
26 36 25 22 18 15 -19 -20 -20 -20 -20 -20 -20 -20 -20 -20 -20 -20 -20 -20 -20 -20 -20 -20 -20 -20 -20 -20 -20 -20 -20 -20 -20 -20 -6 3 5 5
25 21 21 17 2 -20 -20 -20 -20 -20 -20 -20 -20 -20 -20 -20 -20 -19 -20 -20 -20 -20 -20 -20 -20 -20 -20 -20 -20 -20 -20 -20 -20 -20 -5 4 7 3
3 -3 -7 -10 -10 0 -20 -20 -20 -20 -20 -20 -20 -20 -16 -18 -20 -20 -20 -20 -20 -20 -20 -20 -20 -20 -20 -20 -20 -20 -20 -20 -20 -20 -20 -20 2 0
-19 -20 -20 -20 -20 -20 -14 -20 -20 -20 -20 -20 -20 -20 -20 -20 -20 -20 -20 -20 -20 -20 -20 -20 -20 -20 -20 -20 -20 -20 -20 -20 -20 -20 -20 -20 -20 -17
-20 -20 -20 -20 -14 -0 -1 -20 -20 -20 -20 -20 -20 -20 -20 -20 -20 -20 -20 -20 -20 -20 -20 3 -5 -20 -14 -20 -20 -20 -20 -20 -20 -20 -20 -20 -20 -10
-20 -20 -20 -20 -12 -20 -20 -20 -20 -20 -20 -20 -20 -20 -20 -20 -20 -20 -20 -20 -20 -20 -20 -20 9 -20 -18 -20 -20 -20 -20 -20 -20 -20 -20 -20 -20 -20
-20 -20 -18 -19 -20 -20 -20 -20 -20 -20 -20 -20 -20 -20 -20 -20 -20 -20 -20 -20 -20 -20 -20 -20 -20 -20 -18 -12 -20 -20 -20 -20 -20 -20 -20 -20 -20 -20
-20 -20 -20 -20 -20 -20 -20 -20 -20 -20 -20 -20 -20 -20 -20 -20 -20 -20 -20 -20 -20 -20 -20 -20 -20 -20 -19 -20 -18 -20 -20 -20 -20 -20 -20 -20 -20 -20
-20 -20 -20 -20 -20 -20 -20 -20 -20 -20 -20 -20 -20 -20 -20 -20 -20 -20 -20 -20 -20 -20 -20 -20 -20 -20 -20 -20 -6 -16 -20 -20 -20 -20 -20 -20 -20 -20
-20 -20 -20 -20 -20 -20 -20 -20 -20 -20 -20 -20 -20 -20 -20 -20 -20 -20 -20 -20 -20 -20 -20 -20 -20 -20 -20 -7 10 9 3 -20 -20 -20 -20 -4 -19 -20
-20 -20 -20 -20 -20 -20 -20 -20 -20 -20 -20 -20 -20 -20 -20 -20 -20 -20 -20 -20 -20 -20 -20 -20 -20 -20 -3 -20 -19 15 18 13 -11 -20 -20 -20 -19 -20
-20 -20 -20 -20 -20 -20 -20 -20 -20 -20 -20 -20 -20 -20 -20 -20 -20 -20 -20 -20 -20 -20 -20 -20 -20 -20 4 -5 5 -20 0 11 12 2 -20 -20 -20 -20
-20 -20 -20 -20 -20 -20 -20 -20 -20 -20 -20 -20 -20 -20 -20 -20 -20 -20 -20 -20 -20 -20 -20 -20 -20 -20 -20 -9 -5 -20 -20 -8 13 20 14 6 -20 -20
-20 -20 -20 -20 -20 -20 -20 -20 -20 -20 -20 -20 -20 -20 -20 -20 -20 -20 -20 -20 -20 -20 -20 -20 -20 -19 -19 -1 1 -18 -20 -20 7 13 18 17 18 13
-20 -20 -20 -20 -20 -20 -20 -20 -20 -20 -20 -20 -20 -20 -20 -20 -20 -20 -20 -20 -19 -19 -20 -20 -20 -20 -20 -13 -2 8 -2 -20 -20 -20 1 10 -1 -20

GFSNE_prec_radar_033.txt.gz
Reflectivity
-14 0 8 -6 -20 34 3 26 -20 -20 -17 -20 -13 -14 -20 -20 -20 -20 -20 -20 -20 -20 -20 -20 -20 -20 -20 -20 -20 -17 -1 -20 -2 -3 3 -4 4 6
12 -10 -11 14 2 13 -9 23 -12 16 12 17 2 2 -20 -20 -20 -20 -20 -20 -20 -20 -20 -20 -20 -20 -20 -1 -13 -12 -20 -20 -18 2 12 11 18 17
6 -15 -20 12 9 26 7 24 10 13 20 -7 22 26 15 -20 -20 -20 -20 -20 -20 -20 -20 -20 -20 -8 -6 -19 -20 -20 -20 -16 1 10 9 14 13 15
-19 -20 4 36 7 27 34 27 16 24 24 15 16 14 -0 -19 -9 -20 -20 -20 -20 -20 -20 -20 -20 -20 -20 -20 -20 -1 -20 0 -18 -19 -18 -19 4 -19
-20 -1 29 15 12 21 39 30 22 29 26 21 11 -6 2 5 -20 -20 -20 -20 -20 -20 -20 -20 -20 -20 -20 -20 -7 -7 -20 -20 -20 -14 -17 -20 -20 -20
7 12 17 25 33 22 19 31 26 24 19 15 11 5 -14 -20 -20 -20 -20 -20 -20 -20 -20 -20 -20 -20 -20 -20 -20 -20 -20 -20 -20 -20 -3 1 1 -18
25 18 23 26 35 20 19 20 27 21 19 19 6 -20 -20 -20 -20 -20 -20 -20 -20 -20 -20 -20 -20 -20 -20 -20 -20 -20 -20 -20 -20 -3 -1 3 8 11
25 22 24 29 24 22 27 20 16 25 14 7 -15 -20 -20 -20 -20 -20 -20 -20 -20 -20 -20 -20 -20 -20 -20 -20 -20 -20 -20 -20 -20 -9 -1 0 4 7
20 25 23 21 22 18 24 20 16 -3 -10 -18 -7 -10 -18 -20 -20 -20 -20 3 -20 -20 -20 -20 -20 -20 -20 -20 -20 -20 -20 -20 -20 -20 -12 3 5 9
20 22 16 14 14 11 8 5 5 -20 -20 -20 -20 -20 -20 -20 -13 -13 0 -10 -20 -20 -20 -20 -20 -20 -20 -20 -20 -20 -20 -20 -20 -20 -20 0 2 4
15 12 2 -11 -19 -20 -20 -20 -18 -20 -20 -20 -20 -20 -17 -17 -20 -20 -20 -20 -20 -20 -20 -20 -20 -20 -20 -20 -20 -20 -20 -20 -20 -20 -20 -20 -3 2
-20 -20 -20 -20 -20 -20 -3 -20 -20 -20 -20 -20 -20 -20 -20 -20 -20 -20 -20 -20 -4 -20 -20 -20 -20 -20 -20 -20 -20 -20 -20 -20 -20 -20 -20 -20 -20 -2
-20 -20 -20 -20 -5 5 -5 -20 -20 -20 -20 -20 -20 -20 -20 -20 -20 -20 -20 -20 -12 -20 -20 -11 -20 -20 -9 -20 -20 -20 -20 -20 -20 -20 -20 -20 -20 -7
-20 -20 -20 -20 -10 -20 -20 -20 -20 -20 -20 -20 -20 -20 -20 -20 -20 -20 -20 -20 -20 -20 -20 -13 -8 -20 -20 -20 -20 -20 -20 -20 -20 -20 -20 -20 -20 -20
-20 -20 -18 -20 -20 -20 -20 -20 -20 -20 -20 -20 -20 -20 -20 -20 -20 -20 -20 -20 -20 -20 -20 -20 -20 -20 -20 -20 -20 -20 -20 -20 -20 -20 -20 -20 -20 -20
-20 -20 -20 -20 -20 -20 -20 -20 -20 -20 -20 -20 -20 -20 -20 -20 -20 -20 -20 -20 -20 -20 -20 -20 -20 -20 -20 -20 -18 -20 -20 -20 -20 -20 -20 -20 -20 -18
-20 -20 -20 -20 -20 -20 -20 -20 -20 -20 -20 -20 -20 -20 -20 -20 -20 -20 -20 -20 -20 -20 -20 -20 -20 -20 -20 -20 -20 -20 -20 -20 -20 -20 -20 -20 -20 -18
-20 -20 -20 -20 -20 -20 -20 -20 -20 -20 -20 -20 -20 -20 -20 -20 -20 -20 -20 -20 -20 -20 -20 -20 -20 -20 -20 -20 -20 -20 -20 -8 -20 -20 -4 -2 -6 -20
-20 -20 -20 -20 -20 -20 -20 -20 -20 -20 -20 -20 -20 -20 -20 -20 -20 -20 -20 -20 -20 -20 -20 -20 -19 -18 -6 -20 -20 -15 9 -1 3 -0 -20 -19 -20 -20
-20 -20 -20 -20 -20 -20 -20 -20 -20 -20 -20 -20 -20 -20 -20 -20 -20 -20 -20 -20 -20 -20 -20 -20 -20 -20 0 -18 -15 -20 3 5 8 -12 -20 -20 -20 -20
-20 -20 -20 -20 -20 -20 -20 -20 -20 -20 -20 -20 -20 -20 -20 -20 -20 -20 -20 -20 -8 -20 -20 -20 -20 -20 -20 -11 -4 -20 -20 3 12 16 1 1 -20 -20
-20 -20 -20 -20 -20 -20 -20 -20 -20 -20 -20 -20 -20 -20 -20 -20 -20 -20 -20 -20 -20 -20 -20 -20 -20 -20 4 5 -8 -15 -20 -20 -20 -11 12 24 16 -0
-20 -20 -20 -20 -20 -20 -20 -20 -20 -20 -20 -20 -20 -20 -20 -20 -20 -20 -20 -20 -20 -19 -20 -19 5 4 6 4 -19 0 -20 -20 -20 -20 7 18 9 -6

GFSNE_prec_radar_036.txt.gz
Reflectivity
22 19 -5 2 2 6 -20 -20 -17 -19 6 18 2 -18 -20 -20 -20 -20 -20 -20 -20 -20 -20 -20 -20 -20 -20 -20 -20 -20 -20 -20 -20 -2 -17 -8 -3 4
25 25 10 11 -1 -20 -7 -5 29 21 32 3 14 11 1 -1 8 -10 -19 -20 -20 -20 -20 -20 -20 -20 -20 -20 -20 -9 -2 -3 -8 -20 -20 -20 6 15
19 19 38 32 41 -0 11 3 6 5 18 22 36 21 14 1 23 15 -8 -20 -20 -20 -20 -20 -20 -20 -20 -14 -20 -20 -19 -20 -20 -20 -20 5 12 13
17 16 14 -20 -20 5 -0 3 8 18 25 26 33 33 29 27 27 18 11 10 -11 -20 -20 -20 -20 -20 -20 -20 -20 -12 -3 -17 -3 0 -20 -19 -19 -20
-17 17 13 -20 13 36 25 18 30 35 28 30 30 17 17 22 29 24 19 17 6 -17 -20 -20 -20 -20 -20 -20 -20 -20 -20 -20 -20 -20 -16 -5 2 -16
14 10 23 25 17 20 19 21 28 32 28 8 5 -16 -1 10 24 18 5 -13 -7 -19 -20 -20 -20 -20 -20 -20 -20 -20 -20 -20 -20 -20 -20 -13 -9 -2
13 -4 30 23 26 28 31 24 34 27 32 19 -5 8 21 15 -1 -15 -17 -20 -20 -20 -20 -20 -20 -20 -20 -20 -20 -20 -20 -20 -20 -20 -20 -5 -3 -0
4 -4 21 30 26 27 13 6 -4 16 14 10 9 -7 -14 -20 -20 -20 -20 -20 -20 -20 -20 -20 -20 -20 -20 -20 -20 -20 -20 -20 -20 -20 -4 0 -3 5
18 21 24 19 31 23 15 11 22 25 4 -15 -20 -20 -20 -20 -20 -20 -17 -6 -10 -20 -20 -20 -20 -20 -20 -20 -20 -20 -20 -20 -20 -20 -20 -3 1 2
16 -13 -14 6 7 -2 -8 1 4 -2 -16 -20 -20 -20 -20 -20 -19 -14 4 -8 -20 -20 -20 -12 -20 -20 -20 -20 -20 -20 -20 -20 -20 -20 -20 -11 -2 -1
-20 -20 -20 -14 -18 -20 -20 -20 -20 -20 -20 -20 -20 -20 -20 -20 -20 -20 -20 -3 -7 -20 -20 -20 -20 -20 -20 -20 -20 -20 -20 -20 -20 -20 -20 -20 -20 -1
-20 -19 -19 -20 -20 -20 -20 -10 -20 -20 -20 -20 -20 -20 -20 -20 -20 -20 -20 -3 -4 -19 -20 -20 -20 -20 -20 -20 -20 -20 -20 -20 -20 -20 -20 -20 -20 -9
-13 -18 -20 -20 -20 -3 -15 -20 -20 -20 -20 -20 -20 -20 -20 -20 -20 -20 -20 -20 -6 -11 -20 -8 -17 -20 -4 -19 -20 -20 -20 -20 -20 -20 -20 -20 -20 -8
-20 -20 -20 -20 -20 -20 -20 -20 -20 -20 -20 -20 -20 -20 -20 -20 -20 -20 -20 -20 -20 -15 -20 -0 -1 -6 -14 -20 -20 -20 -20 -20 -20 -20 -20 -20 -20 -4
-20 -20 -20 -20 -20 -20 -20 -20 -20 -20 -20 -20 -20 -20 -20 -20 -20 -20 -20 -20 -20 -20 -19 -17 -18 -20 -17 -20 -20 -20 -5 -20 -20 -20 -5 -3 2 2
-20 -20 -20 -20 -20 -20 -20 -20 -20 -20 -20 -20 -20 -20 -20 -20 -20 -20 -20 -20 -20 -20 -20 -20 -17 2 -17 -17 5 -20 -20 -15 -20 -20 -3 -0 2 -4
-20 -20 -20 -20 -20 -20 -20 -20 -20 -20 -20 -20 -20 -20 -20 -20 -20 -20 -20 -13 -2 -16 -20 -20 -20 -8 -6 1 -19 -20 -20 -20 -3 -12 -5 -13 -20 -6
-20 -20 -20 -20 -20 -20 -20 -20 -20 -20 -20 -20 -20 -20 -9 -20 -20 -20 -9 -5 -6 -14 -15 -20 -15 -14 -7 -10 -17 -20 -7 -2 -9 3 4 6 0 -0
-20 -20 -20 -20 -20 -20 -20 -20 -20 -20 -20 -20 -18 -5 -6 -5 -3 -20 -4 -4 -3 -11 -20 -18 -1 8 3 -20 -20 -19 -19 -20 -20 -1 -5 5 -9 -20
-20 -20 -20 -20 -20 -20 -20 -20 -20 -20 -20 -20 -19 -15 -20 -8 -14 -14 -15 -20 -20 -10 -12 -20 -0 3 8 2 -16 -20 -3 -20 0 2 5 -16 -16 -20
-20 -20 -20 -20 -20 -20 -20 -20 -20 -20 -20 -13 -19 -20 -20 -14 -20 -16 -17 -3 -7 -9 -20 -20 -20 -20 -10 -20 -8 -20 -13 -14 -20 1 -1 9 -2 -14
-20 -20 -20 -20 -20 -20 -20 -20 -20 -20 -20 -20 -20 -18 -18 -20 -20 -12 -17 -20 -20 -20 -20 -20 -20 -20 7 -1 -1 3 -20 -20 -20 5 8 11 11 12
-20 -20 -20 -20 -20 -20 -20 -20 -20 -20 -20 -20 -20 -20 -1 -20 -20 -20 -20 -20 -20 -20 -20 -20 -20 -19 5 7 8 6 -18 -20 -20 -20 -2 15 9 -20

GFSNE_prec_radar_039.txt.gz
Reflectivity
-20 18 20 20 22 17 11 12 15 -4 29 27 -16 7 16 21 20 -1 1 8 -18 -20 -20 -20 -20 -20 -20 -20 -20 -20 -20 -20 -20 -20 -20 -19 -12 -19
20 21 20 22 22 18 15 18 29 27 17 22 21 1 6 4 12 4 11 18 14 -9 -10 9 -6 -20 -20 -20 -20 -20 -20 -20 -20 -20 -0 -20 -19 -4
18 18 18 21 19 28 41 30 41 41 34 16 33 14 2 15 23 23 16 11 9 13 -20 -16 -0 7 -19 -20 -20 -20 -20 -12 -9 -14 -14 -20 -20 6
21 24 17 19 -15 -14 4 36 26 37 -19 16 12 29 22 34 34 19 7 7 -19 -20 -20 -18 -8 -6 -19 -20 -20 -20 -20 -19 -19 -20 -3 -20 -19 3
12 18 9 1 21 13 6 20 17 20 28 32 22 26 19 18 -0 -18 -17 -17 -20 -20 -12 6 -16 -20 -20 -20 -20 -20 -20 -20 -20 -20 -20 -20 -6 -5
12 11 12 7 19 7 -4 13 19 33 24 30 18 27 15 3 8 15 -0 -19 -19 -20 -20 -20 -20 -20 -20 -20 -20 -20 -20 -20 -20 -20 -20 -20 -20 -18
15 15 19 19 19 14 29 4 5 1 -11 -3 26 11 1 -20 -20 -20 -20 -20 -18 -20 -20 -20 -20 -20 -20 -20 -20 -20 -20 -20 -20 -20 -20 -20 -8 -2
11 20 21 21 42 30 4 6 3 22 8 1 -5 0 -15 -20 -20 -20 -20 -20 -20 -20 -20 -20 -20 -20 -20 -20 -20 -20 -20 -20 -20 -20 -20 -15 -13 -2
17 12 12 26 22 1 14 26 16 7 2 -15 -20 -20 -20 -20 -20 -20 -20 -20 -20 -20 -20 -20 -20 -20 -20 -20 -20 -20 -20 -20 -20 -20 -20 -6 -1 3
13 5 9 21 27 20 2 -20 -20 -20 -20 -20 -20 -20 -20 -20 -20 -20 -20 -20 -20 -20 -20 -20 -20 -20 -20 -20 -20 -20 -20 -20 -20 -20 -20 -13 -1 0
18 17 9 10 -20 -20 -20 -20 -20 -20 -20 -20 -20 -20 -20 -20 -20 -20 -20 -20 -20 -20 -20 -20 -20 -20 -20 -20 -20 -20 -20 -20 -20 -20 -20 -16 -20 -15
-2 7 -9 -20 -20 -20 -20 -20 -20 -20 -20 -20 -20 -20 -20 -20 -20 -20 -20 -20 -9 -20 -20 -20 -20 -20 -20 -20 -20 -20 -20 -20 -20 -20 -20 -20 -20 -20
-20 -20 -20 -20 -20 -16 -15 -20 -20 -20 -20 -20 -20 -20 -20 -20 -20 -20 -20 -20 -20 -20 -20 -20 -20 -20 -9 -20 -20 -20 -20 -20 -20 -20 -20 -20 -20 -15
-20 -20 -20 -20 -20 -20 -20 -20 -20 -20 -20 -20 -20 -20 -20 -20 -20 -20 -20 -20 -20 -17 -20 -20 -20 -20 -20 -20 -20 -20 -20 -20 -20 -20 -20 -20 -17 -20
-20 -20 -20 -20 -20 -20 -20 -20 -20 -20 -20 -20 -20 -20 -20 -20 -20 -20 -20 -20 -20 -20 -20 -20 -20 -20 -20 -20 -20 -20 -20 -20 -20 -20 -20 -20 -20 -6
-20 -20 -20 -20 -20 -20 -20 -20 -20 -20 -20 -20 -20 -20 -20 -20 -20 -20 -16 -20 -20 -20 -20 -20 -20 -20 -19 -18 -18 -20 -20 -19 -20 -20 -20 -20 -20 -20
-20 -20 -20 -20 -20 -20 -20 -20 -20 -20 -20 -20 -20 -20 -20 -20 -20 -20 -20 -20 -20 -20 -20 -20 -11 -8 -19 -15 -12 -20 -20 -20 -20 -20 -20 -20 -20 -20
-20 -20 -20 -20 -20 -20 -20 -20 -20 -20 -20 -20 -20 -20 -20 -20 -20 -20 -20 -8 -1 -10 -20 -20 -20 -20 -20 -20 -20 -20 -20 -20 -20 -19 -15 -3 -20 -17
-20 -20 -20 -20 -20 -20 -20 -20 -19 -20 -20 -20 -20 -20 -20 -20 -19 -20 -20 -20 -20 -20 -20 -20 -20 -18 -18 -20 -20 -20 -20 -20 -20 -20 -20 -20 -20 -20
-20 -20 -20 -20 -20 -20 -20 -20 -20 -20 -20 -20 -20 -20 -20 -16 -17 -20 -19 -20 -20 -20 -20 -20 -19 -20 -19 -20 -16 -20 -11 -20 -20 -20 -20 -20 -8 -20
-20 -20 -20 -20 -20 -20 -20 -20 -20 -20 -20 -20 -20 -20 -20 -20 -20 -18 -20 -2 -10 -20 -20 -20 -20 -20 -19 -20 -18 -20 -20 -20 -20 -11 -20 -20 -20 -20
-20 -20 -20 -20 -20 -20 -20 -20 -20 -20 -20 -20 -20 -20 -20 -17 -20 -20 -20 -20 -20 -20 -20 -20 -20 -20 -18 -15 -19 -20 -20 -20 -20 -20 -20 -20 -15 9
-20 -20 -20 -20 -20 -20 -20 -20 -20 -20 -20 -20 -20 -20 -20 -20 -20 -20 -20 -20 -20 -20 -20 -20 -20 -20 -20 -20 -9 -3 -19 -20 -20 -20 -20 -20 -3 -18

GFSNE_prec_radar_042.txt.gz
Reflectivity
18 11 18 22 20 16 19 -6 24 22 23 -12 -18 27 35 34 31 32 34 24 5 5 12 18 15 4 9 -4 -20 -20 -20 -20 -20 -20 -20 -20 -20 -18
22 25 24 18 21 18 15 21 24 23 19 26 36 38 37 40 33 24 31 12 15 17 20 22 14 1 -20 -20 -13 -20 -20 -20 -20 -20 -0 -17 -15 -20
17 14 26 18 17 20 17 14 12 17 18 33 42 40 36 29 24 11 12 5 -7 -8 -16 -20 -18 -14 -20 -20 -20 -20 -20 -20 -20 -20 -20 -15 -13 3
12 12 10 8 18 17 16 19 14 17 26 27 34 27 30 34 27 30 5 2 -6 11 -20 -20 -20 -20 -20 -20 -20 -20 -20 -20 -19 -4 -1 -0 -20 -20
10 6 11 12 13 15 15 19 23 29 23 18 29 24 33 25 29 15 3 -16 -20 -20 -20 -20 -20 -20 -20 -20 -20 -20 -20 -20 -20 -7 -6 -5 -19 -20
-4 -11 -1 11 14 7 20 20 22 19 19 9 1 17 16 29 3 -20 -20 -20 -20 -20 -20 -20 -20 -20 -20 -20 -20 -20 -20 -20 -20 -17 -12 -5 -5 -20
-20 -11 -20 18 17 13 -5 0 16 7 17 25 4 -17 -20 -20 -20 -20 -20 -20 -19 -20 -20 -20 -20 -20 -20 -20 -20 -20 -20 -20 -20 -20 -10 -6 -7 -4
-16 20 22 25 23 12 15 19 17 14 -9 -20 -20 -20 -19 -20 -20 -20 -20 -20 -20 -20 -20 -20 -20 -20 -20 -20 -20 -20 -20 -20 -20 -20 -20 -16 -2 0
12 23 23 23 18 5 9 8 20 14 -10 -20 -20 -20 -20 -20 -20 -20 -20 -20 -20 -20 -20 -20 -20 -20 -20 -20 -20 -20 -20 -20 -20 -20 -20 -20 -10 -2
22 20 12 14 21 28 17 3 7 -2 -19 -20 -20 -20 -20 -20 -20 -20 -20 -20 -20 -20 -20 -20 -20 -20 -20 -20 -20 -20 -20 -20 -20 -20 -20 -20 -20 -2
-18 -10 -8 -15 -12 -16 -20 -20 -20 -20 -20 -20 -20 -20 -20 -20 -20 -20 -20 -20 -20 -20 -20 -20 -20 -20 -20 -20 -20 -20 -20 -20 -20 -20 -20 -20 -20 -2
-11 -20 -20 -20 -20 -20 -20 -20 -20 -20 -20 -20 -20 -20 -20 -20 -20 -20 -20 -20 -20 -19 -20 -20 -20 -20 -20 -20 -20 -20 -20 -20 -20 -20 -20 -20 -20 -20
-20 -20 -20 -20 -20 -20 -20 -20 -20 -20 -20 -20 -20 -20 -20 -20 -20 -20 -20 -20 -20 -20 -20 -20 -20 -20 -8 -20 -20 -20 -20 -20 -20 -20 -20 -20 -20 -16
-20 -20 -20 -20 -20 -20 -20 -20 -20 -20 -20 -20 -20 -20 -20 -20 -20 -20 -20 -20 -20 -20 -20 -14 -20 -20 -20 -20 -20 -20 -20 -20 -20 -20 -20 -20 -20 -20
-20 -20 -20 -20 -20 -20 -20 -20 -20 -20 -20 -20 -20 -20 -20 -20 -20 -20 -20 -20 -20 -20 -20 -20 -20 -20 -20 -20 -20 -20 -20 -20 -20 -20 -20 -20 -20 -20
-20 -20 -20 -20 -20 -20 -20 -20 -20 -20 -20 -20 -20 -20 -20 -20 -20 -20 -20 -20 -20 -20 -20 -20 -20 -20 -17 -17 -16 -20 -20 -20 -20 -20 -20 -20 -20 -20
-20 -20 -20 -20 -20 -20 -20 -20 -20 -20 -20 -20 -20 -20 -20 -20 -20 -20 -20 -20 -12 -20 -20 -20 -20 -20 -10 -10 -9 -20 -20 -20 -20 -20 -20 -20 -20 -20
-20 -20 -20 -20 -20 -20 -20 -20 -20 -20 -20 -20 -20 -20 -20 -20 -20 -20 -20 -20 -20 -20 -20 -20 -20 -20 -20 -20 -3 -20 -20 -20 -20 -20 -20 -20 -20 -20
-20 -20 -20 -20 -20 -20 -20 -20 -20 -20 -20 -20 -20 -20 -20 -20 -17 -20 -20 -20 -20 -20 -20 -20 -20 -18 -18 -20 -20 -20 -20 -20 -20 -20 -20 -20 -20 -20
-20 -20 -20 -20 -20 -20 -20 -20 -20 -20 -20 -20 -20 -20 -20 -20 -20 -20 -20 -20 -20 -20 -20 -20 -20 -20 -3 -20 -19 -20 -20 -20 -20 -20 -20 -20 -20 -20
-20 -20 -20 -20 -20 -20 -20 -20 -20 -20 -20 -20 -20 -20 -20 -20 -20 -20 -20 -12 -10 -20 -20 -20 -20 -15 -4 -6 -4 -20 -20 -20 -20 -20 -20 -20 -20 -20
-20 -20 -20 -20 -20 -20 -20 -20 -20 -20 -20 -20 -20 -20 -20 -20 -20 -20 -20 -20 -20 -20 -20 -20 -20 -20 -19 -17 -20 -20 -20 -20 -20 -20 -13 -18 -14 -15
-20 -20 -20 -20 -20 -20 -20 -20 -20 -20 -20 -20 -20 -20 -20 -20 -20 -20 -20 -20 -20 -20 -20 -20 -20 -20 -20 -20 -20 -20 -20 -20 -20 -9 -20 -20 -20 -20

GFSNE_prec_radar_045.txt.gz
Reflectivity
-2 -11 22 21 24 -14 2 24 22 20 20 2 -3 -2 30 31 40 41 36 39 40 38 32 36 31 20 0 10 10 10 -20 -20 -20 -20 -20 -20 -20 -20
-20 -20 -3 25 8 27 -1 20 21 20 6 3 29 31 24 38 32 33 36 37 34 33 28 32 30 15 15 13 11 -2 -20 -20 -20 -20 -20 -2 -2 -8
-17 -17 4 13 9 0 -4 27 38 26 19 4 17 20 19 25 34 35 24 29 13 30 32 29 23 -2 2 -11 -20 -20 -20 -20 -20 -20 -20 -20 -20 -20
-20 -20 -20 -17 -20 -20 -20 -9 23 34 13 19 21 25 10 15 9 30 35 16 21 18 17 19 -2 -16 -20 -20 -20 -20 -20 -20 -13 -3 -19 -5 -20 -5
2 1 -19 -20 -17 -14 2 10 18 20 28 16 24 15 38 40 24 14 4 1 10 13 -11 -20 -20 -20 -20 -20 -20 -20 -20 -5 -4 -2 -20 8 2 4
-20 -2 -4 -20 -20 -20 -4 13 -18 9 19 17 31 34 6 2 7 2 -9 -9 -13 -9 -20 -20 -20 -20 -20 -20 -20 -20 -20 -20 -20 -20 -20 -20 -20 -9
-20 -20 -20 1 -4 -7 -0 25 28 -4 15 11 12 -3 4 1 -16 3 -4 -20 -19 -17 -20 -20 -20 -20 -20 -20 -20 -20 -20 -20 -20 -20 -20 -7 -3 -2
-20 -20 -20 -12 4 16 36 24 15 13 -6 -7 -16 -15 -15 -20 -16 -20 -20 -20 -20 -20 -20 -20 -20 -20 -20 -20 -20 -20 -20 -20 -20 -20 -20 -20 -20 -11
-20 -20 -12 -6 13 20 23 11 10 12 -4 -12 -15 -3 -4 -20 -17 -20 -20 -20 -20 -20 -20 -20 -20 -20 -20 -20 -20 -20 -20 -20 -20 -20 -20 -19 -3 -3
-20 -20 -20 -19 -20 -18 -14 -9 4 0 -18 -20 -20 -20 -20 -20 -20 -20 -20 -20 -20 -20 -20 -20 -20 -20 -20 -20 -20 -20 -20 -20 -20 -20 -20 -20 -20 -20
-20 -20 -20 -20 -20 -20 -20 -20 -20 -20 -20 -20 -20 -20 -20 -20 -20 -20 -20 -20 -20 -20 -20 -20 -20 -20 -20 -20 -20 -20 -20 -20 -20 -20 -20 -20 -20 -20
-20 -20 -20 -20 -20 -20 -20 -20 -20 -20 -20 -20 -20 -20 -20 -20 -20 -20 -20 -20 -20 -20 -20 -20 -20 -20 -20 -20 -20 -20 -20 -20 -20 -20 -20 -20 -20 -20
-20 -20 -20 -20 -20 -20 -20 -20 -20 -20 -20 -20 -20 -20 -20 -20 -20 -20 -20 -20 -20 -20 -20 -20 -20 -20 -20 -20 -20 -20 -20 -20 -20 -20 -20 -20 -20 -20
-20 -20 -20 -20 -20 -20 -20 -20 -20 -20 -20 -20 -20 -20 -20 -20 -20 -20 -20 -20 -20 -20 -20 -20 -20 -20 -20 -20 -20 -20 -20 -20 -20 -20 -20 -20 -20 -20
-20 -20 -20 -20 -20 -20 -20 -20 -20 -20 -20 -20 -20 -20 -20 -20 -20 -20 -20 -20 -20 -20 -20 -20 -20 -20 -19 -20 -20 -20 -20 -20 -20 -20 -20 -20 -20 -20
-20 -20 -20 -20 -20 -20 -20 -20 -20 -20 -20 -20 -20 -20 -20 -20 -20 -20 -20 -20 -20 -20 -20 -17 -18 -19 -19 -19 -18 -20 -20 -20 -20 -20 -20 -20 -20 -20
-20 -20 -20 -20 -20 -20 -20 -20 -20 -20 -20 -20 -20 -20 -20 -20 -20 -20 -20 -20 -20 -20 -20 -20 -20 -20 -20 -20 -16 -20 -20 -20 -20 -20 -20 -20 -20 -20
-20 -20 -20 -20 -20 -20 -20 -20 -20 -20 -20 -20 -20 -20 -20 -20 -20 -20 -20 -20 -20 -20 -20 -20 -20 -16 -20 -20 -2 -20 -20 -20 -20 -20 -20 -20 -20 -20
-20 -20 -20 -20 -20 -20 -20 -20 -20 -20 -20 -20 -20 -20 -20 -20 -19 -20 -20 -20 -20 -20 -20 -20 -20 -20 -20 -20 -20 -20 -20 -20 -20 -20 -20 -20 -20 -20
-20 -20 -20 -20 -20 -20 -20 -20 -20 -20 -20 -20 -20 -20 -20 -20 -20 -20 -20 -20 -20 -20 -20 -20 -20 -20 -20 -20 -20 -20 -20 -20 -20 -20 -20 -20 -20 -20
-20 -20 -20 -20 -20 -20 -20 -20 -20 -20 -20 -20 -20 -20 -20 -20 -20 -20 -20 -16 -11 -13 -20 -20 -20 -20 -20 -18 -6 -20 -20 -20 -20 -20 -20 -20 -20 -20
-20 -20 -20 -20 -20 -20 -20 -20 -20 -20 -20 -20 -20 -20 -20 -20 -20 -20 -20 -20 -20 -20 -20 -20 -20 -20 -20 -20 -20 -20 -20 -20 -20 -20 -20 -20 -20 -20
-20 -20 -20 -20 -20 -20 -20 -20 -20 -20 -20 -20 -20 -20 -20 -20 -20 -20 -20 -20 -20 -20 -20 -20 -20 -20 -20 -19 -20 -20 -20 -20 -20 -20 -20 -20 -20 -20

GFSNE_prec_radar_048.txt.gz
Reflectivity
3 7 -9 10 4 17 20 20 25 19 10 2 26 15 9 14 20 3 22 27 27 36 35 37 29 34 37 36 31 26 18 13 -6 5 -20 -20 -20 -20
-20 -6 -20 -20 -12 -20 2 16 19 25 21 -13 -20 -2 10 15 21 5 24 27 30 29 35 25 23 31 31 30 31 21 9 -11 -20 -20 -20 -20 -20 -20
-20 -20 -20 -4 -13 -20 -5 -16 -16 -2 12 9 -11 10 26 21 22 21 25 28 31 28 34 29 24 27 28 16 5 3 -5 -5 -20 -19 -20 -20 -20 -19
4 -20 -20 -20 -20 6 4 10 3 11 -10 8 20 24 36 25 28 14 32 28 29 24 31 26 9 21 11 -11 4 -12 -20 -20 -20 -20 -20 -20 -20 -20
-20 -20 -13 2 -19 6 3 10 4 -20 -6 23 24 5 29 28 33 34 25 35 20 23 23 12 3 -3 -13 -20 -20 -20 -20 -20 -20 -5 -14 8 5 11
-20 -20 -20 -20 -20 -18 -15 -19 -7 -15 9 2 -4 13 23 23 33 27 25 22 21 11 7 -3 -20 -20 -20 -20 -20 -20 -20 -20 -20 -20 -20 -20 -20 -20
-20 -20 -20 -20 -6 1 -20 -20 -17 -19 21 32 22 14 2 4 5 19 1 7 9 -16 -20 -20 -20 -20 -20 -20 -20 -20 -20 -20 -20 -20 -20 -6 1 -2
-20 -20 -20 -20 -4 11 3 2 2 2 -20 -20 -11 -20 -13 -13 -14 -6 -14 -20 -20 -20 -20 -20 -20 -20 -20 -20 -20 -20 -20 -20 -20 -20 -20 -20 -20 -20
-20 -20 -20 -20 -20 -20 -15 -19 -10 0 8 -20 -20 -20 -20 -20 -20 -20 -20 -20 -20 -20 -20 -20 -20 -20 -20 -20 -20 -20 -20 -20 -20 -20 -20 -20 -16 -20
-20 -20 -20 -20 -20 -20 -20 -20 -20 -20 -20 -20 -20 -20 -20 -20 -20 -20 -20 -20 -20 -20 -20 -20 -20 -20 -20 -20 -20 -20 -20 -20 -20 -20 -20 -20 -20 -20
-20 -20 -20 -20 -20 -20 -20 -20 -20 -20 -20 -20 -20 -20 -20 -20 -20 -20 -20 -20 -20 -20 -20 -20 -20 -20 -20 -20 -20 -20 -20 -20 -20 -20 -20 -20 -20 -20
-20 -20 -20 -20 -20 -20 -20 -20 -20 -20 -20 -20 -20 -20 -20 -20 -20 -20 -20 -20 -20 -20 -20 -20 -20 -20 -20 -20 -20 -20 -20 -20 -20 -20 -20 -20 -20 -20
-20 -20 -20 -20 -20 -20 -20 -20 -20 -20 -20 -20 -20 -20 -20 -20 -20 -20 -20 -20 -20 -20 -20 -20 -20 -20 -10 -20 -20 -20 -20 -20 -20 -20 -20 -20 -20 -20
-20 -20 -20 -20 -20 -20 -20 -20 -20 -20 -20 -20 -20 -20 -20 -20 -20 -20 -20 -20 -20 -20 -20 -20 -20 -20 -20 -20 -20 -20 -20 -20 -20 -20 -20 -20 -20 -20
-20 -20 -20 -20 -20 -20 -20 -20 -20 -20 -20 -20 -20 -20 -20 -20 -20 -20 -20 -20 -20 -20 -20 -20 -20 -20 -19 -20 -20 -20 -19 -20 -20 -20 -20 -20 -20 -20
-20 -20 -20 -20 -20 -20 -20 -20 -20 -20 -20 -20 -20 -20 -20 -20 -20 -20 -20 -20 -20 -20 -20 -20 -9 -18 -18 -19 -20 -20 -20 -20 -20 -20 -20 -20 -20 -20
-20 -20 -20 -20 -20 -20 -20 -20 -20 -20 -20 -20 -20 -20 -20 -20 -20 -20 -20 -20 -20 -20 -20 -20 -20 -20 -18 -20 -18 -20 -20 -20 -20 -20 -20 -20 -20 -20
-20 -20 -20 -20 -20 -20 -20 -20 -20 -20 -20 -20 -20 -20 -20 -20 -20 -20 -20 -20 -20 -20 -20 -20 -20 -20 -20 -20 -20 -20 -20 -20 -20 -20 -20 -20 -20 -20
-20 -20 -20 -20 -20 -20 -20 -20 -20 -20 -20 -20 -20 -20 -20 -20 -20 -20 -20 -20 -20 -20 -20 -20 -20 -20 -20 -20 -20 -20 -20 -20 -20 -20 -20 -20 -20 -20
-20 -20 -20 -20 -20 -20 -20 -20 -20 -20 -20 -20 -20 -20 -20 -20 -20 -20 -20 -20 -20 -20 -20 -20 -4 4 -7 -20 -20 -20 -17 -20 -20 -20 -20 -20 -20 -20
-20 -20 -20 -20 -20 -20 -20 -20 -20 -20 -20 -20 -20 -20 -20 -20 -20 -20 -20 -20 -20 -20 -20 -20 -20 -20 -19 -12 -14 -20 -20 -20 -20 -20 -20 -20 -20 -20
-20 -20 -20 -20 -20 -20 -20 -20 -20 -20 -20 -20 -20 -20 -20 -20 -20 -20 -20 -20 -20 -20 -20 -20 -20 -20 -20 -20 -20 -20 -20 -20 -20 -20 -20 -20 -20 -20
-20 -20 -20 -20 -20 -20 -20 -20 -20 -20 -20 -20 -20 -20 -20 -20 -20 -20 -20 -20 -20 -20 -20 -20 -20 -20 -20 -20 -20 -20 -20 -20 -20 -20 -20 -20 -20 -20

GFSNE_prec_radar_051.txt.gz
Reflectivity
-20 -20 -13 -10 -20 -20 -20 -15 -17 -8 -18 8 0 -5 -4 -20 -20 -16 23 39 37 24 27 17 26 18 23 21 26 16 21 29 27 29 28 19 -16 -20
6 -13 -0 -19 -16 5 -1 19 -5 18 10 -18 -20 -19 -16 -20 -20 -20 20 27 33 25 22 27 21 27 25 21 20 24 24 27 31 28 27 19 7 -4
-20 -20 11 5 -9 9 14 -2 -20 -12 -13 -10 -16 -13 -20 -20 7 -3 16 27 31 29 26 25 25 18 28 30 23 25 23 18 9 7 7 4 -3 -12
-20 -1 -20 -20 -20 -19 1 -6 16 -9 2 16 -16 -20 -6 -3 19 18 37 28 23 30 22 24 32 26 17 22 12 6 -3 1 -4 -20 -19 -19 -17 -1
-20 -20 -20 -20 -20 -18 -16 5 -3 1 -18 -14 -19 -20 -3 -5 15 22 16 30 28 33 27 27 18 9 7 9 13 11 -2 -20 -20 -19 -3 -7 -20 -17
-20 -20 -20 -20 -20 -20 -20 -20 -20 -20 -20 -20 -20 21 -5 -5 4 -11 -1 15 11 2 8 5 -11 -12 -13 -10 -12 -20 -20 -20 -20 -20 -20 -20 -20 -20
-20 -20 -20 -0 12 -0 -19 -20 -20 -20 -20 -20 -20 -20 -9 -16 -20 -6 -8 -8 -4 1 -18 -20 -20 -20 -20 -20 -20 -20 -20 -20 -20 -20 -20 -20 -20 -10
-20 -20 -20 -10 6 11 14 17 -4 -20 -20 -20 -20 -20 -20 -20 -20 -20 -20 -20 -20 -20 -20 -20 -20 -20 -20 -20 -20 -20 -20 -20 -20 -20 -7 0 10 9
-20 -20 -20 -20 -20 -20 -20 -20 -20 -19 3 -20 -20 -20 -20 -20 -20 -20 -20 -20 -20 -20 -20 -20 -20 -20 -20 -20 -20 -20 -20 -20 -20 -20 -6 -1 3 11
-20 -20 -20 -20 -20 -20 -20 -20 -20 -20 -20 -20 -20 -20 -20 -20 -20 -20 -20 -20 -20 -20 -20 -20 -20 -20 -20 -20 -20 -20 -20 -20 -20 -20 -12 -1 3 -2
-20 -20 -20 -20 -20 -20 -20 -20 -20 -20 -20 -20 -20 -20 -20 -20 -20 -20 -20 -20 -20 -20 -20 -20 -20 -20 -20 -20 -20 -20 -20 -20 -20 -20 -20 -20 -20 -20
-20 -20 -20 -20 -20 -20 -20 -20 -20 -20 -20 -20 -20 -20 -20 -20 -20 -20 -20 -20 -20 -20 -20 -20 -20 -20 -20 -20 -20 -20 -20 -20 -20 -20 -20 -20 -20 -20
-20 -20 -20 -20 -20 -20 -20 -20 -20 -20 -20 -20 -20 -20 -20 -20 -20 -20 -20 -20 -20 -20 -20 -20 -20 -20 -20 -20 -20 -20 -20 -20 -20 -20 -20 -20 -20 -20
-20 -20 -20 -20 -20 -20 -20 -20 -20 -20 -20 -20 -20 -20 -20 -20 -20 -20 -20 -20 -20 -20 -20 -20 -20 -20 -20 -20 -20 -20 -20 -20 -20 -20 -20 -20 -20 -20
-20 -20 -20 -20 -20 -20 -20 -20 -20 -20 -20 -20 -20 -20 -20 -20 -20 -20 -20 -20 -20 -20 -20 -20 -20 -20 -18 -20 -20 -20 -20 -20 -20 -20 -20 -20 -20 -20
-20 -20 -20 -20 -20 -20 -20 -20 -20 -20 -20 -20 -20 -20 -20 -20 -20 -20 -20 -20 -20 -20 -20 -20 -20 -20 -19 -20 -19 -20 -20 -20 -20 -20 -20 -20 -20 -20
-20 -20 -20 -20 -20 -20 -20 -20 -20 -20 -20 -20 -20 -20 -20 -20 -20 -20 -20 -20 -13 -20 -20 -20 -20 -20 -20 -20 -20 -20 -20 -20 -20 -20 -20 -20 -20 -20
-20 -20 -20 -20 -20 -20 -20 -20 -20 -20 -20 -20 -20 -20 -20 -20 -20 -20 -19 -20 -20 -20 -20 -20 -20 -20 -20 -20 -20 -20 -20 -20 -20 -20 -20 -20 -20 -20
-20 -20 -20 -20 -20 -20 -20 -20 -20 -20 -20 -20 -20 -20 -20 -20 -19 -20 -20 -20 -20 -20 -20 -20 -20 -20 -20 -20 -20 -20 -20 -20 -20 -20 -20 -20 -20 -20
-20 -20 -20 -20 -20 -20 -20 -20 -20 -20 -20 -20 -20 -20 -20 -20 -20 -20 -20 -20 -20 -20 -20 -20 -20 -20 -20 -20 -20 -20 -20 -20 -20 -20 -20 -20 -20 -20
-20 -20 -20 -20 -20 -20 -20 -20 -20 -20 -20 -20 -20 -20 -20 -20 -20 -20 -20 -20 -20 -20 -20 -20 -20 -20 -20 -11 -20 -20 -20 -20 -20 -20 -20 -20 -20 -20
-20 -20 -20 -20 -20 -20 -20 -20 -20 -20 -20 -20 -20 -20 -20 -20 -20 -20 -20 -20 -20 -20 -20 -20 -20 -20 -20 -20 -20 -20 -20 -20 -20 -20 -20 -10 -20 -20
-20 -20 -20 -20 -20 -20 -20 -20 -20 -20 -20 -20 -20 -20 -20 -20 -20 -20 -20 -20 -20 -20 -20 -20 -20 -20 -20 -20 -20 -20 -20 -20 -20 -20 -20 -20 -20 -20

GFSNE_prec_radar_054.txt.gz
Reflectivity
2 -17 -3 8 -20 -20 -7 -18 -19 -11 -2 -4 -20 -4 -20 -20 -16 -20 -20 -20 -16 9 20 22 37 34 28 28 29 27 22 17 23 18 18 19 18 19
-20 -18 -5 8 -20 5 -10 -7 3 -14 14 -18 16 14 -9 -6 -9 -20 -15 9 11 -1 22 24 33 34 35 22 23 27 27 21 15 20 22 22 20 26
-20 -20 -20 -10 -19 -20 -20 -20 5 -15 -20 -20 -20 -20 -20 -20 -20 -20 -20 -20 -2 26 28 24 23 33 19 29 29 31 30 30 23 17 19 21 18 23
-20 -20 -20 -20 -20 -20 -20 -5 -20 -20 -20 -4 -20 -20 -20 -13 -20 -20 -20 -11 -8 15 25 24 23 15 26 22 25 21 26 28 29 23 14 -1 -6 -8
-20 -20 -20 -20 -20 -20 -20 -20 -20 -20 -20 -20 -20 -20 -20 -20 -20 -20 -16 -20 -19 11 1 8 10 20 21 22 26 17 21 24 25 14 -10 -19 -18 -6
-20 -20 -20 -20 -20 -20 -20 -20 -20 -20 -20 -20 -20 -20 -20 -20 -20 -20 -20 -20 -20 -12 8 13 14 19 10 14 2 -3 7 -8 -13 -20 -20 -20 -20 -20
-20 -20 -20 -0 11 -5 -20 -20 -20 -20 -20 -20 -20 -20 -20 -20 -20 -20 -20 -20 -20 -20 -20 -20 -20 -19 -20 -20 -20 -20 -20 -20 -20 -20 -20 -20 -20 -20
-20 -20 -20 -16 -20 -5 -20 0 -10 -20 -20 -20 -20 -20 -20 -20 -20 -20 -20 -20 -20 -20 -20 -20 -20 -20 -20 -20 -20 -20 -20 -20 -20 -20 -20 -20 -20 -7
-20 -20 -20 -20 -20 -20 -20 -20 -20 -20 -20 -20 -20 -20 -20 -20 -20 -20 -20 -20 -20 -20 -20 -20 -20 -20 -20 -20 -20 -20 -20 -20 -20 -20 -3 7 11 12
-20 -20 -20 -20 -20 -20 -20 -20 -20 -20 -20 -20 -20 -20 -20 -20 -20 -20 -20 -20 -20 -20 -20 -20 -20 -20 -20 -20 -20 -20 -20 -20 -20 -5 -3 12 6 6
-20 -20 -20 -20 -20 -20 -20 -20 -20 -20 -20 -20 -20 -20 -20 -20 -20 -20 -20 -20 -20 -20 -20 -20 -20 -20 -20 -20 -20 -20 -20 -20 -20 -20 -20 -15 -16 -16
-20 -20 -20 -20 -20 -20 -20 -20 -20 -20 -20 -20 -20 -20 -20 -20 -20 -20 -20 -20 -20 -20 -20 -20 -20 -20 -20 -20 -20 -20 -20 -20 -20 -20 -20 -20 -20 -20
-20 -20 -20 -20 -20 -20 -20 -20 -20 -20 -20 -20 -20 -20 -20 -20 -20 -20 -20 -20 -20 -20 -20 -20 -20 -20 -20 -20 -20 -20 -20 -20 -20 -20 -20 -20 -20 -20
-20 -20 -20 -20 -20 -20 -20 -20 -20 -20 -20 -20 -20 -20 -20 -20 -20 -20 -20 -20 -20 -20 -20 -20 -20 -20 -20 -20 -20 -20 -20 -20 -20 -20 -20 -20 -20 -20
-20 -20 -20 -20 -20 -20 -20 -20 -20 -20 -20 -20 -20 -20 -20 -20 -20 -20 -20 -20 -20 -20 -20 -20 -20 -20 -20 -20 -20 -20 -20 -20 -20 -20 -20 -20 -20 -20
-20 -20 -20 -20 -20 -20 -20 -20 -20 -20 -20 -20 -20 -20 -20 -20 -20 -20 -20 -20 -20 -20 -20 -20 -20 -20 -20 -20 -19 -20 -20 -20 -20 -20 -20 -20 -20 -20
-20 -20 -20 -20 -20 -20 -20 -20 -20 -20 -20 -20 -20 -20 -20 -20 -20 -20 -20 -20 -20 -20 -20 -20 -20 -20 -20 -20 -20 -20 -20 -20 -20 -20 -20 -20 -20 -20
-20 -20 -20 -20 -20 -20 -20 -20 -20 -20 -20 -20 -20 -20 -20 -20 -20 -20 -13 -20 -20 -20 -20 -20 -20 -20 -20 -20 -20 -20 -20 -20 -20 -20 -20 -20 -20 -20
-20 -20 -20 -20 -20 -20 -20 -20 -20 -20 -20 -20 -20 -20 -20 -20 -20 -20 -20 -20 -20 -20 -20 -20 -20 -20 -20 -20 -20 -20 -20 -20 -20 -20 -20 -20 -20 -20
-20 -20 -20 -20 -20 -20 -20 -20 -20 -20 -20 -20 -20 -20 -20 -20 -20 -20 -20 -20 -20 -20 -20 -20 -20 -20 -19 -20 -20 -20 -20 -20 -20 -20 -20 -20 -20 -20
-20 -20 -20 -20 -20 -20 -20 -20 -20 -20 -20 -20 -20 -20 -20 -20 -20 -20 -20 -20 -20 -20 -20 -20 -20 -20 -3 -5 -20 -20 -20 -20 -20 -20 -20 -20 -20 -20
-20 -20 -20 -20 -20 -20 -20 -20 -20 -20 -20 -20 -20 -20 -20 -20 -20 -20 -20 -20 -20 -20 -20 -20 -20 -20 -20 -20 -20 -20 -20 -20 -20 -20 -20 -20 -20 -20
-20 -20 -20 -20 -20 -20 -20 -20 -20 -20 -20 -20 -20 -20 -20 -20 -20 -20 -20 -20 -20 -20 -20 -20 -20 -20 -20 -20 -20 -20 -20 -20 -20 -20 -20 -20 -20 -20

GFSNE_prec_radar_057.txt.gz
Reflectivity
15 -16 -6 -20 -20 -18 -0 1 -20 -16 -6 -6 -20 -20 -20 -20 3 -20 -20 -20 -20 -19 -20 -20 -14 21 24 19 28 26 32 26 29 22 17 22 22 21
-5 -19 -15 -20 -20 -16 6 -12 7 -20 -20 -20 -19 -20 -20 -20 -3 -20 -15 -20 -9 1 -4 -20 14 11 9 25 23 31 34 28 20 17 19 24 22 18
-20 -20 -20 -20 -20 -20 -19 -20 -20 -20 -20 -20 -20 -20 -20 -20 -6 -13 -20 -20 -12 -17 18 15 21 17 21 5 15 19 19 7 13 24 25 29 25 19
-20 -20 -20 -20 -20 -20 -20 -20 -20 -20 -20 -20 -20 -20 -20 -20 -20 -20 -20 -20 -20 -17 9 16 18 12 13 12 -19 -18 -11 2 13 19 11 24 26 21
-20 -20 -20 -20 -20 -20 -20 -20 -20 -20 -20 -20 -20 -20 -20 -20 -17 -20 -20 -20 -20 -15 -20 -20 -20 -20 -20 -8 10 10 16 18 15 9 13 13 16 18
-20 -20 -20 -20 -20 -20 -20 -20 -20 -20 -20 -20 -20 -20 -18 -20 -16 -17 -20 -20 -20 -20 -0 -16 -14 -11 -13 -15 -5 -6 -12 -17 -14 5 1 -13 -16 -18
-20 -20 -20 -8 -4 -5 -20 -20 -20 -20 -20 -20 -20 -20 -20 -20 -20 -20 -20 -20 -20 -20 -20 -20 -20 -20 -20 -20 -20 -20 -20 -20 -20 -20 -20 -20 -20 -20
-20 -20 -20 -7 -5 11 10 6 -18 -20 -20 -20 -20 -20 -20 -20 -20 -20 -20 -20 -20 -20 -20 -20 -20 -20 -20 -20 -20 -20 -20 -20 -20 -20 -20 -20 -20 -20
-20 -20 -20 -20 -20 -20 -20 -20 -20 -20 -20 -20 -20 -20 -20 -20 -20 -20 -20 -20 -20 -20 -20 -20 -20 -20 -20 -20 -20 -20 -20 -20 -20 -20 -20 -17 -20 -8
-20 -20 -20 -20 -20 -20 -20 -20 -20 -20 -20 -20 -20 -20 -20 -20 -20 -20 -20 -20 -20 -20 -20 -20 -20 -20 -20 -20 -20 -20 -20 -20 -20 -20 -11 8 12 10
-20 -20 -20 -20 -20 -20 -20 -20 -20 -20 -20 -20 -20 -20 -20 -20 -20 -20 -20 -20 -20 -20 -20 -20 -20 -20 -20 -20 -20 -20 -20 -20 -20 -13 9 8 7 2
-20 -20 -20 -20 -20 -20 -20 -20 -20 -20 -20 -20 -20 -20 -20 -20 -20 -20 -20 -20 -20 -20 -20 -20 -20 -20 -20 -20 -20 -20 -20 -20 -20 -11 -20 -20 -20 -17
-20 -20 -20 -20 -20 -20 -20 -20 -20 -20 -20 -20 -20 -20 -20 -20 -20 -20 -20 -20 -20 -20 -20 -20 -20 -20 -20 -20 -20 -20 -20 -20 -20 -20 -20 -20 -20 -20
-20 -20 -20 -20 -20 -20 -20 -20 -20 -20 -20 -20 -20 -20 -20 -20 -20 -20 -20 -20 -20 -20 -20 -20 -20 -20 -20 -20 -20 -20 -20 -20 -20 -20 -20 -20 -20 -20
-20 -20 -20 -20 -20 -20 -20 -20 -20 -20 -20 -20 -20 -20 -20 -20 -20 -20 -20 -20 -20 -20 -20 -20 -20 -20 -20 -20 -20 -20 -20 -20 -20 -20 -20 -20 -20 -20
-20 -20 -20 -20 -20 -20 -20 -20 -20 -20 -20 -20 -20 -20 -20 -20 -20 -20 -20 -20 -20 -20 -20 -20 -20 -20 -20 -9 -19 -20 -20 -20 -20 -20 -20 -20 -20 -20
-20 -20 -20 -20 -20 -20 -20 -20 -20 -20 -20 -20 -20 -20 -20 -20 -20 -20 -20 -20 -20 -20 -20 -20 -20 -20 -20 -20 -20 -20 -20 -20 -20 -20 -20 -20 -20 -20
-20 -20 -20 -20 -20 -20 -20 -20 -20 -20 -20 -20 -20 -20 -20 -20 -20 -20 -20 -16 -20 -20 -20 -20 -20 -20 -20 -20 -20 -20 -20 -20 -20 -20 -20 -17 -20 -20
-20 -20 -20 -20 -20 -20 -20 -20 -20 -20 -20 -20 -20 -20 -20 -20 -20 -20 -20 -20 -20 -20 -20 -20 -20 -20 -20 -20 -20 -20 -20 -20 -20 -20 -20 -20 -20 -20
-20 -20 -20 -20 -20 -20 -20 -20 -20 -20 -20 -20 -20 -20 -20 -20 -20 -20 -20 -20 -20 -20 -20 -20 -20 -20 -19 -20 -17 -20 -20 -20 -20 -20 -20 -20 -20 -20
-20 -20 -20 -20 -20 -20 -20 -20 -20 -20 -20 -20 -20 -20 -20 -20 -20 -20 -20 -20 -20 -20 -20 -20 -20 -20 -14 -1 -20 -20 -20 -20 -20 -20 -20 -20 -20 -20
-20 -20 -20 -20 -20 -20 -20 -20 -20 -20 -20 -20 -20 -20 -20 -20 -20 -20 -20 -20 -20 -20 -20 -20 -20 -20 -20 -20 -20 -20 -20 -20 -20 -20 -20 -20 -20 -20
-20 -20 -20 -20 -20 -20 -20 -20 -20 -20 -20 -20 -20 -20 -20 -20 -20 -20 -20 -20 -20 -20 -20 -20 -20 -20 -20 -20 -20 -20 -20 -20 -20 -20 -20 -20 -20 -20

GFSNE_prec_radar_060.txt.gz
Reflectivity
-20 -2 14 3 14 -4 6 -20 -20 -9 -2 -20 -20 -20 -20 -20 -20 -20 -20 -20 -20 -19 -19 -20 -20 -20 -3 -20 19 13 7 20 23 23 18 20 29 10
-20 -13 -9 0 -0 3 -0 -17 -20 -20 -20 -20 -20 -20 -20 -20 -20 -20 -20 -20 -11 5 6 -9 -12 -4 -8 -20 1 15 12 19 29 19 6 22 25 7
-20 -20 -20 -20 -20 -20 -20 -20 -20 -20 -20 -20 -8 -20 -20 -20 -20 -20 -9 -20 -20 1 -8 12 4 5 18 -0 18 20 17 22 18 17 12 17 8 15
-20 -20 -20 -20 -20 -20 -20 -20 -20 -20 -20 -5 -20 -20 -20 -20 -20 -20 -20 -20 -20 -8 4 -0 3 -20 -17 -10 -20 -19 -20 -20 -20 -20 -9 -20 0 15
-20 -20 -20 -20 -20 -20 -20 -20 -20 -20 -20 -20 -9 -20 -20 -20 -19 -20 -20 -20 -20 -20 -20 -20 -4 -12 0 -9 -9 -20 -20 -20 -20 -20 -20 -20 -14 7
-20 -20 -20 -20 -20 -20 -20 -20 -20 -20 -20 -20 -20 -20 -20 -20 -20 -20 -20 -20 -20 -20 -20 -20 -20 -20 -20 -20 -20 -18 -13 -20 -20 -20 -20 -3 -20 -20
-20 -20 -20 -17 -15 -20 -20 -20 -20 -20 -20 -20 -20 -20 -20 -20 -20 -20 -20 -20 -20 -20 -20 -20 -20 -20 -20 -20 -20 -20 -20 -20 -20 -20 -17 -20 -20 -20
-20 -20 -20 -6 -20 4 -20 -20 -20 -20 -20 -20 -20 -20 -20 -20 -20 -20 -20 -20 -20 -20 -20 -20 -20 -20 -20 -20 -20 -20 -20 -20 -20 -20 -20 -20 -20 -20
-20 -20 -20 -20 -20 -20 -20 -20 -20 -20 -20 -20 -20 -20 -20 -20 -20 -20 -20 -20 -20 -20 -20 -20 -20 -20 -20 -20 -20 -20 -20 -20 -20 -20 -20 -20 -20 -20
-20 -20 -20 -20 -20 -20 -20 -20 -20 -20 -20 -20 -20 -20 -20 -20 -20 -20 -20 -20 -20 -20 -20 -20 -20 -20 -20 -20 -20 -20 -20 -20 -20 -20 -20 -5 -13 7
-20 -20 -20 -20 -20 -20 -20 -20 -20 -20 -20 -20 -20 -20 -20 -20 -20 -20 -20 -20 -20 -20 -20 -20 -20 -20 -20 -20 -20 -20 -20 -20 -20 -20 -18 1 10 9
-20 -20 -20 -20 -20 -20 -20 -20 -20 -20 -20 -20 -20 -20 -20 -20 -20 -20 -20 -20 -20 -20 -20 -20 -20 -20 -20 -20 -20 -20 -20 -20 -20 -20 -20 -16 8 -17
-20 -20 -20 -20 -20 -20 -20 -20 -20 -20 -20 -20 -20 -20 -20 -20 -20 -20 -20 -20 -20 -20 -20 -20 -14 -20 -20 -20 -20 -20 -20 -20 -20 -20 -20 -20 -20 -20
-20 -20 -20 -20 -20 -20 -20 -20 -20 -20 -20 -20 -20 -20 -20 -20 -20 -20 -20 -20 -20 -20 -20 -20 -6 -7 -15 -15 -20 -20 -20 -20 -20 -20 -20 -20 -20 -20
-20 -20 -20 -20 -20 -20 -20 -20 -20 -20 -20 -20 -20 -20 -20 -20 -20 -20 -20 -20 -20 -20 -20 -20 -13 -20 -20 -20 -20 -20 -20 -20 -20 -20 -20 -20 -20 -20
-20 -20 -20 -20 -20 -20 -20 -20 -20 -20 -20 -20 -20 -20 -20 -20 -20 -20 -20 -20 -17 -20 -20 -20 -11 -20 -20 -20 -7 -20 -20 -18 -20 -20 -20 -20 -20 -20
-20 -20 -20 -20 -20 -20 -20 -20 -20 -20 -20 -20 -20 -20 -20 -20 -20 -20 -20 -20 -20 -20 -20 -20 -20 -20 -20 -20 -20 -20 -20 -20 -20 -20 -13 -20 -20 -20
-20 -20 -20 -20 -20 -20 -20 -20 -20 -20 -20 -20 -20 -20 -20 -20 -20 -20 -20 -20 -20 -20 -20 -20 -20 -20 -20 -20 -20 -20 -20 -20 -20 -20 -9 -8 -20 -20
-20 -20 -20 -20 -20 -20 -20 -20 -20 -20 -20 -20 -20 -20 -20 -20 -20 -20 -20 -20 -20 -20 -20 -20 -20 -20 -20 -20 -20 -20 -20 -20 -13 -5 -19 -3 -1 -20
-20 -20 -20 -20 -20 -20 -20 -20 -20 -20 -20 -20 -20 -20 -20 -20 -20 -20 -20 -20 -20 -20 -20 -20 -20 -16 -18 -20 -17 -20 -20 -20 -20 -20 -20 -20 -20 -20
-20 -20 -20 -20 -20 -20 -20 -20 -20 -20 -20 -20 -20 -20 -20 -20 -20 -20 -20 -20 -20 -20 -20 -20 -20 -13 -6 4 -13 -20 -20 -20 -20 -14 -11 3 -16 -20
-20 -20 -20 -20 -20 -20 -20 -20 -20 -20 -20 -20 -20 -20 -20 -20 -20 -20 -20 -20 -20 -20 -20 -20 -20 -20 -20 -20 -20 -20 -20 -20 -20 -20 -20 -19 -20 -20
-20 -20 -20 -20 -20 -20 -20 -20 -20 -20 -20 -20 -20 -20 -20 -20 -20 -20 -20 -20 -20 -19 -20 -20 -10 -5 -19 -20 -19 -20 -20 -20 -20 -20 -20 -20 -20 -20

GFSNE_prec_radar_063.txt.gz
Reflectivity
-20 -20 6 16 -17 -19 11 6 -4 -20 -16 -20 -20 -20 -20 -20 -20 -20 -20 -18 -3 9 5 -19 -20 -20 -18 -0 5 -19 -19 6 -19 -20 -4 -2 7 22
-20 1 8 -20 2 -20 -1 13 12 -2 -17 -20 -20 -20 -20 -20 -20 -20 -20 13 11 8 13 11 8 14 15 13 14 9 7 -10 15 23 24 22 21 22
-13 2 -6 -20 -20 -20 -20 -20 -20 -20 -20 -20 -20 -20 -20 -20 -20 -20 -12 -16 -4 -4 0 3 9 14 16 16 17 -6 10 9 18 22 24 24 24 10
-20 -20 -20 -20 -20 -20 -20 -20 -20 -20 -20 -20 -20 -20 -20 -20 -20 -20 -20 -20 -20 -20 -20 -20 -16 -1 5 11 7 2 6 12 -2 -18 -20 -9 -13 -3
-20 -20 -20 -20 -20 -20 -20 -20 -20 -20 -20 -20 -20 -20 -20 -20 -20 -20 -20 -20 -20 -20 -20 -20 -7 -20 -14 5 2 11 6 -3 -20 -20 -20 -20 -20 -20
-20 -20 -20 -20 -20 -20 -20 -20 -20 -20 -20 -20 -20 -20 -20 -20 -20 -20 -20 -20 -20 -20 -20 -20 -20 -20 -20 -20 -20 -20 -20 -20 -12 -14 -20 -20 -18 5
-20 -20 -20 -20 -20 -20 -20 -20 -20 -20 -2 -16 -14 -20 -20 -20 -20 -20 -20 -20 -20 -20 -20 -20 -20 -20 -20 -20 -20 -20 -20 -20 -20 -17 11 9 0 -8
-20 -20 -20 -20 -20 -20 -20 -20 -20 -20 -20 -20 8 -20 -20 -20 -20 -20 -20 -20 -20 -20 -20 -20 -20 -20 -20 -20 -20 -20 -20 -20 -20 -20 -20 -20 -20 -20
-20 -20 -20 -20 -20 -20 -20 -20 -20 -20 -20 -20 -20 -20 -20 -20 -20 -20 -20 -20 -20 -20 -20 -20 -20 -20 -20 -20 -20 -20 -20 -20 -20 -20 -20 -20 -20 -20
-20 -20 -20 -20 -20 -20 -20 -20 -20 -20 -20 -20 -20 -20 -20 -20 -20 -20 -20 -20 -20 -20 -20 -20 -20 -20 -20 -20 -20 -20 -20 -20 -20 -20 -20 -20 -20 -20
-20 -20 -20 -20 -20 -20 -20 -20 -20 -20 -20 -20 -20 -20 -20 -20 -20 -20 -20 -20 -20 -20 -20 -20 -20 -20 -20 -20 -20 -20 -20 -20 -20 -20 -20 -20 -20 -8
-20 -20 -20 -20 -20 -20 -20 -20 -20 -20 -20 -20 -20 -20 -20 -20 -20 -20 -20 -20 -20 -20 -20 -20 -20 -20 -20 -20 -20 -20 -20 -20 -20 -20 -20 -20 -20 -20
-20 -20 -20 -20 -20 -20 -20 -20 -20 -20 -20 -20 -20 -20 -20 -20 -20 -20 -20 -20 -20 -20 -20 -20 -20 -20 -20 -20 -20 -20 -20 -20 -20 -20 -20 -20 -20 -16
-20 -20 -20 -20 -20 -20 -20 -20 -20 -20 -20 -20 -20 -20 -20 -20 -20 -20 -20 -20 -20 -20 -20 -20 -20 -20 -19 -20 -20 -20 -20 -20 -20 -20 -20 -20 -20 -20
-20 -20 -20 -20 -20 -20 -20 -20 -20 -20 -20 -20 -20 -20 -20 -20 -20 -20 -20 -20 -20 -20 -20 -20 -20 -19 -4 -20 -20 -20 -20 -20 -20 -20 -20 -20 -20 -20
-20 -20 -20 -20 -20 -20 -20 -20 -20 -20 -20 -20 -20 -20 -20 -20 -20 -20 -20 -20 -20 -20 -20 -20 -20 -20 -20 -20 -20 -20 -20 -20 -20 -20 -20 -20 -20 -20
-20 -20 -20 -20 -20 -20 -20 -20 -20 -20 -20 -20 -20 -20 -20 -20 -20 -20 -20 -20 -20 -20 -20 -20 -20 -20 -20 -20 -20 -20 -20 -20 -20 -20 -20 -20 -20 -20
-20 -20 -20 -20 -20 -20 -20 -20 -20 -20 -20 -20 -20 -20 -20 -20 -20 -20 -20 -20 -20 -20 -20 -20 -20 -19 -20 -20 -20 -20 -20 -20 -20 -20 -20 -20 -20 -20
-20 -20 -20 -20 -20 -20 -20 -20 -20 -20 -20 -20 -20 -20 -20 -20 -20 -20 -20 -20 -20 -20 -20 -20 -20 -13 -18 -20 -20 -20 -20 -20 -20 -20 -20 -20 -20 -20
-20 -20 -20 -20 -20 -20 -20 -20 -20 -20 -20 -20 -20 -20 -20 -20 -20 -20 -20 -20 -20 -20 -20 -20 -20 -20 -19 -20 -20 -20 -8 -20 -20 -20 -20 -20 -20 -20
-14 -20 -20 -20 -20 -20 -20 -20 -20 -20 -20 -20 -20 -20 -20 -20 -20 -20 -20 -20 -20 -20 -20 -20 -20 -8 4 2 -5 -20 -20 -20 -20 -20 -20 -20 -20 -20
-20 -20 -20 -20 -20 -20 -20 -20 -20 -20 -20 -20 -20 -20 -20 -20 -20 -20 -20 -20 -20 -20 -20 -20 -20 -17 -20 -20 -20 -20 -20 -20 -20 -20 -17 -8 -20 -20
-3 8 -20 -17 -3 -20 -20 -20 -20 -20 -20 -20 -20 -20 -20 -20 -20 -20 -20 -20 -20 -20 -20 -20 -20 -10 -20 -19 -19 -20 -20 -20 -20 -20 -20 -20 -20 -20

GFSNE_prec_radar_066.txt.gz
Reflectivity
-20 -20 -20 -20 -20 -16 12 -9 -18 9 11 -19 -19 -20 -20 -20 -20 -20 -20 12 12 13 -12 1 -3 -20 -17 -16 13 8 -20 -20 -18 -1 10 18 19 21
-20 -19 -12 -20 8 -18 -12 -15 23 20 17 -18 -12 -18 -20 -20 -20 -20 -14 12 11 15 15 -2 9 13 14 14 16 13 9 13 8 2 9 19 18 13
-20 -5 -5 -9 -17 -19 -19 -20 -20 -20 -20 -20 -18 -20 -20 -20 -20 -20 -12 -18 -9 14 16 14 -4 1 2 8 2 12 6 9 16 15 18 18 23 25
-20 -20 -20 -20 -20 -20 -20 -20 -20 -20 -20 -20 -20 -20 -20 -20 -20 -20 -20 -20 -20 -20 -19 6 -20 -18 11 12 12 6 -11 -3 9 -7 1 6 6 2
-20 -20 -20 -20 -20 -20 -20 -20 -20 -20 -20 -20 -20 -20 -20 -20 -20 -20 -20 -20 -20 -20 -20 -20 -20 -20 -20 -19 12 7 -3 11 6 6 -2 -20 -18 -20
-20 -20 -20 -20 -20 -20 -20 -20 -20 -20 -20 -20 -20 -20 -20 -20 -20 -20 -20 -20 -20 -20 -20 -20 -20 -20 -20 -20 -20 -11 -12 -16 -14 -20 -20 -20 -20 -14
-20 -20 -20 -20 -14 -20 -20 -20 -20 -20 -20 -20 -20 -20 -20 -20 -20 -20 -20 -20 -20 -20 -20 -20 -20 -20 -20 -20 -20 -20 -20 -20 -20 -20 -16 -9 7 5
-20 -20 -20 -20 -20 -20 -20 -20 -20 -20 -20 -20 -20 -20 -20 -20 -20 -20 -20 -20 -20 -20 -20 -20 -20 -20 -20 -20 -20 -20 -20 -20 -20 -20 -20 -20 -20 -20
-20 -20 -20 -20 -20 -20 -20 -20 -20 -20 -20 -20 -20 -20 -20 -20 -20 -20 -20 -20 -20 -20 -20 -20 -20 -20 -20 -20 -20 -20 -20 -20 -20 -20 -20 -20 -20 -20
-20 -17 -15 -20 -20 -20 -20 -20 -20 -20 -20 -20 -20 -20 -20 -20 -20 -20 -20 -20 -20 -20 -20 -20 -20 -20 -20 -20 -20 -20 -20 -20 -20 -20 -20 -20 -20 -20
-20 -20 -20 -20 -20 -20 -20 -20 -20 -20 -20 -20 -20 -20 -20 -20 -20 -20 -20 -20 -20 -20 -20 -20 -20 -20 -20 -20 -20 -20 -20 -20 -20 -20 -20 -20 -20 -20
-20 -20 -20 -20 -20 -20 -20 -20 -20 -20 -20 -20 -20 -20 -20 -20 -20 -20 -20 -20 -20 -20 -20 -20 -20 -20 -20 -20 -20 -20 -20 -20 -20 -20 -20 -20 -20 -20
-20 -20 -20 -20 -20 -20 -20 -20 -20 -20 -20 -20 -20 -20 -20 -20 -20 -20 -20 -20 -20 -20 -20 -20 -20 -20 -20 -20 -20 -20 -20 -20 -20 -20 -20 -20 -20 -20
-20 -20 -20 -20 -20 -20 -20 -20 -20 -20 -20 -20 -20 -20 -20 -20 -20 -20 -20 -20 -20 -20 -20 -20 -20 -20 -20 -20 -20 -20 -20 -20 -20 -20 -20 -20 -20 -20
-20 -20 -20 -20 -20 -20 -20 -20 -20 -20 -20 -20 -20 -20 -20 -20 -20 -20 -20 -20 -20 -20 -20 -20 -20 -20 -20 -20 -20 -20 -20 -20 -20 -20 -20 -20 -20 -20
-20 -20 -20 -20 -20 -20 -20 -20 -20 -20 -20 -20 -20 -20 -20 -20 -20 -20 -20 -20 -20 -20 -20 -20 -20 -20 -20 -20 -20 -20 -20 -20 -20 -20 -20 -20 -20 -20
-20 -20 -20 -20 -20 -20 -20 -20 -20 -20 -20 -20 -20 -20 -20 -20 -20 -20 -20 -20 -20 -20 -20 -20 -20 -20 -20 -20 -20 -20 -20 -20 -20 -20 -20 -20 -20 -20
-20 -20 -19 -1 -10 -20 -20 -10 4 -12 -20 -20 -20 -20 -20 -20 -20 -20 -20 -20 -20 -20 -20 -20 -20 -20 -20 -20 -20 -20 -20 -20 -20 -20 -20 -20 -20 -20
2 0 1 -9 -11 3 -1 -3 -20 -20 -20 -20 -20 -20 -20 -20 -20 -20 -20 -20 -20 -20 -20 -20 -20 -20 -20 -20 -20 -20 -20 -20 -20 -20 -20 -20 -20 -20
-2 -1 -20 -20 -19 -19 -11 -20 -20 -20 -20 -20 -20 -20 -20 -20 -20 -20 -20 -20 -20 -20 -20 -20 -20 -20 -20 -20 -20 -20 -20 -20 -20 -20 -20 -20 -20 -20
-20 -20 -19 -20 -20 -20 -20 -20 -20 -20 -20 -20 -20 -20 -20 -20 -20 -20 -20 -20 -20 -20 -20 -20 -20 -14 -12 -3 -9 -20 -20 -20 -20 -20 -20 -20 -20 -20
-12 -19 -5 1 1 -8 -20 -13 -16 -20 -20 -20 -20 -20 -20 -20 -20 -20 -20 -20 -20 -20 -20 -20 -20 -20 -20 -20 -20 -20 -20 -20 -20 -20 -20 -20 -20 -20
-18 -18 -20 -18 2 -9 -18 10 3 -7 12 -19 -20 -20 -20 -20 -20 -20 -20 -20 -20 -20 -20 -20 -20 -20 -20 -5 -13 -20 -20 -20 -20 -20 -20 -20 -20 -20

GFSNE_prec_radar_072.txt.gz
Reflectivity
-20 -20 -20 -20 -20 -20 -20 4 -20 4 9 -4 13 -20 -3 -15 16 -4 -20 -17 -20 -18 8 10 -20 0 18 16 12 15 11 9 -18 -19 -16 22 25 29
-20 -20 -20 -20 -20 -20 -20 -20 -19 16 13 -18 -20 -20 -14 15 -2 -2 -16 -2 -7 10 11 11 -4 2 7 14 13 6 -4 2 7 12 11 21 20 16
-20 -20 -20 -20 -20 -20 -20 -20 -20 -20 -20 -4 -7 16 20 14 -8 -17 -4 -20 -12 4 12 14 6 6 13 13 12 11 -12 -20 -17 11 13 12 9 10
-20 -20 -20 -20 -20 -20 -20 -20 -20 -20 15 -3 16 -13 -20 -20 -20 -20 -20 -20 -20 -20 -2 6 11 14 -3 10 15 14 -2 -5 3 -8 -20 -20 -20 -10
-20 -20 -20 -20 -20 -20 -20 -20 -20 -20 -20 -20 -20 -20 -20 -4 -20 -20 -20 -20 -20 -20 -20 -20 -20 -14 -2 9 -18 3 10 11 5 -13 -20 -14 11 4
-20 -20 -20 -20 -20 -20 -20 -20 -20 -20 -20 -20 -20 -20 -20 -20 -20 -20 -20 -20 -20 -20 -20 -20 -20 -20 -20 -20 -20 -20 -20 -20 -18 -19 -20 -20 -20 -20
-20 -20 -20 -19 -20 1 -20 -20 -19 -20 -20 -20 -20 -20 -20 -20 -20 -20 -20 -20 -20 -20 -20 -20 -20 -20 -20 -20 -20 -20 -20 -20 -20 -20 -20 -20 -20 -20
-20 -20 -15 6 4 -19 -20 9 5 -20 -20 -20 -20 -20 -20 -20 -20 -20 -20 -20 -20 -20 -20 -20 -20 -20 -20 -20 -20 -20 -20 -20 -20 -20 -20 -20 -20 -20
-6 1 3 -20 -20 -20 -20 -20 -20 -20 -20 -20 -20 -20 -20 -20 -20 -20 -20 -20 -20 -20 -20 -20 -20 -20 -20 -20 -20 -20 -20 -20 -20 -20 -20 -20 -20 -20
0 9 -20 -20 -20 -20 -20 -20 -19 -20 -20 -20 -20 -20 -20 -20 -20 -20 -20 -20 -20 -20 -20 -20 -20 -20 -20 -20 -20 -20 -20 -20 -20 -20 -20 -20 -20 -20
3 -20 -20 -20 -20 -20 -20 -20 -16 11 16 -2 -20 -20 -20 -20 -20 -20 -20 -20 -20 -20 -20 -20 -20 -20 -20 -20 -20 -20 -20 -20 -20 -20 -20 -20 -20 -20
-20 -20 -20 -20 -20 -20 -20 -10 5 -7 -18 -20 -20 -20 -20 -20 -20 -20 -20 -20 -20 -20 -20 -20 -20 -20 -20 -20 -20 -20 -20 -20 -20 -20 -20 -20 -20 -20
-20 -20 -20 -8 -7 -4 1 -3 -7 -19 -20 -20 -20 -20 -20 -20 -20 -20 -20 -20 -20 -20 -20 -20 -20 -20 -20 -20 -20 -20 -20 -20 -20 -20 -20 -20 -20 -20
-20 -20 -14 -4 -3 -6 -13 -17 -20 -20 -20 -20 -20 -20 -20 -20 -20 -20 -19 -4 -20 -20 -20 -20 -20 -20 -20 -20 -20 -20 -20 -20 -20 -20 -20 -20 -20 -20
-20 -20 -20 -20 -20 -19 -19 -20 -20 -20 -20 -20 -20 -20 -20 -20 -20 -20 -20 -20 -20 -20 -20 -20 -20 -20 -20 -20 -20 -20 -20 -20 -20 -20 -20 -20 -20 -20
-20 -20 -20 -20 -20 -20 -20 -20 -20 -20 -20 -20 -20 -20 -18 -20 -20 -19 -20 -20 -20 -20 -20 -20 -20 -20 -20 -20 -20 -20 -20 -20 -20 -20 -20 -20 -20 -20
-18 -20 -20 -20 -20 -17 -20 -18 -19 -20 -20 -20 -20 -11 4 2 -11 -17 -20 -20 -20 -20 -20 -20 -20 -20 -20 -20 -20 -20 -20 -20 -20 -20 -20 -20 -20 -20
-20 -20 -20 -14 -20 -20 -20 -20 -17 -10 -8 -1 -1 -11 -20 -20 -11 -19 -20 -20 -20 -20 -20 -20 -20 -20 -20 -20 -20 -20 -20 -20 -20 -20 -20 -20 -20 -20
-0 -5 -20 -20 -20 -20 -20 -20 -20 -20 -20 -20 -20 -20 -20 -20 -20 -20 -20 -20 -20 -20 -20 -20 -20 -20 -20 -20 -20 -20 -20 -20 -20 -20 -20 -20 -20 -20
-20 -20 -20 -20 -20 -20 -20 -20 -20 -20 -20 -20 -20 -20 -20 -20 -20 -20 -20 -20 -20 -20 -20 -18 -20 -20 -20 -20 -20 4 -12 -20 -20 -20 -20 -20 -20 -20
-20 -20 -20 -20 -20 -20 -20 -20 -20 -20 -20 -20 -20 -20 -20 -20 -20 -20 -20 -20 -20 -20 -11 6 -15 -20 -20 -20 -20 2 -20 -20 -20 -20 -20 -20 -20 -20
-20 -20 -20 -20 -19 -20 -20 -20 -20 -20 -20 -20 -20 -20 -20 -20 -20 -20 -20 -20 -20 -20 -20 2 -15 -20 -20 -20 -20 -20 -20 -20 -20 -20 -20 -20 -20 -20
-13 -19 -19 -20 -20 -20 -20 -20 -20 -20 -20 -20 -20 -20 -20 -20 -20 -20 -20 -19 -16 -20 -5 -11 -20 -8 -20 -20 -20 -20 -20 -20 -20 -20 -20 -20 -20 -20

GFSNE_prec_radar_075.txt.gz
Reflectivity
-20 -20 -20 -20 -20 -20 -20 -3 11 12 7 -20 -19 -12 -20 9 -17 3 -3 24 -20 -20 -20 6 1 -20 7 10 16 16 18 14 11 -19 -20 -20 -1 27
-20 -20 -20 -20 -20 -20 -20 -18 -13 6 5 -20 -2 -1 -13 -20 2 -3 5 -20 -20 -20 -20 -2 -10 3 1 -7 -1 13 14 13 12 5 9 -13 -4 17
-20 -20 -20 -20 -20 -20 -20 -20 -20 -8 9 -11 -17 3 -12 10 6 -0 9 -20 -20 -19 -5 -12 5 -20 -15 -16 -0 13 14 -6 11 18 19 16 17 14
-20 -20 -20 -20 -20 -20 -20 -20 -20 -20 -6 9 -0 17 9 -2 8 -19 -20 -20 -20 2 9 8 -8 -11 -20 -20 9 13 2 -18 -11 8 3 12 18 16
-20 -20 -20 -20 -20 -20 -20 -20 -20 -20 -20 -16 -20 12 3 10 -16 -20 -13 -20 -20 -20 -20 -20 -20 -8 -2 -20 -20 -11 9 -14 13 15 -3 -14 -16 -20
-20 -20 -20 -20 -20 -20 -20 -20 -8 3 1 7 3 -11 5 -4 -20 -20 -20 -20 -20 -20 -20 -20 -20 -20 -20 -20 -20 -20 -20 -11 -8 1 -8 -12 -9 13
-20 -20 -20 -3 13 5 -16 -20 -20 -13 7 9 -7 -4 -20 -20 -20 -20 -20 -20 -20 -20 -20 -20 -20 -20 -20 -20 -20 -20 -20 -20 -20 -20 -20 -20 -20 -20
-20 -20 8 9 9 11 12 11 5 -20 -5 14 13 -4 -20 -20 -20 -20 -20 -20 -20 -20 -20 -20 -20 -20 -20 -20 -20 -20 -20 -20 -20 -20 -20 -20 -20 -20
11 -9 -20 9 5 -20 -20 -20 -5 -2 -17 -15 -20 -20 -20 -20 -20 -20 -20 -20 -20 -20 -20 -20 -20 -20 -20 -20 -20 -20 -20 -20 -20 -20 -20 -20 -20 -20
7 -12 7 -4 -20 -20 -20 -20 -20 -20 -20 -20 -17 -4 -20 -20 -20 -20 -20 -20 -20 -20 -20 -20 -20 -20 -20 -20 -20 -20 -20 -20 -20 -20 -20 -20 -20 -20
-20 -2 5 -20 -20 -20 -20 -20 -20 -20 -20 -20 -20 -13 -8 -18 -20 -20 -20 -20 -20 -20 -20 -20 -20 -20 -20 -20 -20 -20 -20 -20 -20 -20 -20 -20 -20 -20
-9 8 -8 -20 -20 -20 -20 -19 3 -5 -6 -4 8 2 0 -12 -20 -20 -20 -20 -20 -20 -20 -20 -20 -20 -20 -20 -20 -20 -20 -20 -20 -20 -20 -20 -20 -20
-20 -20 -20 -20 -20 -20 -20 -16 2 3 3 -5 -16 -17 -20 -20 -20 -20 -20 -20 -20 -20 -20 -20 -17 -19 -20 -20 -20 -20 -20 -20 -20 -20 -20 -20 -20 -20
-20 -20 -20 -20 -20 -12 -20 -20 -20 -3 -5 -15 -20 -20 -20 -20 -20 -20 -20 -20 -20 -20 -20 -16 -16 -20 -20 -20 -20 -20 -20 -20 -20 -20 -20 -20 -20 -20
-20 -20 -20 -20 -20 -20 -20 -20 -20 -20 -12 -3 -19 -20 -20 -20 -20 -20 -20 -20 -20 -16 -20 -20 -20 -20 -20 -20 -20 -20 -20 -20 -20 -20 -20 -20 -20 -20
-20 -20 -20 -20 -20 -12 -17 -20 -20 -20 -20 -20 -20 -20 -20 -20 -3 10 10 12 -0 -20 -20 -20 -20 -20 -20 -20 -20 -20 -20 -20 -20 -20 -20 -20 -20 -20
-20 -20 -20 -20 -20 -20 -20 -20 -20 -20 -20 -14 -9 -4 -5 -15 -20 -20 -20 -20 -20 -20 -20 -20 -20 -20 -20 -20 -20 -20 -20 -20 -20 -20 -20 -20 -20 -20
-20 -20 -20 -20 -20 -20 -20 -5 -2 -19 -20 -20 -20 -20 -20 -20 -20 -20 -20 -20 -20 -20 -20 -20 -5 0 -19 -18 -14 -13 -20 -20 -20 -20 -20 -20 -20 -20
-7 -20 -20 -20 -20 -20 -5 -20 -20 -20 -20 -20 -20 -20 -20 -20 -20 -20 -20 -20 -20 -20 -20 -20 -20 -20 -20 -14 7 -10 -14 -20 -20 -20 -20 -20 -20 -20
-20 -20 -20 -20 -20 -20 -20 -20 -20 -20 -20 -20 -20 -20 -20 -20 -20 -20 -20 -20 -20 -20 -20 -20 -20 -20 -20 -20 -20 10 7 -19 -20 -20 -20 -20 -20 -20
-20 -20 -20 -20 -20 -20 -20 -20 -20 -20 -20 -20 -20 -20 -20 -20 -20 -20 -20 -20 -20 -20 -20 -20 -20 -20 -20 -20 -20 3 8 -2 -20 -20 -20 -20 -20 -20
-12 -14 -20 -20 -20 -20 -20 -20 -20 -20 -19 -20 -20 -19 -20 -20 -20 -20 -20 -20 -20 -20 -20 -20 -20 -20 -20 -20 -20 -15 11 6 -8 -20 -20 -20 -20 -20
6 -2 -20 -20 -20 -20 -20 -19 -17 -19 -20 -20 -18 -19 -20 -20 -20 -20 -20 -20 -20 -20 -20 -20 -20 -20 -20 -20 -20 -13 8 5 -16 -20 -20 -20 -20 -20

GFSNE_prec_radar_078.txt.gz
Reflectivity
-20 -20 -20 -20 -20 -20 -20 -3 -18 -17 -20 -20 -20 -20 -20 3 -20 -20 13 16 17 9 -17 -20 -20 -16 0 15 14 13 13 1 4 12 -20 -20 -17 2
-20 -20 -20 -20 -20 -20 -20 -20 -19 5 13 -20 -20 -20 -20 -16 -3 -8 -19 -5 -6 13 -20 -20 -20 4 13 7 12 13 11 14 6 -14 4 -15 -17 24
-20 -20 -20 -20 -20 -20 -20 -20 -20 -18 9 -20 -20 1 -15 -20 2 -11 10 3 -1 8 -19 -14 -17 10 10 -7 9 10 13 11 9 5 -1 3 10 6
-20 -20 -20 -20 -20 -20 -20 -20 -20 -20 -20 -2 -1 13 15 -5 4 14 -19 7 -15 -10 1 5 -20 12 13 -10 11 10 0 11 -9 13 14 0 13 3
-20 -20 -20 -20 -20 -20 -20 -20 -20 -20 -5 -20 -20 -20 -7 1 6 6 -20 -20 -20 -20 -20 -20 -17 -2 -4 -20 -20 -8 9 -13 -12 -5 -15 11 4 -8
-20 -20 -20 -20 -20 -10 -10 -7 -19 -10 -5 -3 8 9 -17 1 3 -20 -15 -20 -20 -20 -20 -20 -20 -20 -20 -20 -20 -20 -20 -20 6 -20 14 -10 -13 3
-20 -20 -20 5 14 -0 -16 -14 9 2 5 2 13 10 -8 -13 3 -1 -20 -20 -20 -20 -20 -20 -20 -15 -20 -20 -20 -20 -20 -20 -20 -20 -20 -20 -20 -17
-20 -20 -20 6 9 11 11 12 9 -8 -2 -20 3 10 -13 7 10 1 -20 -20 -20 -20 -20 -20 -20 -20 -20 -20 -20 -20 -20 -20 -20 -20 -20 -20 -20 -20
-20 -2 -12 -6 3 -20 9 -16 -3 5 6 -16 7 -4 -18 -20 -20 -11 -19 -20 -20 -20 -20 -20 -20 -20 -20 -20 -20 -20 -20 -20 -20 -20 -20 -20 -20 -20
-12 4 2 14 2 -13 -20 -20 -20 -20 -20 -19 -20 -20 -20 -20 -6 -8 -20 -20 -20 -20 -20 -20 -20 -20 -20 -20 -20 -20 -20 -20 -20 -20 -20 -20 -20 -20
-20 -20 -20 -1 17 -20 -20 -20 -20 -20 -20 -20 -20 -20 -20 -20 -2 5 -19 -20 -18 -20 -20 -20 -20 -20 -20 -20 -20 -20 -20 -20 -20 -20 -20 -20 -20 -20
-20 -20 12 -0 -1 -20 -20 -20 -20 -20 -20 2 9 -12 -19 -3 -12 -20 -20 -4 1 -20 -20 -20 -20 -20 -20 -20 -20 -20 -20 -20 -20 -20 -20 -20 -20 -20
-20 -20 -0 -9 -20 -20 -20 -20 -20 -20 -20 -20 -20 -20 -20 -5 -18 -20 -0 8 -20 -20 -20 -20 -20 -20 -20 -8 2 6 -20 -20 -20 -20 -20 -20 -20 -20
-20 -20 -20 -20 -20 -20 -20 -20 -20 -20 -20 -20 -20 -20 -20 -20 -20 -20 -20 -20 -20 -20 -20 -20 -20 -16 -10 -20 -20 -20 -20 -20 -20 -20 -20 -20 -20 -20
-20 -20 -20 -20 -20 -20 -20 -20 -20 -20 -20 -20 -20 -20 -20 -20 -20 -20 -20 -20 -8 -6 7 9 8 -7 -20 -20 -20 -20 -20 -20 -20 -20 -20 -20 -20 -20
-20 -20 -20 -20 -20 -20 -20 -20 -20 -20 -20 -20 -20 -20 -20 -20 -20 -20 -20 -20 -20 -20 -20 -20 -20 -20 -20 -20 -20 -20 -20 -20 -20 -20 -20 -20 -20 -20
-20 -20 -20 -20 -20 -20 -20 -20 -20 -20 -20 -20 -20 -20 -20 -20 -20 -20 -20 -20 -20 -20 -20 -20 -20 -20 -20 -20 -20 -15 -20 -20 -20 -20 -20 -20 -20 -20
-20 -20 -20 -20 -20 -20 -20 -20 -20 -20 -20 -20 -20 -20 -20 -20 -20 -20 -20 -20 -20 -20 -20 -20 -20 -20 -20 -20 -20 -20 -20 -20 -20 -20 -20 -20 -20 -20
-20 6 -20 -20 -20 -20 -20 -20 -20 -20 -20 -20 -20 -20 -20 -20 -20 -20 -20 -20 -20 -20 -20 -20 -20 -20 -20 -20 -19 -20 -20 -20 -20 -20 -20 -20 -20 -20
-1 5 -20 -20 -20 -20 -20 -20 -20 -20 -20 -20 -20 -20 -20 -20 -20 -20 -20 -20 -20 -20 -20 -20 -20 -20 -20 -20 -20 -20 -20 -20 -20 -20 -20 -20 -20 -9
4 6 -16 -20 -15 -20 -20 -20 -20 -20 -20 -20 -20 -20 -20 -20 -20 -20 -20 -20 -20 -20 -20 -20 -20 -20 -20 -20 -20 -20 -20 -20 -20 -20 -20 -20 -20 -20
16 12 4 -14 7 -1 -20 -20 -20 -20 -20 -20 -20 -20 -20 -20 -20 -20 -20 -20 -20 -20 -20 -20 -20 -7 -18 -20 -20 -20 -20 -20 -20 -20 -20 -20 -20 -20
1 -16 -12 -18 -20 -20 -20 -20 -20 -20 -20 -20 -20 -20 -20 -20 -20 -20 -20 -20 -20 -20 -20 -20 -20 -17 -20 -20 -20 -20 -20 -20 -20 -20 -20 -20 -20 -20

GFSNE_prec_radar_081.txt.gz
Reflectivity
4 -10 -20 -20 -20 -20 -20 -18 -20 -7 -20 -18 -20 -20 -20 -20 4 -19 -19 11 -18 10 -1 4 -20 0 -2 -14 10 11 10 12 11 16 11 -20 -20 -20
-20 -20 -18 -20 -20 -20 -20 -20 -20 -14 -10 -20 -20 -18 -20 -20 -20 -19 -15 -0 -1 2 -5 -1 8 6 -6 3 1 -0 4 8 10 -9 15 -6 -20 -20
-20 -20 -20 -20 -20 -20 -20 -20 -20 -9 0 -15 -15 -20 -20 -20 -7 -20 -15 7 7 17 -1 -7 -5 8 10 14 -9 -18 4 6 10 15 13 11 10 -10
-20 -20 -20 -20 -20 -20 -20 -20 -20 -20 -20 -20 -20 -19 -20 -20 -20 -2 -14 6 10 7 12 -18 -5 7 5 1 -20 -3 2 10 1 10 11 12 18 10
-20 -20 -20 -20 -20 -20 -20 -20 -20 -20 -20 -20 -20 -20 -20 -20 -20 -19 -2 -3 12 13 -8 -19 -0 10 8 -19 -20 -20 -8 -20 -11 -3 4 12 14 6
-20 -20 -20 -20 -20 -20 -20 -20 -20 -20 -20 -20 -20 -12 -20 -20 -20 -20 -7 7 -7 -18 -20 -20 -20 -20 -18 -20 -20 -20 -20 -20 -20 -1 -20 6 10 9
-20 -20 -20 -20 -3 -19 -18 -20 -20 -20 -12 -3 -15 6 -18 -8 -10 -20 -0 -1 -14 -20 -20 -20 -20 -20 -20 -20 -20 -20 -20 -20 -20 -20 -20 6 -11 -2
-20 -20 -20 -20 -20 -16 -0 -5 3 -20 -12 -19 -17 -20 -20 -20 -18 12 -0 1 -20 -20 -20 -20 -20 -20 -20 -20 -18 -20 -20 -20 -20 -20 -20 -20 -20 -20
-20 -20 -20 -20 -20 -20 8 10 -0 -6 0 -19 -20 -20 -20 -16 -20 -20 -11 -20 -18 10 6 -20 -16 -19 -20 -20 -20 -20 -20 -20 -20 -20 -20 -20 -20 -20
-20 -20 -20 -20 -17 -18 -20 -20 -20 -20 -20 -20 -20 -20 -20 -20 -20 -20 -20 -20 9 1 -20 -10 0 -17 -20 -20 -20 -20 -20 -20 -20 -20 -20 -20 -20 -20
-20 -20 -20 -20 -13 -7 -20 -20 -20 -20 -20 -20 -20 -20 -20 -20 -2 -20 -20 -14 18 15 -9 -20 -20 -20 -20 -20 -20 -20 -20 -20 -20 -20 -20 -20 -19 -20
-20 -20 -20 -11 8 -6 -20 -20 -20 -20 -20 -20 -20 -20 -20 -20 -20 -20 -15 -20 -20 -20 -20 -12 -20 -20 -20 -20 -20 -20 -20 -19 -11 -2 -13 -19 -20 -20
-20 -20 -20 8 -8 -20 -20 -20 -20 -20 -20 -20 -20 -20 -20 -20 -20 -20 -20 -20 -20 -19 -15 -19 -20 -20 -20 -20 -20 -20 -1 -8 -12 -18 -19 -20 -20 -20
-20 -20 -10 7 -20 -20 -20 -20 -20 -20 -20 -20 -20 -20 -20 -20 -20 -20 -20 -20 -20 -16 -11 -20 -20 -10 2 2 10 10 -20 -20 -20 -20 -20 -20 -20 -20
-20 -20 -20 -20 -20 -20 -20 -20 -20 -20 -20 -20 -20 -20 -20 -20 -20 -20 -20 -20 -20 -20 -20 -20 -20 -20 -20 -20 -20 -20 -20 -20 -20 -20 -20 -20 -20 -20
5 -20 -20 -20 -20 -20 -20 -20 -20 -20 -20 -20 -20 -20 -20 -20 -20 -20 -20 -20 -20 -20 -20 -20 -20 -20 -20 -20 -20 -20 -20 -20 -20 -20 -20 -20 -20 -20
6 -20 -20 -20 -20 -20 -20 -20 -20 -20 -20 -20 -20 -20 -20 -20 -20 -20 -20 -20 -20 -20 -20 -20 -20 -20 -20 -20 -20 -20 -20 -20 -20 -20 -20 -20 -20 -20
-4 -20 -20 -19 -20 -20 -19 -19 -20 -20 -20 -20 -20 -20 -20 -20 -20 -20 -20 -20 -20 -20 -20 -20 -20 -20 -20 -20 -20 -20 -20 -20 -20 -20 -20 -20 -20 -20
7 -20 -18 -17 -18 -20 -4 -14 -20 -20 -20 -20 -20 -20 -20 -20 -20 -20 -20 -20 -20 -20 -20 -20 -20 -20 -20 -20 -20 -20 -20 -20 -20 -20 -20 -20 -20 -20
8 -20 -15 6 -20 -20 -12 -20 -20 -20 -20 -20 -20 -20 -20 -20 -20 -20 -20 -20 -20 -20 -20 -20 -20 -20 -20 -20 -20 -20 -20 -20 -20 -20 -20 -20 -20 -20
-9 -10 13 14 -20 -20 -20 -20 -20 -20 -20 -20 -20 -20 -20 -20 -20 -20 -20 -20 -20 -20 -20 -20 -20 -20 -20 -20 -20 -20 -20 -20 -20 -20 -20 -20 -20 -20
-15 -13 13 15 -20 -20 -20 -4 -8 -20 -20 -19 -20 -20 -20 -20 -20 -20 -20 -20 -20 -20 -20 -20 -20 -20 -20 -20 -20 -20 -20 -20 -20 -20 -4 -20 -20 -20
-20 -16 -7 19 -20 -20 -20 -20 -20 -20 -20 -20 -20 -20 -20 -20 -18 -20 -20 -20 -20 -20 -20 -20 -20 -20 -20 -20 -20 -20 -20 -20 -20 -20 -20 -20 -20 -20

GFSNE_prec_radar_084.txt.gz
Reflectivity
13 -0 -5 5 6 6 -1 -9 -18 -20 -20 -20 -20 -20 -20 -20 -20 -20 -20 -20 19 6 4 -19 6 14 3 -19 -9 -0 -3 10 8 -15 0 -20 -20 -20
-6 -5 -9 -7 -16 -20 -17 -9 -3 -20 -17 -20 -13 -20 -20 -20 -20 -20 -20 -9 5 1 -1 -7 2 -20 -18 5 6 3 -8 -3 9 -1 -2 1 4 -20
-13 -20 -20 -20 -20 -20 -20 -20 -19 2 4 -17 -20 -20 -20 -20 -20 -20 -2 -20 -9 4 8 -0 6 -20 -20 -6 7 9 -20 -20 -20 -16 -3 4 16 -15
-14 -18 -20 -20 -20 -20 -20 -20 -11 3 8 -16 -20 -20 -20 -20 -20 -19 -19 -16 -12 15 1 11 -12 -19 -20 6 10 -19 -20 -17 8 8 8 8 4 12
-20 -20 -20 -20 -20 -20 -20 -9 -15 -20 -20 -6 -5 -20 -20 -20 -20 -20 -20 -20 -9 19 9 -20 -20 -20 2 -7 -20 -20 -20 -11 2 -12 -17 12 21 15
-20 -20 -20 -20 -20 -20 -20 -20 -20 -20 -20 -20 1 -20 -20 -20 -20 -20 -20 -20 -20 -20 13 4 -20 -20 -20 -20 -20 -20 -20 -20 -20 -20 -20 -8 11 17
-20 -20 -20 -20 -20 -20 -20 -20 -20 -20 -20 -8 -20 -20 -20 -20 -20 -20 -20 -20 -20 -20 -20 -20 -20 -20 -20 -20 -20 -20 -20 -20 -20 -19 -20 -20 1 8
-20 -20 -20 -20 -20 -20 -20 -20 -20 -20 -20 -20 -20 -20 -20 -20 -20 -20 -20 -20 -20 -20 -20 -20 -20 -20 -20 -20 -20 -20 -20 -20 -20 -20 -20 -20 -20 -20
-20 -20 -20 -20 -20 -20 -20 -20 -20 -17 -6 -20 -20 -20 -20 -20 -20 -20 -20 -10 0 -18 -20 -20 -14 8 10 -20 -20 -20 -20 -20 -20 -20 -20 -20 -20 -20
-20 -20 -20 -20 -20 -20 -20 -20 -20 -20 -20 -20 -20 -20 -20 -20 -20 -20 -20 -20 -20 -20 -20 -20 3 -4 -20 -20 -20 -20 -20 -20 -20 -20 -20 -20 -20 -20
-20 -20 -20 -20 -20 -20 -20 -20 -20 -20 -20 -20 -20 -20 -20 -20 -20 -20 -20 -20 -20 -20 -20 -19 7 12 -18 -10 -19 -20 -20 -20 -20 -20 -20 -20 -20 -20
-20 -20 -20 -20 -20 -20 -20 -20 -20 -20 -20 -20 -20 -20 -20 -20 -20 -20 -20 -20 -20 -20 -20 -20 -20 -20 -20 -20 -20 -20 -20 -20 -20 -20 -19 -19 -19 -20
-20 -20 -20 -20 -4 2 -10 -20 -20 -20 -20 -20 -20 -20 -20 -20 -20 -20 -20 -20 -20 -20 -20 -20 -20 -20 -20 -20 -20 -20 -20 -19 3 1 -5 -9 -16 -13
-20 -20 -20 -20 -1 2 -15 -20 -20 -20 -20 -20 -20 -20 -20 -20 -20 -20 -20 -20 -20 -20 -20 -19 -20 -20 -11 -20 -20 -20 -20 -13 -20 -20 -20 -20 -20 -20
-20 -20 -20 -20 10 4 -20 -20 -20 -20 -20 -20 -20 -20 -20 -20 -20 -20 -20 -20 -20 -20 -20 -20 -20 -20 -20 -20 -20 -20 -20 -20 -20 -20 -20 -20 -20 -20
3 -20 -20 -20 -20 -20 -18 -3 -20 -20 -20 -20 -20 -20 -20 -20 -20 -20 -20 -20 -20 -20 -20 -20 -20 -20 -20 -20 -20 -20 -20 -20 -20 -20 -20 -20 -20 -20
-20 -20 -20 -20 -20 -20 -20 -20 -20 -20 -20 -20 -20 -20 -20 -20 -20 -20 -20 -20 -20 -20 -20 -20 -20 -20 -20 -20 -20 -20 -20 -20 -20 -20 -20 -20 -20 -20
-0 -20 -20 -20 -20 -20 -20 -20 -20 -20 -20 -20 -20 -20 -20 -20 -20 -20 -20 -20 -20 -20 -20 -20 -20 -20 -20 -20 -20 -20 -20 -20 -20 -20 -20 -20 -20 -20
6 -20 -20 -20 -20 -20 -20 -20 -20 -20 -20 -20 -20 -20 -20 -20 -20 -20 -20 -20 -20 -20 -20 -20 -20 -20 -20 -20 -20 -20 -20 -20 -20 -20 -20 -20 -20 -20
2 -20 -20 -20 -16 -19 -20 -20 -20 -20 -16 -20 -20 -20 -20 -20 -20 -20 -20 -20 -20 -20 -20 -20 -20 -20 -20 -20 -20 -20 -20 -20 -20 -20 -20 -20 -20 -20
-19 -20 -18 -10 -7 -19 -20 -20 -20 -20 -15 -19 -20 -20 -20 -20 -20 -20 -20 -20 -20 -20 -20 -20 -20 -20 -20 -20 -20 -20 -20 -20 -20 -20 -20 -20 -20 -20
-16 -5 -14 -4 -3 -8 -20 -20 -20 -20 -15 -20 -20 -20 -20 -20 -20 -20 -20 -20 -20 -20 -20 -20 -20 -20 -20 -20 -20 -20 -20 -20 -20 -20 -20 -9 -16 -17
-5 -4 -16 -3 -0 -6 -20 -20 -7 4 -20 -20 -20 -20 -20 -20 -20 -20 -20 -20 -20 -20 -20 -20 -20 -20 -20 -20 -20 -20 -20 -20 -20 -20 -20 -20 -20 -17

GFSNE_prec_radar_087.txt.gz
Reflectivity
10 14 13 10 14 12 5 2 -2 -2 -2 3 9 8 2 -6 -6 -20 -20 -20 3 -19 3 17 6 -20 -20 3 -2 -7 4 1 -12 -9 9 -7 7 -20
5 -7 -2 2 -0 -4 -0 -1 -12 -14 -20 -20 -20 -20 -20 -20 -8 -20 -20 -20 -6 -20 -15 -2 -4 -14 2 -12 -16 -1 -6 3 -14 5 -11 8 5 15
-20 -20 -20 -20 -20 -20 -20 -20 -20 -20 -20 -20 -20 -20 -20 -20 -20 -20 -7 -20 9 -19 -20 -7 -10 7 -13 10 -20 9 14 -12 -20 -20 -10 0 9 -4
-20 -20 -20 -20 -20 -20 -20 -20 -20 -20 -20 -17 -20 -20 -20 -20 -20 -20 -20 -20 -20 7 11 -6 -3 1 -4 -20 -20 -18 -20 -20 -19 -20 2 -6 -3 14
-20 -20 -20 -20 -20 -20 -20 -20 -20 -20 -1 -2 -20 -20 -16 -20 -20 -20 -20 -20 -20 -6 6 10 9 8 -16 -20 -20 -20 -20 -20 -20 -20 -20 6 18 17
-20 -20 -20 -20 -20 -20 -20 -20 -20 -17 -3 -12 -20 3 -20 -20 -20 -20 -20 -20 -20 -20 -10 1 -2 -13 -20 -14 -20 -20 -20 -20 -20 -20 -20 -19 -7 20
-20 -20 -20 -20 -20 -20 -20 -20 -20 -20 -11 -20 -20 -20 -20 -20 -20 -20 -20 -20 -20 -20 4 -19 -20 -18 -20 -20 -20 -15 2 -20 -20 -20 -20 -20 -6 -16
-20 -20 -20 -20 -20 -20 -20 -20 -20 -5 -20 -20 -20 -20 -20 -20 -20 -4 9 -20 -20 -20 -20 -20 -20 -20 -20 -20 -20 -20 -20 -15 -20 -20 -20 -20 -20 -20
-20 -20 -20 -20 -20 -20 -20 -20 -20 -20 -20 -20 -20 -20 -20 -20 -11 -20 -20 -20 -15 -20 -20 -20 -20 -20 -20 -20 -18 3 -16 -8 -8 -20 -20 -20 -20 -20
-20 -20 -20 -20 -20 -20 -20 -20 -20 -20 -20 -20 -20 -20 -20 -20 -20 -20 -20 -20 -20 -20 -20 -20 -20 -20 -20 -20 -13 -18 -20 -18 -20 -20 -20 -20 -20 -20
-20 -20 -20 -20 -20 -20 -20 -20 -20 -20 -20 -20 -20 -20 -20 -20 -20 -20 -20 -20 -20 -20 -20 -20 -20 -20 -20 -20 -20 -20 -20 -20 -20 -20 -20 3 -20 -20
-20 -20 -20 -20 -20 -20 -20 -20 -20 -20 -20 -20 -20 -20 -20 -20 -20 -20 -20 -20 -20 -20 -20 -20 -20 -20 -20 -20 -20 -20 -20 -20 -20 -20 -20 -20 -20 -20
-20 -20 -20 -2 -20 -20 -20 -20 -20 -20 -20 -20 -20 -20 -20 -20 -20 -20 -20 -20 -20 -20 -20 -20 -20 -20 -20 -20 -20 -20 -20 -20 -20 -20 -15 -6 -4 -8
-20 -20 -20 -15 3 -20 -13 -10 -20 -20 -20 -20 -20 -20 -20 -20 -20 -20 -20 -20 -20 -20 -20 -20 -20 -20 -20 -20 -20 -20 -20 -20 -20 -20 -20 -20 -20 -20
-20 -20 -20 -20 4 -19 9 3 -20 -20 -20 -20 -20 -20 -20 -20 -20 -20 -20 -20 -20 -20 -20 -20 -20 -20 -20 -20 -20 -20 -20 -20 -20 -20 -20 -20 -20 -20
-20 -20 -20 -20 -20 -20 -1 -7 -20 -20 -20 -20 -20 -20 -20 -20 -20 -20 -20 -20 -20 -20 -20 -20 -20 -20 -20 -20 -20 -20 -20 -20 -20 -20 -20 -20 -20 -20
15 19 5 -20 -20 -20 -20 -20 -20 -20 -20 -20 -20 -20 -20 -20 -20 -20 -20 -20 -20 -20 -20 -20 -20 -20 -20 -20 -20 -20 -20 -20 -20 -20 -20 -20 -20 -20
10 -20 -18 -20 -20 -20 -20 -20 -20 -20 -20 -20 -20 -20 -20 -20 -20 -20 -20 -20 -20 -20 -20 -20 -20 -20 -20 -20 -20 -20 -20 -20 -20 -20 -20 -20 -20 -20
9 -17 -20 -20 -20 -20 -6 -5 -20 -20 -20 -20 -20 -20 -20 -20 -20 -20 -20 -20 -20 -20 -20 -20 -20 -20 -20 -20 -20 -20 -20 -20 -20 -20 -20 -20 -20 -20
12 -20 -20 -20 -18 5 -14 -20 -20 -20 -20 -18 -18 -20 -20 -20 -20 -20 -20 -20 -20 -20 -20 -20 -20 -20 -20 -20 -20 -20 -20 -20 -20 -20 -20 -20 -20 -20
-2 -10 -17 3 1 -10 -16 -16 -18 -20 -20 -17 -19 -19 -20 -20 -20 -20 -20 -20 -20 -20 -20 -20 -20 -20 -20 -20 -20 -20 -20 -20 -20 -20 -20 -20 -20 -20
-16 -8 14 -8 -13 -10 -4 -4 -14 -20 -20 -20 -14 -18 -20 -20 -20 -20 -20 -20 -20 -20 -20 -20 -20 -20 -20 -20 -20 -20 -20 -20 -20 -20 -20 -20 -20 -20
15 23 18 15 6 1 5 -3 -20 -20 -20 -20 -20 -20 -20 -20 -20 -20 -20 -20 -20 -20 -20 -20 -20 -20 -20 -20 -20 -20 -20 -20 -20 -20 -20 -20 -20 -20

GFSNE_prec_radar_090.txt.gz
Reflectivity
19 11 16 20 23 20 14 10 3 -6 -19 -20 -20 -20 -20 -20 -20 -20 -19 -20 -20 -20 -20 -5 -14 7 10 -6 -20 -20 -7 -20 -20 -4 6 -11 -17 -7
7 5 -10 -4 3 15 17 11 -7 -8 -4 -5 -4 -16 -20 -20 -12 -20 -20 1 8 -20 -16 -15 -2 -4 -5 -20 -7 -20 -20 6 13 15 1 7 -1 5
13 -17 4 -20 -20 -16 -20 -20 -20 -20 -20 -20 -20 -20 -20 -20 -20 -20 -20 -6 -10 -20 4 -20 -19 -1 -6 -18 -20 -20 8 14 -5 -15 -20 -8 6 11
21 10 6 -11 -15 -20 -16 -20 -20 -20 -20 -20 -20 -20 -20 -20 -20 -20 -20 -20 -20 -7 2 -20 -11 -12 7 8 11 -12 -20 -20 -20 -20 -20 -16 18 18
-20 -20 -20 -20 -20 -20 -20 -20 -20 -20 -20 -20 -20 -20 -20 -20 -20 -20 -20 -20 -20 -20 -20 6 -12 -2 -11 -16 -20 -20 -20 -20 -20 -20 -20 -20 11 23
-20 -20 -0 -20 -20 -20 -20 -20 -20 -20 -20 -20 -2 -9 -20 -20 -20 -20 -20 -20 -20 -20 -2 -5 -16 -20 -20 -15 -20 -20 -20 -20 -20 -20 -20 -20 -8 11
11 -5 15 11 5 -20 -20 -20 -20 -20 -20 -20 -20 -17 -20 -20 -20 -20 -20 -20 -20 -20 -20 -20 -20 -19 -16 8 -20 -20 -20 -20 -20 -20 -9 -20 -20 7
6 -12 -0 17 -19 -20 -20 -20 -20 -20 -20 -20 -20 -20 -20 -20 -20 -20 -20 -20 -20 -20 -20 -20 -20 -20 -20 -20 -20 -20 -20 -20 -20 -20 -6 -3 -20 -20
10 -5 -20 -20 -5 -20 -20 -20 -20 -20 -20 -20 -20 -20 -20 -20 -20 -20 -20 -17 -5 -20 -20 -20 -20 -20 -20 -20 -20 -20 -20 -20 -20 -20 -20 -20 -20 -20
-20 -20 -20 -20 -20 -20 -20 -20 -20 -20 -20 -20 -20 -20 -20 -20 -20 -20 -20 -20 -20 -20 -20 -20 -20 -20 -20 -20 -20 -20 -20 -20 -20 -20 -20 -20 -20 -20
-20 -20 -20 -20 -20 -20 -20 -20 -20 -20 -20 -20 -20 -20 -20 -20 -20 -20 -20 -20 -20 -20 -20 -20 -20 -20 -20 -20 -20 -20 -20 -20 -20 -17 7 -1 -20 -20
-20 -20 -12 -20 -20 -2 -20 -20 -20 -20 -20 -20 -20 -20 -20 -20 -20 -20 -20 -20 -20 -20 -20 -20 -20 -20 -20 -20 -20 -20 -20 -20 -20 -20 -20 -20 -20 -20
-20 -20 -20 -20 -20 12 -18 -20 -20 -20 -20 -20 -20 -20 -20 -20 -20 -20 -20 -20 -20 -20 -20 -20 -20 -20 -20 -20 -20 -20 -20 -20 -20 -20 -20 -20 -20 -20
-20 -20 -20 -20 6 11 6 -20 -20 -20 -20 -20 -20 -20 -20 -20 -20 -20 -20 -20 -20 -20 -20 -20 -20 -20 -20 -20 -20 -20 -20 -20 -20 -20 -20 -20 -20 -20
16 7 2 -11 -17 9 8 -20 -20 -20 -20 -20 -20 -20 -20 -20 -20 -20 -20 -20 -20 -20 -20 -20 -20 -20 -20 -20 -20 -20 -20 -20 -20 -20 -20 -20 -20 -20
26 28 26 16 -17 7 -18 -2 -20 -20 -20 -20 -20 -20 -20 -20 -20 -20 -20 -20 -20 -20 -20 -20 -20 -20 -20 -20 -20 -20 -20 -20 -20 -20 -20 -20 -20 -20
32 23 9 10 -6 -20 -20 -20 -20 -20 -20 -20 -20 -20 -20 -20 -20 -20 -20 -20 -20 -20 -20 -20 -20 -20 -20 -20 -20 -20 -20 -20 -20 -20 -20 -20 -20 -20
25 33 29 17 19 -5 -20 -20 -20 -12 -20 -20 -20 -20 -20 -20 -20 -20 -20 -20 -20 -20 -20 -20 -20 -20 -20 -20 -20 -20 -20 -20 -20 -20 -20 -20 -20 -20
35 12 10 6 -20 -17 -20 -20 -20 -20 -20 -20 -20 -20 -20 -20 -20 -20 -20 -20 -20 -20 -20 -20 -20 -20 -20 -20 -20 -20 -20 -20 -20 -20 -20 -20 -20 -20
26 18 15 4 -6 -15 -7 -18 -19 -20 -20 -20 -20 -20 -20 -20 -20 -20 -20 -20 -20 -20 -20 -20 -20 -20 -20 -20 -20 -20 -20 -20 -20 -20 -20 -20 -20 -20
26 15 21 29 13 -16 18 16 15 -20 -20 -18 -20 -20 -20 -20 -20 -20 -20 -20 -20 -20 -14 -20 -20 -20 -20 -20 -20 -20 -20 -20 -20 -20 -20 -20 -20 -20
28 27 10 -4 19 12 25 31 4 -16 -20 -20 -20 -20 -20 -20 -20 -20 -20 -20 -20 -20 -20 -20 -20 -20 -20 -20 -20 -20 -20 -20 -20 -20 -20 -20 -20 -20
28 33 28 16 30 28 21 30 15 -14 -18 -20 -20 -20 -20 -20 -20 -16 -20 -20 -20 -20 -19 -13 4 -3 -20 -20 -20 -20 -20 -20 -20 -20 -20 -20 -20 -20

GFSNE_prec_radar_093.txt.gz
Reflectivity
16 18 -6 -18 14 27 28 29 22 13 8 -6 -18 -9 -20 -20 -20 -20 -19 -15 -3 4 -1 1 -16 -3 11 -4 -20 7 14 -13 -13 -20 -18 -1 7 -20
29 32 30 30 26 17 11 4 9 -13 -9 -8 -20 -20 -20 -20 -20 -20 -20 -20 -20 -17 -20 -20 -20 9 8 -20 -20 -20 -20 -20 -19 -1 8 14 6 7
23 20 28 27 9 -4 -3 22 21 12 -2 -20 -20 -20 -19 -20 -20 -20 -20 -20 -17 8 -11 -11 -7 -1 -9 2 -20 -20 -20 -18 13 11 10 -14 -2 -3
12 17 18 25 17 21 13 -14 -17 -20 -10 -20 -20 -20 -20 -20 -20 -20 -20 -20 -20 -3 -19 -13 -19 -20 -20 -20 -20 -4 -13 -20 -19 -19 -20 -20 -20 14
17 16 16 12 16 15 -16 -20 -17 -13 -18 -20 -20 -20 -20 -20 -20 -20 -20 -20 -20 12 2 3 -20 -20 -20 -10 -5 0 -20 -20 -20 -20 -20 -20 -20 12
13 9 24 20 -20 -20 -20 17 -17 -19 -20 -20 -20 -20 -20 -20 -20 -20 -20 -20 -20 -20 -20 -20 -20 -20 -19 -20 -20 -20 -20 -20 -20 -20 -20 -20 -20 3
15 14 7 20 -20 -20 -15 16 -20 -20 -20 -20 -20 -20 -20 -20 -20 -20 -20 -20 -20 -20 -20 -20 -20 -20 -18 5 -17 -20 -20 -20 -20 -20 -20 -20 -20 -15
-20 -6 -5 20 17 -2 15 16 20 12 -20 -20 -20 -20 -20 -20 -20 -20 -20 -20 -20 -20 -20 -20 -20 -20 -20 -20 -20 -20 -20 -20 -20 -20 -20 -20 -20 -20
-20 -19 -11 -11 13 5 13 14 -20 2 -20 -20 -20 -20 -20 -20 -20 -20 -20 -20 -20 -20 -20 -20 -20 -20 -20 -20 -20 -20 -20 -20 -20 -20 -20 -20 -20 -20
-10 -9 1 -20 -4 -3 -17 -20 -20 -20 -20 -20 -20 -20 -20 -20 -20 -20 -20 -20 -20 -20 -20 -20 -20 -20 -20 -20 -20 -20 -20 -20 -20 -20 -20 -20 -20 -20
-20 -20 -20 -9 20 8 -13 -20 -20 -20 -20 -20 -20 -20 -20 -20 -20 -20 -20 -20 -20 -20 -20 -20 -20 -20 -20 -20 -20 -20 -20 -20 -20 -20 3 2 -20 -20
-20 -20 -20 -20 -20 -20 -20 -20 -20 -20 -20 -20 -20 -20 -20 -20 -20 -20 -20 -20 -20 -20 -20 -20 -20 -20 -20 -20 -20 -20 -20 -20 -20 -20 -20 -20 -20 -20
-20 -20 -20 -20 -20 -20 -6 -20 -20 -20 -20 -20 -20 -20 -20 -20 -20 -20 -20 -20 -20 -20 -20 -20 -20 -20 -20 -20 -20 -20 -20 -20 -20 -20 -20 -20 -20 -20
-20 -20 -15 6 2 -15 -16 -19 -20 -20 -20 -20 -20 -20 -20 -20 -20 -20 -20 -20 -20 -20 -20 -20 -20 -20 -20 -20 -20 -20 -20 -20 -20 -20 -20 -20 -20 -20
-0 7 19 18 14 -7 -20 4 -20 -20 -20 -20 -20 -20 -20 -20 -20 -20 -20 -20 -20 -20 -20 -20 -20 -20 -20 -20 -20 -20 -20 -20 -20 -20 -20 -20 -20 -20
16 16 22 19 23 14 -5 -12 -20 -20 -20 -20 -20 -20 -20 -20 -20 -20 -20 -20 -20 -20 -20 -20 -20 -20 -20 -20 -20 -20 -20 -20 -20 -20 -20 -20 -20 -20
26 19 23 28 28 29 9 -5 -16 1 -20 -7 -20 -20 -20 -20 -20 -20 -20 -20 -20 -20 -20 -20 -20 -20 -20 -20 -20 -20 -20 -20 -20 -20 -20 -20 -20 -20
32 12 26 27 19 29 30 31 22 25 15 12 2 -20 -20 -20 -20 -20 -20 -20 -20 -20 -20 -20 -20 -20 -20 -20 -20 -20 -20 -20 -20 -20 -20 -20 -20 -20
34 23 7 18 28 29 21 21 11 -1 9 15 11 -3 0 -20 -20 -20 -20 -20 -20 -20 -20 -20 -20 -20 -20 -20 -20 -20 -20 -20 -20 -20 -20 -20 -20 -20
12 28 12 18 8 33 33 34 31 27 19 21 17 15 -5 -18 -20 -20 -20 -20 -20 -20 -20 -20 -20 -20 -20 -20 -20 -20 -20 -20 -20 -20 -20 -20 -20 -20
1 19 21 4 16 29 34 36 34 28 21 12 -9 -3 11 -0 -8 -18 -20 -20 -20 -20 -20 -20 -20 -20 -20 -20 -20 -20 -20 -20 -20 -20 -20 -20 -20 -20
11 16 10 22 5 30 31 36 34 32 28 15 -4 -20 -5 -2 -3 6 -14 -20 -20 -20 -20 -20 -20 -20 -20 -20 -20 -20 -20 -20 -20 -20 -20 -20 -20 -20
2 13 21 14 11 6 31 30 33 23 16 15 21 -2 -11 -0 -6 6 -18 -20 -20 -20 -20 -20 -20 -20 -20 -20 -20 -20 -20 -20 -20 -20 -20 -20 -20 -20

GFSNE_prec_radar_096.txt.gz
Reflectivity
23 25 17 -13 -20 -20 -17 -18 -11 6 26 28 2 -19 -20 -20 -20 -20 -20 -20 -20 -20 9 -20 11 10 -20 1 0 6 -20 -19 -1 -2 -6 -12 12 15
10 21 7 15 28 29 18 26 33 12 4 28 25 14 -16 -16 -20 -20 -20 -20 -20 -20 -17 -7 -16 -11 -20 -16 -1 6 -20 -20 -20 9 16 13 14 10
32 1 -2 26 33 31 27 6 28 6 -10 -8 -15 -19 -20 -20 -20 -20 -20 -20 -19 -13 -20 3 -20 -20 -14 -20 -20 -20 -20 -20 -20 14 9 15 9 9
31 32 25 22 20 23 -15 7 10 13 15 12 -4 -12 -20 -17 -12 -9 -7 -5 -20 -20 -20 2 -20 -9 -13 -11 -20 -20 -20 -20 -20 -20 -20 -20 -19 -9
6 -20 -9 31 20 3 3 -18 -1 29 7 4 3 -5 -16 -20 -20 -20 -20 -20 -20 -17 6 -17 -18 7 -20 -20 -20 -20 -20 -20 -20 -20 -20 -20 -20 -20
12 11 6 13 7 -3 34 19 23 23 -20 -20 -16 -14 -20 -20 -20 -20 -20 -20 -20 -20 7 -0 -20 -20 -20 -20 -20 -20 -20 -20 -20 -20 -20 -20 -20 -20
0 -6 -1 11 15 23 25 39 18 -20 -20 -20 -20 -20 -20 -20 -20 -20 -20 -20 -20 -20 -20 -20 -20 -20 -20 -20 -20 -6 -20 -20 -20 -20 -20 -20 -20 -20
-20 -1 12 14 5 -1 17 13 17 -20 -20 -20 -20 -20 -20 -20 -20 -20 -20 -20 -20 -20 -20 -20 -20 -20 -20 -20 -20 -20 -20 -20 -20 -20 -20 -20 -20 -20
-20 -20 -3 6 18 -12 -20 16 4 -2 28 13 -7 35 25 -20 -20 -20 -20 -20 -20 -20 -20 -20 -20 -20 -20 -20 -20 -20 -20 -20 -20 -20 -20 -20 -20 -20
-20 -20 -19 -5 5 11 -18 -5 1 -11 5 4 -13 -19 -5 -20 -20 -20 -20 -20 -20 -20 -20 -20 -20 -20 -20 -20 -20 -20 -20 -20 -20 -20 -20 -16 -20 -20
-20 -20 -20 -20 12 5 7 1 15 -5 19 1 12 -8 4 -20 -20 -20 -20 -20 -20 -20 -20 -20 -20 -20 -20 -20 -20 -20 -20 -20 -20 -20 -20 -0 -20 -20
-20 -20 -20 -2 -9 2 -12 -18 -18 -15 2 -20 1 7 -19 -20 -20 -20 -20 -20 -20 -20 -20 -20 -20 -20 -20 -20 -20 -20 -20 -20 -20 -20 -20 -20 -20 -20
-19 4 -17 14 15 13 10 -19 -4 5 -1 2 -20 -20 -20 -20 -20 -20 -20 -20 -20 -20 -20 -20 -20 -20 -20 -20 -20 -20 -20 -20 -20 -20 -20 -20 -20 -20
-8 -5 9 19 16 16 15 15 12 9 -16 -20 -20 -20 -20 -20 -20 -20 -20 -20 -20 -20 -20 -20 -20 -20 -20 -20 -20 -20 -20 -20 -20 -20 -20 -20 -20 -20
-1 14 17 26 23 17 14 11 15 -12 -20 -20 -20 -20 -20 -20 -20 -20 -20 -20 -20 -20 -20 -20 -20 -20 -20 -20 -20 -20 -20 -20 -20 -20 -20 -20 -20 -20
9 6 7 14 32 23 21 16 3 -20 -20 -20 -20 -20 -20 -20 -20 -20 -20 -20 -20 -20 -20 -20 -20 -20 -20 -20 -20 -20 -20 -20 -20 -20 -20 -20 -20 -20
18 8 10 9 26 26 20 17 9 -1 -20 -20 -20 -20 -20 -20 -20 -20 -20 -20 -20 -20 -20 -20 -20 -20 -20 -20 -20 -20 -20 -20 -20 -20 -20 -20 -20 -20
-1 9 1 7 6 28 34 14 28 29 16 -3 7 -0 -20 -20 -20 -20 -20 -20 -20 -20 -20 -20 -20 -20 -20 -20 -20 -20 -20 -20 -20 -20 -20 -20 -20 -20
11 -1 8 22 16 0 28 34 31 29 34 15 15 23 14 -10 -20 -20 -20 -20 -20 -20 -20 -20 -20 -20 -20 -20 -20 -20 -20 -20 -20 -20 -20 -20 -20 -20
0 -3 4 16 23 26 26 30 25 30 27 26 29 28 26 23 13 -16 -20 -19 -20 -20 -20 -20 -20 -20 -20 -20 -20 -20 -20 -20 -20 -20 -20 -20 -20 -20
-8 -7 2 21 12 18 20 25 27 30 34 28 25 18 13 10 -17 0 1 -1 6 -20 -20 -20 -17 -17 -20 -15 -20 -20 -20 -20 -20 -20 -20 -20 -20 -20
-17 5 -6 -6 19 20 16 14 23 26 34 35 15 17 14 6 6 16 16 -15 -17 -20 -20 3 -4 -12 -17 -6 -20 -20 -20 -20 -20 -20 -20 -20 -20 -20
-14 -13 4 2 8 20 14 25 21 29 29 32 23 16 7 -1 -20 -18 -19 -20 -6 -1 -20 -20 -20 -20 -5 -10 -20 -20 -20 -20 -20 -20 -20 -20 -20 -20

GFSNE_prec_radar_099.txt.gz
Reflectivity
29 25 18 17 20 20 16 33 20 13 -13 -20 -19 -12 -15 20 28 1 -15 -20 -20 -20 -20 -20 -20 -20 2 4 -20 -20 -20 3 -20 -18 6 15 12 -2
34 33 23 22 22 28 29 24 -7 18 3 19 15 2 30 28 15 2 -20 -20 -20 -20 -20 -20 -20 -20 -11 -7 -20 -20 -20 -20 -20 -20 9 15 17 6
34 34 17 20 24 5 -10 18 30 33 24 26 29 34 24 28 17 -18 -20 -15 -14 -20 -20 -20 -20 -20 -19 -20 -20 -20 -20 -20 -20 -20 -15 -15 -20 4
32 29 24 30 25 17 7 22 23 27 28 29 34 28 31 34 24 17 -3 -20 -20 -3 -14 -20 -20 -20 -20 -20 -20 -20 -2 -20 -20 -20 -20 -20 -20 -20
10 19 27 30 31 28 23 15 20 17 -14 -20 20 1 12 16 10 5 -4 -3 -13 -18 -17 -20 -20 -20 -20 -3 -20 -8 -9 -20 -20 -20 -20 -20 -20 -20
16 23 16 12 24 16 15 25 23 23 12 14 33 15 -2 10 20 -9 -20 -20 -20 -20 -20 -9 6 -3 -6 3 -20 -20 -20 -20 -20 -20 -20 -20 -20 -20
9 9 14 15 25 19 10 22 34 24 23 39 34 31 34 -20 -17 -14 -20 -20 -20 -20 -20 -20 -20 -20 -20 -20 -20 -0 2 -20 -20 -20 -20 -20 -20 -20
-14 -20 -10 11 12 19 20 14 4 -5 33 14 39 33 -13 -6 -20 -20 -20 -20 -20 -20 -20 -20 -20 -20 -20 -20 -20 -13 2 -20 -20 -20 -20 -20 -20 -20
-20 -20 -20 -20 -2 -18 13 12 18 17 22 3 38 28 -1 -2 8 -16 -16 -20 -20 -20 -20 -20 -20 -20 -20 -20 -12 -20 -20 -20 -20 -20 -20 -20 -17 -19
-20 -20 -20 -20 -12 -5 -20 -19 -16 8 7 14 17 18 4 18 27 31 33 12 -8 -20 -20 -20 -20 -20 -20 -20 -20 -20 -20 -20 -20 -20 -20 -15 -7 -20
-20 -20 -20 -20 8 11 -0 -7 15 7 16 27 25 37 22 25 28 24 7 -3 1 2 -20 -20 -20 -20 -20 -20 -20 -20 -20 -20 -20 -20 -20 -15 -20 -20
-20 -20 -13 2 -18 6 1 -3 -13 -13 15 -7 0 10 -3 26 -3 -14 -9 -15 -20 -20 -20 -20 -20 -20 -20 -20 -20 -20 -20 -20 -20 -20 -19 -20 -20 -20
-10 -20 -20 -20 4 11 15 -3 -1 15 3 19 -14 3 -2 -6 -20 -20 -17 -20 -20 -20 -20 -20 -20 -20 -20 -20 -20 -20 -20 -20 -20 -14 -20 -20 -20 -20
12 4 6 -3 -14 -10 15 14 22 11 22 6 -9 -19 -17 -13 -20 -20 -20 -20 -20 -20 -20 -20 -20 -20 -20 -20 -20 -20 -20 -20 -20 -20 -20 -20 -20 -20
-3 19 17 7 -10 -20 9 14 26 18 14 -6 6 6 23 16 -20 -20 -20 -20 -20 -20 -20 -20 -20 -20 -20 -20 -20 -20 -20 -20 -20 -20 -20 -20 -20 -20
-20 -13 13 16 15 11 7 14 14 29 14 -12 -16 -15 -13 -20 -20 -20 -20 -20 -20 -20 -20 -20 -20 -20 -20 -20 -20 -20 -20 -20 -20 -20 -20 -20 -20 -20
9 -18 -20 6 11 1 11 -7 26 27 13 12 -1 -20 -19 -20 -20 -20 -20 -20 -20 -20 -20 -20 -20 -20 -20 -20 -20 -20 -20 -20 -20 -20 -20 -20 -20 -20
-0 -7 -17 -2 21 23 15 19 5 12 34 32 -4 25 0 -20 -20 -20 -20 -20 -20 -20 -20 -20 -20 -20 -20 -20 -20 -20 -20 -20 -20 -20 -20 -20 -20 -20
-17 -4 -5 5 -4 25 25 23 17 11 25 37 29 22 24 15 12 3 -18 -20 -17 -19 -20 -20 -20 -20 -20 -20 -20 -20 -20 -20 -20 -20 -20 -20 -20 -20
9 -5 2 -14 1 13 26 29 29 26 30 32 23 23 24 21 24 23 9 8 4 7 -20 -20 -20 -20 -20 -20 -20 -20 -20 -20 -20 -20 -20 -20 -20 -20
-11 0 -0 -4 8 17 21 29 31 22 24 26 22 20 22 22 20 20 26 20 8 -11 -20 -20 -9 -17 -20 -20 -20 -20 -20 -20 -20 -20 -20 -20 -20 -20
-15 -15 -20 1 -1 20 12 26 28 31 23 8 18 12 23 20 -0 2 17 19 18 17 -19 14 4 -20 -20 -20 -20 -20 -20 -20 -20 -20 -20 -20 -20 -20
-18 -20 -20 -4 6 -3 5 21 28 21 24 15 14 19 20 22 24 23 22 11 -11 -8 15 17 -20 -20 -20 -18 2 -20 -20 -20 -20 -20 -20 -20 -20 -20

GFSNE_prec_radar_102.txt.gz
Reflectivity
19 -1 1 8 20 14 23 29 27 22 8 -20 -20 -7 -1 12 -20 -9 13 23 20 21 -15 -20 -11 5 -13 -20 -20 -20 -20 -20 -20 -20 -20 -20 1 0
25 20 17 23 26 18 25 31 26 25 15 -0 -5 -10 -13 -5 18 25 33 28 17 11 -10 -20 -20 -20 -20 -20 -20 -20 -20 -20 -20 -20 -20 -17 -20 -20
34 24 25 18 28 33 31 30 25 24 24 22 26 9 22 24 23 28 25 14 26 17 13 -3 -10 -20 -20 -20 -20 -20 -20 -20 -20 -20 -20 -20 -20 -20
29 25 22 27 33 33 30 29 22 20 23 27 20 27 21 9 27 30 26 30 26 19 14 1 -20 -20 -20 -20 -20 -20 -20 -20 -20 -20 -20 -20 -20 -20
35 32 24 32 32 30 38 26 24 27 33 21 25 26 24 21 25 28 33 26 24 20 -17 -1 -20 -20 -20 -20 -20 -20 -20 -20 -20 -20 -20 -20 -20 -20
18 24 20 36 38 33 31 31 30 33 30 22 23 13 -2 -8 18 21 27 10 12 -2 -20 -18 -20 -17 6 9 1 -20 -20 -20 -20 -20 -20 -20 -20 -20
-10 -8 0 9 18 21 21 10 10 26 35 26 32 25 15 21 22 23 11 4 21 -19 -20 -20 -20 -20 -15 10 11 5 -20 -20 -20 -20 -20 -20 -20 -20
-8 -2 -8 -19 -13 3 1 20 17 6 5 28 23 35 36 25 36 33 31 33 17 -20 -20 -20 -20 -20 -20 -20 -0 -2 -20 -20 -20 -20 -20 -20 -20 -20
-20 -20 -20 -17 -20 -20 -19 -7 6 21 20 12 6 21 6 12 13 34 36 29 21 -5 -20 -20 -20 -20 -20 -20 -20 -20 -20 -20 -20 -20 -20 -20 -20 -20
-20 -20 -20 -20 -20 -20 -20 -20 -20 -20 -6 13 17 7 16 18 25 16 29 33 26 8 -2 -17 -20 -20 -20 -20 -20 -20 -20 -20 -20 -20 -20 -20 -20 -16
-20 -20 -20 -20 -20 -20 -20 -20 -20 -20 6 14 10 23 25 18 29 15 32 28 27 36 29 -6 -20 -5 -19 -18 -20 -20 -20 -20 -20 -20 -20 -20 -20 -20
-20 -19 13 -18 8 -20 -12 -20 -14 -5 -20 -18 -1 -4 -2 29 14 36 13 34 34 34 14 14 9 8 0 -19 -20 -20 -20 -20 -20 -20 -20 -20 -20 -20
-17 -8 -6 9 9 12 16 -2 -20 -20 3 4 9 2 24 -7 24 31 21 35 27 16 -4 1 15 14 4 -20 -20 -20 -20 -20 -20 -20 -20 -20 -20 -20
-20 -12 -1 -13 10 0 12 17 18 -1 1 14 18 27 24 12 12 24 -1 14 -11 -19 -20 -20 -20 -19 -20 -20 -20 -20 -20 -20 -20 -20 -20 -20 -20 -20
-10 5 10 -20 -20 -7 3 16 25 18 4 24 12 8 14 -19 16 13 4 -20 -20 -20 -17 -20 -20 -20 -20 -20 -20 -20 -20 -20 -20 -20 -20 -20 -20 -20
-7 -19 4 1 -20 -19 4 10 21 15 8 20 28 28 18 35 22 -6 -18 -20 -20 -20 -15 -16 -20 -20 -20 -20 -20 -20 -20 -20 -20 -20 -20 -20 -20 -20
9 5 1 -20 -20 -20 -18 -5 26 27 23 14 20 23 36 24 28 18 26 25 -12 0 -20 -20 -20 -20 -20 -20 -20 -20 -20 -20 -20 -20 -20 -20 -20 -20
5 -9 -16 -12 -4 -14 -6 4 16 29 27 17 23 25 34 17 2 -12 7 19 8 -7 -20 -20 -20 -20 -20 -20 -20 -20 -20 -20 -20 -20 -20 -20 -20 -20
-20 -1 6 9 -19 -20 2 15 15 20 32 28 22 20 14 20 27 1 11 4 -20 -20 -20 -20 -20 -20 -20 -20 -20 -20 -20 -20 -20 -20 -20 -20 -20 -20
-4 2 -9 1 -7 -2 -5 4 23 29 25 29 31 16 19 22 23 23 12 11 19 4 4 -20 -20 -17 -14 -20 -20 -20 -20 -20 -20 -20 -20 -20 -20 -20
-5 -11 6 -2 4 -16 0 -3 23 24 30 20 20 5 16 17 23 9 19 11 20 19 -6 -20 8 15 7 -20 -20 -20 -20 -20 -20 -20 -20 -20 -20 -20
-20 -19 -2 -18 -20 -20 8 -1 14 20 23 22 23 17 16 17 13 18 27 23 13 13 20 19 17 6 -20 -20 -20 -20 -20 -20 -20 -20 -20 -20 -20 -20
-20 -20 -20 -20 -20 -6 -2 7 -0 5 19 28 30 22 16 11 9 11 16 12 16 26 24 22 19 -6 -20 -20 -20 -20 -20 -20 -20 -20 -20 -20 -20 -20

GFSNE_prec_radar_105.txt.gz
Reflectivity
25 32 31 30 31 28 27 31 30 16 -13 1 22 27 23 29 25 22 -19 8 24 -1 -10 18 6 9 6 -3 -18 -20 -20 -20 -20 -20 -20 -20 -20 -20
25 20 25 30 27 27 30 31 28 23 -5 15 6 18 29 28 28 15 11 -11 13 21 15 24 7 6 -1 -4 -20 -20 -20 -20 -20 -20 -20 -20 -20 -20
22 37 35 32 27 29 27 14 16 -6 -0 19 -12 -3 -4 20 21 28 23 10 10 27 20 14 11 7 4 -15 -18 -8 -20 -20 -20 -20 -20 -20 -20 -20
27 25 29 32 35 32 32 27 25 20 30 26 16 6 -16 1 -3 9 33 30 29 24 22 8 25 3 -12 -20 -5 -20 -20 -20 -20 -20 -20 -20 -20 -20
23 27 19 30 32 31 30 32 19 30 33 33 30 19 11 9 16 26 27 31 27 28 22 27 23 15 -20 -20 -18 -18 -11 -20 -20 -20 -20 -20 -20 -20
11 5 3 22 20 23 22 24 27 33 33 30 32 19 10 13 25 26 27 22 22 25 22 19 19 -16 -20 -15 -19 -20 -20 -20 -20 -20 -20 -20 -20 -20
-14 -15 -12 -15 7 8 4 14 24 29 30 34 31 31 21 13 21 10 26 24 24 21 17 14 0 -16 -3 1 -1 9 -20 -20 -20 -20 -20 -20 -20 -20
-20 -20 -20 -20 -20 -20 -17 -12 2 15 18 17 22 20 27 30 31 29 19 35 33 27 25 19 -15 -20 -20 -20 14 9 -5 -20 -20 -20 -20 -20 -20 -20
-20 -20 -20 -20 -20 -20 -20 -20 -20 -17 15 11 20 -5 6 12 21 33 25 30 34 20 33 34 29 -18 -20 -17 11 13 10 -8 -20 -20 -20 -20 -20 -20
-20 -20 -20 -20 -6 -10 -20 -20 -20 -20 -20 -15 24 9 3 -4 3 22 31 26 23 19 26 27 21 21 13 -12 13 -8 -17 -20 -20 -20 -20 -20 -20 -20
-20 -20 -20 -20 -20 -19 -5 -0 -20 -20 -20 -20 -20 18 27 12 19 12 18 16 34 35 21 14 21 27 14 -1 -11 5 5 -19 -20 -20 -20 -20 -20 -20
-20 -20 -20 -10 2 7 10 3 -20 -20 -20 -20 -20 -20 0 9 22 9 21 3 1 12 18 23 33 35 8 -19 -20 -20 -19 -20 -20 -20 -20 -20 -20 -20
-20 -20 -20 -20 -14 3 4 7 9 8 -1 -20 -20 -18 -19 3 12 5 -4 20 6 22 23 27 35 35 26 14 8 -2 -3 -12 -20 -20 -20 -20 -20 -20
-20 -20 -20 -3 1 10 1 -19 -10 8 7 -2 -16 -18 17 24 17 11 4 -2 7 11 7 31 23 12 -1 8 4 7 -10 -20 -20 -18 -20 -20 -20 -20
-17 -4 3 -3 -1 -11 -8 -0 -20 5 -8 16 15 11 -9 17 8 23 26 33 2 6 28 20 4 5 -20 -20 -20 -18 -18 -20 -20 -20 -20 -20 -20 -20
-16 -20 -5 5 -17 -4 -16 -9 10 3 16 18 6 25 6 13 32 36 34 2 34 4 8 11 -2 -20 -20 -20 -20 -20 -20 -20 -20 -20 -20 -20 -20 -20
17 -20 -15 3 -20 -7 6 9 4 -9 23 -3 21 25 30 23 24 37 39 39 30 28 34 26 -10 -20 -20 -20 -20 -20 -20 -20 -20 -20 -20 -20 -20 -20
14 -9 -20 -20 3 -8 -17 4 -12 11 21 14 13 22 28 30 22 34 37 34 36 15 15 3 -19 -20 -20 -20 -20 -20 -20 -20 -20 -20 -20 -20 -20 -20
-8 -20 -20 -20 3 10 8 -7 4 6 25 16 21 10 20 31 32 14 18 37 26 27 28 16 14 9 -20 -20 -20 -20 -20 -20 -20 -20 -20 -20 -20 -20
-20 -20 -20 -20 -20 12 7 -19 1 1 17 26 21 24 25 25 24 18 14 22 25 27 24 31 31 20 -7 -7 -6 -20 -20 -20 -20 -20 -20 -20 -20 -20
-20 -20 -20 -0 7 6 -20 -9 2 5 9 26 23 21 17 17 13 17 10 11 13 23 17 19 24 24 16 17 -15 -20 -20 -20 -20 -20 -20 -20 -20 -20
-7 1 -1 3 1 -17 -20 3 -12 9 3 -4 6 24 11 15 18 18 14 -3 11 11 -0 13 18 9 9 -17 -15 -16 -14 -19 -20 -20 -20 -20 -20 -20
2 4 5 6 -20 -20 -20 1 7 3 6 11 18 16 4 12 9 19 12 6 5 15 5 16 20 18 -8 9 11 4 -5 -20 -20 -20 -20 -20 -20 -20

GFSNE_prec_radar_108.txt.gz
Reflectivity
25 8 29 6 11 11 3 27 29 26 28 15 -5 11 12 -2 7 22 21 21 24 27 -6 -12 6 15 15 -12 19 -15 -15 -20 -20 -20 -20 -20 -20 -20
19 29 30 21 15 27 31 29 28 29 21 4 4 5 15 11 6 13 24 27 22 0 10 -20 -7 15 10 11 23 -4 -20 -20 -12 -20 -20 -20 -20 -20
13 -3 8 14 33 33 32 28 24 26 29 16 6 8 28 20 20 24 30 19 24 13 -1 4 7 22 18 11 9 -19 2 -16 -12 -7 -20 -20 -16 -20
16 16 12 24 26 26 29 25 24 26 29 30 19 23 19 17 12 18 14 6 5 13 22 20 21 19 22 16 -10 8 -17 -20 -11 -20 -20 -18 -13 -19
0 9 20 21 22 27 28 22 31 32 26 27 25 16 -1 12 24 24 22 12 -17 27 24 26 26 23 19 16 24 8 -20 -20 -20 -20 -20 -20 -20 -20
-12 6 8 7 17 8 4 22 20 23 26 26 22 22 15 1 25 20 17 12 15 21 29 26 31 30 27 24 16 -16 -20 -20 -20 -20 -20 -20 -20 -20
-20 -11 -20 -20 -15 -18 -3 -6 -18 -2 -3 15 20 24 22 21 22 22 20 1 20 24 23 24 27 24 13 8 -10 -20 -20 -20 -20 -20 -20 -20 -20 -20
-20 -20 -20 -20 -20 -20 -20 -20 -2 1 -13 -18 17 7 -1 8 -0 12 25 21 18 13 9 7 13 6 -7 8 -20 -20 -20 -7 -20 -20 -20 -20 -20 -20
-20 -20 -20 -20 -20 -20 -20 -20 -19 -14 -1 2 -20 -4 15 -4 9 23 13 11 19 21 25 21 26 21 20 2 -13 -12 -20 -20 -20 -20 -20 -20 -20 -20
-20 -20 -20 -20 -20 -20 -20 -20 -20 -20 -16 -19 3 -1 6 11 -2 5 10 32 29 27 30 20 21 15 17 23 0 -20 -20 -5 -10 -20 -20 -20 -20 -20
-20 -20 -20 -20 -20 -20 -18 2 -6 -20 2 4 -16 -19 -20 -16 20 9 6 30 22 26 6 24 7 20 24 25 29 -2 -3 11 8 -18 -20 -20 -20 -20
-20 -20 -20 -20 -20 -20 -20 -20 -3 -14 -3 -18 2 -19 2 -16 -19 10 13 11 19 32 27 14 15 12 28 32 30 17 9 12 22 -1 -20 -20 -20 -20
-20 -20 -20 -20 -20 -1 1 -14 -8 3 -6 0 4 7 -7 -20 -8 -20 12 17 15 28 -2 -11 15 17 22 15 21 30 7 15 7 -14 -20 -20 -20 -20
-20 -20 -20 -20 -20 -13 -9 -20 -20 -14 1 3 -4 2 -20 -20 -20 -20 -3 11 1 -3 33 14 10 -8 -13 1 12 30 28 13 -9 -13 -20 -20 -20 -20
-4 4 4 5 1 -20 -20 -20 -10 -1 7 12 -5 5 2 -5 -20 -9 7 23 12 35 12 6 18 11 27 36 27 19 28 22 5 -12 -20 -20 -20 -20
8 8 -2 12 -4 -3 -20 -18 2 10 11 -0 9 3 20 7 -14 4 20 21 16 13 29 35 25 20 23 24 10 3 17 7 4 -1 -19 -20 -20 -20
15 4 8 13 -12 -20 -18 -10 1 10 13 6 5 -1 8 13 -12 8 23 22 23 32 26 35 25 31 32 26 12 5 -13 -20 -20 -8 -20 -20 -20 -20
12 13 17 10 -20 -20 -6 2 6 0 2 -17 1 -2 26 13 -4 11 22 27 25 31 33 33 39 25 20 25 32 19 -20 -20 -20 -20 -20 -20 -20 -20
15 13 11 4 -20 0 5 6 10 -13 -14 10 -10 3 21 24 26 26 35 32 35 14 19 28 22 37 25 26 29 21 -3 -20 -20 -20 -20 -20 -20 -20
12 10 11 8 -3 2 7 10 10 5 -3 3 7 -6 26 27 14 25 29 30 24 18 13 25 28 38 37 26 25 9 -8 -4 -20 -19 -20 -20 -20 -20
10 9 7 6 4 6 6 14 8 8 7 5 -0 -2 19 23 22 -0 -10 28 18 18 25 13 17 33 25 28 32 26 17 2 -20 -20 -20 -20 -20 -20
3 6 2 6 5 6 10 10 8 9 6 9 7 6 12 30 23 25 11 18 18 10 16 23 22 23 19 29 16 19 8 -7 -10 -20 -20 -20 -20 -20
5 8 7 6 6 8 10 11 8 7 6 6 9 5 5 -2 2 21 24 23 24 17 24 23 26 27 22 20 21 21 18 17 12 9 -2 -20 -19 -20

GFSNE_prec_radar_111.txt.gz
Reflectivity
14 16 7 28 22 13 16 29 17 14 19 -1 3 26 14 25 7 -20 -20 -20 -20 7 -7 -20 12 16 20 21 21 27 25 11 16 -19 -20 -20 -20 -20
-7 16 -3 -20 17 22 19 18 7 20 23 18 18 25 22 26 26 -20 -20 -3 -20 -20 4 3 16 12 18 12 21 19 15 -3 18 4 -20 -20 -20 -20
12 8 20 -13 -20 14 23 24 31 28 32 24 27 11 24 17 28 27 14 -4 5 -6 -8 4 11 -8 4 -9 16 21 19 20 14 3 -20 -20 -20 -20
18 23 13 16 26 16 11 13 26 25 33 31 5 17 26 23 22 28 26 21 17 2 19 23 17 -18 -19 -9 20 23 23 19 19 -0 -14 -20 -20 -20
-6 -9 9 -4 2 21 26 22 30 25 31 31 32 24 33 3 19 23 19 6 10 23 14 21 23 6 -13 23 26 24 24 23 13 7 -18 -20 -20 -20
-20 -20 -20 -20 -20 -10 2 -1 20 22 25 25 25 23 27 12 23 14 24 7 -9 -17 13 20 18 19 23 28 24 26 28 22 22 -1 -20 -20 -20 -20
-20 -20 -5 -20 -20 -0 12 16 -2 -1 -5 -12 -15 -8 -1 -19 -5 17 10 7 -3 -10 -17 7 13 17 15 20 22 24 28 21 13 -15 -20 -20 -20 -20
-20 -20 -20 -19 -20 -16 -20 -4 -18 -20 -3 5 -5 11 -5 -19 -6 18 17 9 1 -7 -13 -1 9 20 11 8 19 19 20 18 17 -20 -20 -20 -20 -20
-20 -20 -20 -20 -20 -20 -20 -20 -20 -20 -20 -20 1 6 12 2 1 -1 5 7 -9 -2 4 6 -2 8 -0 3 17 14 11 13 -14 -20 -20 -20 -20 -20
-20 -20 -20 -20 -20 -20 -20 -20 -20 -20 -20 -20 -19 -20 1 12 -14 3 15 8 1 15 15 21 6 -1 4 6 21 15 20 3 -20 -20 -20 -20 -20 -20
-20 -20 -20 -20 -20 -20 -20 -20 -20 -20 -20 -20 -20 -20 3 0 -7 5 -19 17 15 -1 -1 18 19 18 5 10 -0 16 11 14 -1 3 -6 -20 -20 -20
-20 -20 -20 -20 -20 -14 -11 -20 -20 -20 -20 -20 -20 -20 -20 -20 -20 -20 8 0 13 10 -5 16 20 20 28 23 21 20 13 18 17 -8 -18 5 8 -1
-20 -20 -20 -20 -20 -18 1 -10 -20 -15 -20 -20 -20 -20 -20 -20 -20 -7 -7 -0 13 21 6 4 1 30 30 27 14 23 22 18 20 23 -20 -17 -0 11
-20 -20 -20 -20 -20 1 4 1 -3 -13 -20 -20 -5 2 -19 -20 -20 -18 -9 -18 6 25 25 15 8 17 23 31 33 25 20 23 26 26 6 -16 -15 -20
-20 -20 -2 -20 -20 -20 -20 -20 -20 -20 -7 -20 -20 -19 -15 3 1 -12 -12 -6 -12 7 22 28 6 18 15 33 30 20 15 24 23 26 18 -20 -6 -20
-8 5 5 6 -3 -17 -9 -20 -20 -20 -6 5 4 7 -8 -5 4 -20 -10 -2 10 -3 -5 26 22 8 23 26 25 13 21 30 12 29 30 -1 7 -20
10 2 4 -20 -6 2 -20 -20 -20 -20 -19 5 -14 -20 -17 -20 -19 1 -1 12 7 6 -17 19 8 27 25 21 14 16 25 25 17 34 33 26 -2 -19
8 1 -20 -12 5 -20 -20 -20 -20 -14 -20 2 -20 -5 7 -5 -10 6 16 22 18 3 6 6 27 20 24 28 25 22 32 31 35 32 27 18 -4 5
10 7 12 13 7 -20 -20 -20 -20 -17 2 -17 1 -14 -3 -0 7 -5 -0 12 -7 14 19 -13 26 17 19 21 21 31 25 26 26 28 23 4 7 11
11 8 5 7 5 -20 -18 -1 0 -20 10 -18 -8 -3 7 8 -1 14 10 20 -3 23 7 -16 18 38 31 15 13 29 27 29 25 20 15 11 12 14
-11 -16 -4 -1 3 -4 5 6 -2 7 -10 -1 -7 7 8 7 -2 17 25 19 12 22 15 12 19 33 29 22 25 26 28 40 35 22 -1 -12 -20 -20
2 6 -0 3 7 1 7 7 -3 -2 -2 -7 -10 -17 -3 5 -7 14 19 7 5 12 24 12 18 20 26 25 26 23 27 29 39 38 20 0 -20 -20
4 5 -5 4 6 7 6 7 2 1 0 8 0 -8 10 -2 3 11 3 4 11 7 20 21 21 20 15 21 21 21 23 19 26 25 23 3 2 -10

GFSNE_prec_radar_114.txt.gz
Reflectivity
-7 7 10 -2 -10 14 5 14 43 32 21 -5 10 -20 -20 -17 25 9 32 31 17 -14 -20 -20 -20 4 -20 -17 8 -19 17 23 31 41 24 -20 -18 -20
-19 1 24 -0 -2 -7 6 6 11 23 16 23 5 -17 -20 -20 22 22 12 28 29 19 -19 -20 -20 -12 -20 -20 -13 9 17 5 -8 17 9 -7 -16 -20
4 9 -17 20 1 25 20 30 23 5 13 7 -10 20 23 16 20 28 19 12 24 30 9 13 28 3 -16 -20 -11 10 4 4 -8 18 27 18 -20 -20
11 8 19 4 -3 15 9 11 7 19 18 9 -14 13 23 24 16 19 18 26 27 28 24 23 17 12 -1 -20 -18 0 8 1 -16 13 20 21 1 -10
-19 10 28 29 28 23 11 23 22 6 27 18 12 28 29 25 36 33 34 31 29 29 30 27 19 20 12 16 -5 -18 2 -5 -19 14 27 14 6 -20
-14 -9 3 -7 -18 5 15 -4 -5 2 5 5 8 19 32 32 36 33 27 27 23 19 27 28 24 5 5 8 20 20 14 -5 13 28 19 18 -8 -20
-16 -6 0 -3 -20 -20 -20 -20 -16 -15 9 -7 1 -7 -6 1 26 31 16 12 -8 9 -6 16 24 15 -1 10 13 19 21 22 34 27 22 12 -20 -0
-12 -20 -20 -20 -20 -20 -20 -20 -20 -20 -20 -5 5 10 10 11 8 5 6 8 -11 8 -12 -13 -20 -20 -16 -19 17 23 25 28 26 25 21 14 3 6
-20 -20 -20 -20 -20 -20 -20 -20 -20 -20 -20 -20 -20 -18 -0 1 -11 2 3 -3 9 0 2 -1 -20 -16 7 9 21 23 24 24 19 19 19 26 23 -14
-20 -20 -20 -20 -20 -20 -20 -20 -20 -20 -20 -20 -20 -20 -20 -20 -20 -15 1 -19 -3 -10 -10 4 -8 -10 0 12 22 15 10 -14 4 6 9 11 5 -20
-20 -20 -20 -20 -20 -20 -20 -20 -20 -20 -20 -20 -20 -20 -20 -20 -20 -20 -20 -1 -5 -12 -20 -1 -2 0 12 2 10 19 -20 12 12 -5 2 2 -13 -16
-20 -20 -20 -20 -20 -6 2 -3 -18 -20 -20 -20 -20 -20 -20 -20 -20 -20 -6 8 5 -9 -11 8 -5 -8 6 17 10 19 17 23 21 19 8 4 -20 -20
-20 -20 -20 -20 -20 2 7 9 7 6 -13 -20 -20 -20 -20 -20 -20 -20 -17 -20 -8 9 12 2 7 19 -16 6 5 22 23 26 22 18 13 -3 9 -16
-20 -20 -20 -20 7 10 6 -20 -0 11 -20 -20 -20 -20 -20 -20 -20 -20 -20 -20 -17 -1 -1 12 6 12 5 -1 -5 20 25 20 27 27 20 12 15 1
-3 0 9 11 11 2 -20 -20 9 -20 -20 -20 -20 -20 -20 -20 -20 -20 -20 -20 -20 -20 -17 -19 2 2 7 17 12 1 26 24 22 30 27 25 17 10
-20 -20 10 5 2 -20 -20 -20 -20 -20 -20 -20 -20 -20 -20 -20 -20 -17 -8 -12 -8 -3 -20 -20 -20 -14 3 15 13 -8 19 23 21 22 26 28 23 12
1 -15 -20 -20 -20 -20 -20 -20 -20 -20 -20 -20 -20 -20 -20 -20 -20 -20 3 -10 -7 4 -4 -20 -20 16 5 23 22 3 23 17 17 17 28 28 23 11
-5 -17 -18 -20 -20 -16 5 -18 -20 -20 -20 -20 -20 -20 -18 -20 -20 -16 8 5 -4 -7 16 -5 6 -2 1 13 26 22 10 16 23 20 24 21 26 18
-18 3 -4 -8 -5 4 8 -16 -20 -20 -20 -20 -20 -8 -20 -20 5 -14 -20 -2 2 -1 6 1 7 -4 -11 3 -7 10 -7 -1 23 21 26 35 26 18
-20 -20 -20 -20 -20 -13 -20 -20 -20 -20 -20 -20 -20 -15 3 2 -11 4 1 -14 3 -1 -16 2 -1 18 23 -11 -8 3 17 23 4 18 27 27 30 24
-14 -20 -20 -20 -20 -20 -20 -17 -12 -9 -12 -1 -1 0 -1 -9 -20 -17 -5 1 18 14 4 -20 -14 22 23 8 21 -7 7 26 10 26 22 17 18 26
-20 -3 4 3 -4 -8 -4 -3 5 -3 -7 -20 -9 -12 0 -20 -16 -5 -20 -0 9 10 5 -3 15 19 8 -7 -9 -11 -1 13 32 37 31 26 31 21
-20 -20 -20 -20 -20 -20 -20 -20 -20 -20 -20 -20 -20 -17 -20 -5 -2 -20 -18 5 3 -3 -2 14 21 21 18 1 -6 23 18 17 20 25 26 39 39 34

GFSNE_prec_radar_117.txt.gz
Reflectivity
-20 1 11 15 -5 -17 20 14 23 5 3 18 -13 -13 -6 -13 -16 -15 -17 -20 -17 -6 24 16 28 31 -14 -19 -20 -17 -17 -20 29 -13 5 18 30 39
-20 -20 -17 16 -20 12 10 -9 7 19 6 -4 4 3 -3 3 13 -1 -20 -8 17 28 17 25 25 27 8 15 12 13 8 28 28 18 -1 19 22 29
-14 -20 -12 -17 -20 12 -9 7 6 12 7 -15 4 19 5 -8 1 -5 1 4 11 18 15 9 19 21 16 19 29 21 16 22 -2 -4 22 22 19 16
-19 -20 -19 -0 -5 8 25 -7 19 4 -6 19 -19 -7 -5 20 5 -2 24 26 34 33 18 15 13 16 23 27 24 29 23 18 -20 5 -1 19 4 15
-20 -20 -18 -20 -20 -20 -6 4 21 18 -6 4 -17 -1 12 16 28 21 -2 23 16 31 36 24 24 28 23 20 29 27 23 12 -20 -12 18 23 17 10
-20 -20 -11 21 -9 -20 -20 8 14 21 31 23 2 4 6 -20 -12 5 13 24 22 12 25 26 26 32 27 35 22 23 25 24 7 11 17 26 20 20
-11 -3 -11 -17 -15 -20 -20 -7 -7 -11 -20 -16 10 1 -20 -2 -1 -17 -20 22 32 33 34 26 33 29 19 21 13 11 -12 -13 23 25 23 23 24 27
-20 -20 -20 -14 -11 -9 8 2 -20 -20 -1 -20 -20 -20 -20 -20 -12 -11 -20 -20 7 16 29 11 14 4 0 -16 24 25 16 -11 -3 15 25 28 29 33
-20 -20 -20 -20 -20 -20 -20 -20 -20 -20 -20 -20 -20 -20 -20 -20 -20 -20 -19 1 -2 1 -9 -7 -2 -12 4 -16 -13 -13 -20 -20 6 21 31 31 32 33
-20 -20 -20 -20 -20 -20 -20 -20 -20 -20 -20 -20 -20 -20 -20 -20 -20 -20 -17 -20 -7 -19 2 13 -1 -13 -20 -14 2 4 -3 10 18 20 29 28 30 31
-19 -20 -20 -20 -20 -20 -20 -20 -20 -20 -20 -20 -20 -20 -20 -20 -20 -20 -20 -8 -17 -18 -0 6 -11 -20 -20 -20 -20 -19 16 16 22 27 26 25 16 18
-20 -20 -19 -20 -20 -16 1 -15 -0 -20 -20 -20 -20 -20 -20 -20 -20 -20 -4 8 -5 -20 -20 0 -4 11 1 -20 -20 -20 -16 17 15 22 21 19 17 9
-7 -20 -20 -20 3 7 -0 9 -2 -10 1 -20 -20 -20 -20 -20 -20 -20 -20 -20 -13 -6 -10 -19 4 -3 -1 14 -14 -17 -6 12 14 18 25 23 16 9
-20 -20 -20 -11 6 11 12 13 12 12 -20 -20 -20 -20 -20 -20 -20 -20 -20 -20 -20 -20 -20 -20 -8 -20 -13 -2 -3 -19 -13 5 19 23 21 26 19 19
-4 -15 2 5 9 9 -20 -20 2 -20 -20 -20 -20 -20 -20 -20 -20 -20 -20 -20 -20 -20 -18 -8 -14 -20 -8 -20 -6 5 10 4 11 26 19 21 19 15
-20 -18 4 7 2 -20 -20 -20 -20 -20 -20 -20 -20 -20 -20 -20 -20 -20 -20 -20 -8 -20 -20 -20 -14 -2 -18 -18 5 3 2 2 -2 3 14 18 21 17
6 -9 -20 -20 -20 -20 -20 -20 -20 -20 -20 -20 -20 -20 -20 -20 -20 -20 -20 -20 -7 -2 -4 -20 -16 -8 2 -13 5 7 3 -5 1 9 17 27 20 18
-13 -20 -20 -4 -2 -14 -8 1 -20 -20 -20 -20 -20 -20 -20 -20 -20 -20 -2 -20 -20 -20 -10 -12 -11 -8 10 0 0 -9 6 20 -2 5 12 29 25 18
-20 -20 -20 -20 -20 -20 -20 -20 -20 -20 -20 -5 -19 -20 -20 -20 -19 -20 -20 -20 -3 -0 -16 -8 8 -9 7 1 -20 -20 3 15 7 -0 12 17 18 9
-20 -20 -20 -20 -20 -20 -20 -20 -20 -20 -20 -20 -20 -20 -20 -20 -20 -20 -20 -20 -20 -20 -4 -1 5 -4 9 -15 -19 -13 -20 10 11 5 22 19 24 25
-20 -20 -20 -20 -11 -20 -20 -20 -20 -20 -20 -8 -19 -20 -20 -20 -20 -20 -20 3 8 -20 -20 -20 -17 7 15 20 20 6 -20 13 16 -15 3 18 13 14
-20 -20 -20 -20 -20 -20 -20 -20 -10 -18 -20 -20 -20 -20 -20 -20 -20 -20 -20 -20 -20 -20 -20 -20 -8 3 4 4 -17 1 -20 -15 18 25 19 14 9 15
-20 -20 -20 -20 -20 -20 -20 -20 -20 -20 -20 -20 -20 -20 -20 -4 -18 -6 -20 -18 -17 -13 -12 -7 -17 -15 1 10 2 4 -15 -6 10 15 20 30 15 6

GFSNE_prec_radar_120.txt.gz
Reflectivity
28 25 13 -20 -20 -13 -20 -19 -1 -14 -20 -8 -17 4 -20 -12 7 -16 -15 -18 -20 -20 -20 -20 -19 -5 15 9 15 26 31 5 -20 25 31 26 25 28
2 -8 -20 -20 -20 -20 13 -2 2 -20 0 -17 -19 -20 -17 -20 -20 -8 -1 -14 -19 -20 -20 -20 -20 -18 -6 3 9 15 21 27 31 21 23 25 5 28
-20 -20 -20 -20 -20 -20 -13 -19 -20 -4 10 -15 1 -8 -20 -4 -19 -6 -17 5 -19 16 17 -2 -19 -3 21 26 19 2 16 26 34 31 26 19 15 21
-20 -20 -20 -20 -19 -20 -20 -10 -4 -20 -19 9 -0 -9 22 2 9 15 13 -20 -17 -15 11 -20 8 25 23 24 18 12 28 24 23 28 19 22 24 18
-20 -20 -20 -20 -20 -20 -20 -20 -20 -20 -5 -18 -20 -20 2 9 -19 2 9 -19 -18 14 5 9 20 31 25 34 26 7 -3 14 17 26 29 12 14 25
-20 -20 -20 -20 -20 -20 -20 -20 -20 -20 -20 -19 -12 -16 -16 7 3 -20 -16 -6 -8 1 17 11 21 22 17 22 22 31 25 20 22 21 28 20 14 18
-20 -20 -20 -20 -20 -20 -15 -3 -18 -9 -11 -13 -17 -11 -20 -20 -8 5 2 -16 8 -6 -17 -2 15 15 7 24 28 26 17 25 28 28 27 17 14 8
-20 -20 -20 -20 -20 -20 -20 -20 -20 -19 -11 -12 -20 -20 -20 -14 -10 -20 -9 10 -0 12 -19 10 26 16 26 33 34 32 31 25 24 19 21 19 16 25
-20 -20 -20 -20 -20 -20 -20 -20 -20 -20 -20 -20 -20 -12 -5 -19 -19 1 -17 -20 -19 -15 -4 8 15 -6 27 33 31 25 23 22 19 13 17 17 -2 26
-20 -20 -20 -20 -20 -20 -20 -20 -20 -20 -20 -20 -20 -20 -20 -12 -20 -20 -20 -20 -20 -20 -20 -11 -1 10 16 25 12 21 11 -4 -15 15 22 -14 14 26
-20 -20 -20 -20 -20 -20 -20 -20 -20 -20 -20 -20 -20 -20 -20 -20 -20 -20 -20 -20 -20 -14 -20 -20 -20 -16 -10 11 13 -9 -7 -4 11 10 -3 6 9 25
-20 -20 -20 -20 -7 -5 3 -7 -17 -20 -20 -20 -20 -20 -20 -20 -20 -20 -20 -3 -3 -18 -20 -20 -20 -19 -8 -20 -20 -20 -19 3 7 13 13 1 15 19
-20 -20 -20 -20 -16 -3 4 7 12 11 1 -18 -20 -20 -20 -20 -20 -20 -20 -20 -20 -15 -20 -14 -13 -20 -9 -10 -20 -20 -18 -12 -7 21 22 24 23 19
-20 -20 -20 -11 6 -6 7 11 8 0 -20 -20 -20 -20 -20 -20 -20 -20 -20 -20 -20 -20 -20 -20 -10 -20 -11 4 -9 -11 -11 -20 -18 2 14 26 23 22
-19 -20 6 6 7 8 1 -1 5 -20 -20 -20 -20 -20 -20 -20 -20 -20 -20 -20 -20 -20 -20 -20 -18 -20 -8 -19 0 -3 -6 -20 -20 -18 17 13 14 17
-20 -20 6 4 -1 -20 -20 -20 -20 -20 -20 -15 10 -18 -20 -20 -20 -20 -20 -20 -20 -20 -20 -20 -20 -0 -17 6 10 -17 -7 -15 -20 -17 -7 19 23 22
-2 -20 -20 -20 -20 -20 -20 -20 -20 -20 -20 -20 -20 -20 -20 -20 -20 -20 -20 -20 -20 -20 -20 -20 -20 -20 -20 -20 -5 8 -14 -16 -16 2 5 15 25 22
-13 -20 -20 -20 -19 -20 -20 -20 -20 -20 -20 -20 -20 -20 -20 -20 -20 -20 -20 -20 -20 -20 -20 -20 -20 -20 -20 -9 -12 -20 -12 -4 -5 -8 -15 5 8 22
-20 -20 -20 -20 -20 -6 -20 -20 -20 -20 -20 -20 -20 -20 -20 -20 -19 -20 -20 -20 -20 -20 -20 -20 -20 -19 -12 -19 -20 -1 -18 -20 -20 -3 10 8 3 -8
-20 -20 -20 -20 -20 -20 -20 0 -4 -13 -16 -20 -20 -20 -20 -20 -20 -20 -20 -20 -20 -20 -20 -20 -20 -20 -4 -11 -15 -20 2 -12 7 -2 3 5 7 14
-20 -20 -20 -20 -20 -20 -20 -20 -20 -20 -20 -14 -20 -20 -20 -20 -20 -20 -20 3 6 -12 -20 -20 -20 -20 -13 4 13 -12 -20 12 2 19 1 14 1 12
-20 -20 -20 -20 -20 -20 -20 -20 -20 -20 -20 -20 -20 -20 -20 -20 -20 -20 -20 -4 -2 -20 -20 -20 -20 -20 -19 -11 -4 -20 -20 -20 -20 -20 17 22 12 9
-20 -20 -20 -20 -20 -20 -20 -20 -20 -20 -20 -20 -20 -20 -20 -20 -20 -20 -20 -20 -20 -20 -20 -20 -20 -20 -20 -2 -8 -19 -11 -20 -20 -20 -4 29 24 12

GFSNE_prec_radar_123.txt.gz
Reflectivity
12 15 29 38 39 33 21 6 -20 -20 -20 -20 -20 -20 -7 23 3 -18 -18 7 12 5 2 -20 -20 -20 -20 -20 -20 -20 -19 13 27 18 15 34 30 32
26 26 34 32 27 19 13 10 -6 -20 -15 -20 -20 -20 -20 -20 17 -10 -20 -20 0 -14 -20 3 -20 -20 -20 -20 -20 -20 -8 -19 -16 -16 8 25 33 29
10 19 11 13 4 -5 -1 -18 -20 -20 -20 -20 -20 -20 -20 -0 -12 -3 -6 -20 -15 -20 -20 -8 -9 -20 -20 -14 -1 -11 -1 -1 -12 -20 -20 16 28 33
-19 -20 -20 -20 -20 -19 -20 -20 -19 -20 -16 -20 -20 -20 -20 -20 -20 -17 -20 -20 1 12 -11 -20 8 -3 -20 2 -19 5 18 21 23 2 -20 -6 16 26
-20 -20 -20 -20 -20 -20 -20 -20 -20 -20 -20 -20 -20 -20 -20 -20 -20 -20 -20 -20 -1 -14 10 15 -20 -20 -17 -17 -20 -20 -17 -8 -4 -18 2 7 19 24
-20 -20 -20 -20 -20 -20 -20 -20 -20 -20 -20 -20 -20 -20 -20 -20 -20 -20 -20 -20 -20 -20 -20 -20 -20 -14 -16 -1 9 0 22 29 13 8 -20 -19 24 31
-20 -20 -20 -20 -20 -20 -20 -20 -20 -20 -20 -20 -20 -20 -20 -20 -20 -20 -20 -20 -20 -20 -20 -20 -20 -15 -5 11 3 13 21 19 23 27 33 14 15 24
-20 -20 -20 -20 -20 -20 -20 -20 -20 -20 -20 -20 -20 -20 -20 -20 -20 -20 -20 -15 -6 8 -12 -20 -20 -20 -18 -15 8 31 22 26 17 21 31 17 12 22
-20 -20 -20 -20 -20 -20 -20 -20 -20 -20 -20 -20 -20 -20 -20 -20 -20 -20 -20 -20 -20 -6 5 -4 -18 -9 12 10 18 33 33 27 23 21 28 27 20 25
-20 -20 -20 -20 -20 -20 -20 -20 -20 -20 -20 -20 -20 -20 -20 -20 -20 -20 -20 -20 -20 -20 -20 -9 -19 -13 10 7 5 20 1 31 27 30 33 33 26 22
-20 -20 -20 -20 -20 -20 -20 -20 -20 -20 -20 -20 -19 -20 -17 6 -20 -20 -20 -20 -20 -20 -20 -20 -19 -20 -15 -8 -20 7 25 1 30 33 36 31 26 19
-20 -20 -20 -20 -20 -19 -4 -20 -19 -20 -20 -20 -20 -20 -20 -20 -20 -20 -20 -20 -20 -19 -20 -20 -20 -10 -19 3 -20 -20 -5 16 3 27 29 25 20 21
-20 -20 -20 -20 -14 1 7 1 -2 6 7 -20 -20 -20 -20 -20 -20 -20 -20 -20 -20 -20 -20 -20 -14 -20 -4 -20 -20 -20 -20 -12 9 4 19 16 17 10
-20 -20 -20 -20 6 2 -0 3 5 4 -20 -20 -20 -20 -20 -20 -20 -20 -20 -20 -20 -20 -20 -20 -15 -20 -20 -8 -14 -20 -20 -20 -10 3 -0 14 19 21
-17 -20 2 3 6 7 -20 -6 -1 -20 -20 -20 -20 -20 -20 -20 -20 -20 -20 -20 -20 -20 -20 -20 -20 -20 3 6 2 -20 -20 -20 -20 -18 -20 -20 -1 21
-20 -20 5 1 -20 -20 -20 -20 -20 -20 -20 -20 -20 -20 -20 -20 -20 -20 -20 -20 -20 -20 -20 -20 -20 -20 -20 -17 0 1 -20 -5 -20 -20 -20 -20 14 22
4 -20 -20 -20 -20 -20 -20 -20 -20 -20 -20 -20 -20 -20 -20 -20 -20 -20 -20 -20 -20 -20 -20 -20 -20 -20 -20 -20 -10 -17 -20 -20 -20 -20 -20 -20 -18 11
-13 -20 -20 -20 -20 -20 -20 -20 -20 -20 -20 -20 -20 -20 -20 -20 -20 -20 -20 -12 -20 -20 -20 -20 -20 -20 -20 -20 -20 -20 -20 -20 -20 -20 -20 -19 -13 -3
-20 -20 -20 -20 -20 -20 -20 -20 -20 -20 -20 -20 -20 -20 -20 -20 -20 -20 -20 -20 -20 -20 -20 -20 -20 -20 -20 -20 -20 -20 -20 -20 -20 -20 -20 -19 6 -20
-20 -20 -20 -20 -20 -20 -20 -20 -20 -20 -20 -20 -20 -20 -20 -20 -20 -20 -20 -20 -20 -20 -20 -20 -20 -20 -20 -20 -20 -20 -20 -20 -8 -17 -1 -15 -15 -1
-20 -20 -20 -20 -20 -20 -20 -20 -20 -20 -20 -20 -20 -20 -20 -20 -20 -20 -20 -2 -8 -14 -8 -20 -20 -15 -3 8 4 -20 -20 -20 -17 -13 -9 8 7 9
-20 -20 -20 -20 -20 -20 -20 -20 -20 -20 -20 -20 -20 -20 -20 -20 -20 -20 -20 -20 -20 -20 -20 -20 -20 -20 -20 -12 -7 -20 -20 -20 -20 -16 -18 -19 16 12
-20 -20 -20 -20 -20 -20 -20 -20 -20 -20 -20 -20 -20 -20 -20 -20 -20 -20 -20 -20 -20 -20 -20 -20 -20 -20 -20 -20 -20 -19 -20 -20 -20 -5 -20 -20 -20 -1

GFSNE_prec_radar_126.txt.gz
Reflectivity
-7 -11 -19 -20 -20 -20 -20 7 36 40 42 29 34 25 -16 -20 9 -20 -17 4 -8 -7 -6 3 1 6 10 -14 -20 -11 -20 -20 -20 -20 15 27 18 24
-12 -6 -17 -20 7 -5 2 5 23 34 35 31 17 13 14 2 6 -17 -20 6 14 13 -20 -9 14 -9 -20 -4 -20 -20 -20 -20 -20 -20 -20 16 -13 19
-20 -20 -20 -2 7 6 4 26 20 13 15 21 21 19 -0 -2 -20 -20 -20 -20 -17 3 -20 -20 0 -2 -13 -4 9 -20 -10 -3 -3 -20 -20 -2 3 3
-20 -20 -20 -20 -19 -5 4 8 12 8 6 1 6 2 4 -19 -20 -20 -20 -20 -20 -20 -20 -19 -19 -20 -20 -20 -12 4 6 -20 0 8 -20 -20 -19 23
-20 -20 -20 -20 -20 -20 -20 -20 -11 -2 -6 -7 -1 -15 -20 -20 -20 -20 -20 -20 -20 -20 -20 -20 -20 -20 -20 -20 -10 2 0 -16 -5 -9 1 15 -1 -20
-20 -20 -20 -20 -20 -20 -20 -20 -20 -20 -20 -20 -20 -20 -20 -20 -20 -20 -20 -20 -20 -20 -20 -20 -20 -20 -20 -20 -16 -19 -18 -20 3 1 13 11 22 9
-20 -20 -20 -20 -20 -20 -20 -20 -20 -20 -20 -20 -20 -20 -20 -20 -20 -20 -20 -20 -20 -20 -20 -20 -20 -20 -20 -20 -20 -20 -9 -20 -20 -15 9 -4 5 12
-20 -20 -20 -20 -20 -20 -20 -20 -20 -20 -20 -20 -20 -20 -20 -20 -20 -20 -20 -20 -20 -20 -20 -20 -20 -20 -20 -20 -20 -20 -20 -17 -20 -20 7 12 13 23
-20 -20 -20 -20 -20 -20 -20 -20 -20 -20 -3 -15 -20 -20 -20 -20 -20 -20 -20 -20 -20 -20 -20 -20 -20 -20 -20 -20 -20 -20 12 3 -16 -4 14 20 19 27
-20 -20 -20 -20 -20 -20 -20 -20 -20 -20 -20 -20 -20 -20 -20 -20 -6 -20 -20 -20 -20 -20 -20 -20 -20 -12 -7 -20 -18 15 8 -20 -20 5 -19 22 26 29
-20 -20 -20 -20 -20 -20 -20 -20 -20 -20 -20 -20 -18 -16 -3 12 11 -20 -20 -20 -20 -20 -20 -20 -20 -20 -19 -7 -20 -20 -19 -19 -15 -4 23 20 25 16
-20 -20 -20 -20 -20 -15 -18 -20 -20 -20 -20 -18 -18 -20 -20 -20 -20 -20 -20 -20 -20 -20 -20 -20 -20 -20 -20 -20 -20 -14 -19 -20 -4 8 14 19 20 22
-20 -20 -20 -20 -0 9 6 -18 -10 -1 -12 -20 -20 -20 -20 -20 -20 -20 -20 -20 -20 -20 -20 -13 -20 -20 -20 -19 -20 -20 -20 -20 -16 5 -11 4 20 8
-20 -20 -20 -20 6 6 6 -2 -0 -2 -20 -20 -20 -20 -20 -20 -20 -20 -20 -20 -20 -20 -20 -20 -20 -20 -20 -20 -20 -20 -13 -10 -20 -5 6 -20 18 15
-6 -17 1 1 5 -17 -20 -20 -19 -20 -20 -20 -20 -20 -20 -20 -20 -20 -20 -20 -20 -20 -20 -20 -20 -20 -20 -20 -20 -20 -15 -20 -20 -20 -3 6 -20 20
-20 -20 -4 2 -20 -20 -20 -20 -20 -20 -20 -3 -2 -2 -20 -20 -20 -20 -20 -20 -20 -20 -20 -20 -20 -20 -20 -20 -14 -1 -20 -20 -20 -20 -20 -20 -18 -18
3 -20 -20 -20 -20 -20 -20 -20 -20 -20 -20 -20 -20 -20 -20 -20 -20 -20 -20 -20 -20 -20 -20 -20 -20 -20 -20 -20 -7 -20 -20 -20 -20 -20 -20 -20 -20 -19
3 -20 -20 -20 -20 -20 -20 -20 -20 -20 -20 -20 -20 -20 -20 -20 -20 -20 -20 -20 -20 -18 -20 -20 -20 -20 -20 -20 -20 -20 -20 -20 -20 -20 -20 -20 -20 -20
-20 -20 -20 -20 -20 -20 -20 -20 -20 -20 -20 -20 -20 -20 -20 -20 -20 -20 -20 -20 -20 -20 -20 -20 -7 -20 -20 -20 -20 -20 -20 -20 -20 -20 -2 -3 -15 -20
-20 -20 -20 -20 -20 -20 -20 -20 -20 -20 -20 -20 -20 -20 -20 -20 -20 -20 -20 -20 -20 -20 -20 -20 -20 -20 -20 -20 -20 -20 -20 -20 -20 -20 -9 -15 -11 -20
-20 -20 -20 -20 -20 -20 -20 -20 -20 -20 -20 -20 -20 -20 -20 -20 -20 -20 -20 -20 -8 -16 -20 -20 -20 -15 -8 2 -9 -20 -20 -20 -20 -20 -20 -0 -9 -20
-20 -20 -20 -20 -20 -20 -20 -20 -20 -20 -20 -20 -20 -20 -20 -20 -20 -20 -20 -20 -20 -20 -20 -20 -20 -20 -20 -5 -20 -20 -20 -20 -20 -20 -20 -20 2 -1
-20 -20 -20 -20 -20 -20 -20 -20 -20 -20 -20 -20 -20 -20 -20 -20 -20 -20 -20 -20 -20 -20 -20 -20 -20 -20 -20 -20 -20 -20 -20 -20 -20 -20 -20 -20 -2 3